     2.11           OBSERVATION DATA    G (GPS)             RINEX VERSION / TYPE
teqc 2010Oct21 OPUS Account 20111028 22:15:55UTC            PGM / RUN BY / DATE
J 1521                                                      MARKER NAME
1124                                                        MARKER NUMBER
CSMIDDLETON NGS                                             OBSERVER / AGENCY
0220320152 TRIMBLE 5700 2.01                                REC # / TYPE / VERS
12214372 TRM41249.00 NONE                                   ANT # / TYPE
  -740157.9270 -5465718.8116  3192441.4510                  APPROX POSITION XYZ
        2.0000        0.0000        0.0000                  ANTENNA: DELTA H/E/N
     1     1                                                WAVELENGTH FACT L1/2
     5    L1    L2    C1    P1    P2                        # / TYPES OF OBSERV
    15                                                      LEAP SECONDS
  2011     9    22     0     0   30.0000000     GPS         TIME OF FIRST OBS
                                                            END OF HEADER
 11  9 22  0  0 30.0000000  0  8G02G30G10G12G26G05G25G29
 -13377128.78558 -10389752.13756  21444015.8284                   21444012.9654
 -12891094.70757 -10027273.88355  22563940.6094                   22563941.2304
  -8030852.54757  -6215619.94554  23422763.3054                   23422764.2704
 -26551526.59857 -20642170.85556  21453006.0784                   21453005.8164
  -6758311.72357  -5245395.37953  23739277.3594                   23739280.8094
 -33574740.10258 -26146717.81657  20224754.5394                   20224753.8634
 -24330519.72358 -18936182.87556  21446385.6024                   21446387.1884
 -15064735.81257 -11724434.72356  22435443.2974                   22435444.3524
 11  9 22  0  1  0.0000000  0  8G02G30G10G12G26G05G25G29
 -13365702.08248 -10380848.18046  21446189.7734                   21446187.2274
 -12950936.37147 -10073903.72744  22552552.3754                   22552552.4344
  -7955235.61747  -6156697.68744  23437152.5784                   23437153.8054
 -26514096.48047 -20613004.55946  21460128.8674                   21460128.5904
  -6883564.28147  -5342994.46143  23715442.6564                   23715445.6374
 -33583460.04748 -26153512.54747  20223095.4304                   20223094.2384
 -24351935.69147 -18952870.60946  21442310.3204                   21442312.0704
 -15174849.73047 -11810237.65245  22414487.8594                   22414489.0084
 11  9 22  0  1 30.0000000  0  8G02G30G10G12G26G05G25G29
 -13354163.00848 -10371856.67646  21448386.1414                   21448383.6214
 -13010190.17247 -10120075.45344  22541276.8134                   22541277.5474
  -7879438.79347  -6097635.28144  23451575.8594                   23451577.9774
 -26476240.12947 -20583506.12146  21467332.6564                   21467332.0434
  -7008756.98447  -5440546.95743  23691618.6484                   23691620.8954
 -33591639.76248 -26159886.33247  20221538.7424                   20221537.3164
 -24372765.95748 -18969101.96546  21438346.0944                   21438347.6994
 -15284863.89147 -11895962.85245  22393553.4454                   22393554.2584
 11  9 22  0  2  0.0000000  0  8G02G30G10G12G26G05G25G29
 -13342511.56647 -10362777.60546  21450602.8914                   21450600.9024
 -13068854.89147 -10165788.18745  22530113.7894                   22530114.0824
  -7803464.30547  -6038434.43043  23466033.3364                   23466035.3244
 -26437959.67247 -20553677.21546  21474617.1414                   21474616.3164
  -7133885.98847  -5538049.78943  23667806.9384                   23667810.2624
 -33599280.76648 -26165840.32047  20220084.5864                   20220083.5124
 -24393010.74648 -18984877.10246  21434493.5944                   21434495.3364
 -15394775.97347 -11981608.50445  22372637.7034                   22372638.0474
 11  9 22  0  2 30.0000000  0  8G02G30G10G12G26G05G25G29
 -13330747.78947 -10353611.01646  21452841.9774                   21452839.0984
 -13126929.91847 -10211041.40245  22519062.0944                   22519063.3674
  -7727314.86747  -5979097.24243  23480524.3914                   23480526.2814
 -26399257.90647 -20523520.01246  21481981.9454                   21481981.5274
  -7258948.12547  -5635500.52344  23644007.9614                   23644012.3674
 -33606383.97348 -26171375.27047  20218732.8364                   20218731.5274
 -24412670.80948 -19000196.60946  21430752.6024                   21430754.5634
 -15504584.15247 -12067173.18045  22351742.1094                   22351741.6524
 11  9 22  0  3  0.0000000  0  8G02G30G10G12G26G05G25G29
 -13318872.64147 -10344357.63346  21455101.3914                   21455099.4494
 -13184415.28947 -10255835.14845  22508123.2974                   22508123.9884
  -7650993.84047  -5919626.35943  23495048.3674                   23495049.5164
 -26360138.13747 -20493037.09446  21489426.1954                   21489426.0434
  -7383940.36746  -5732896.79344  23620222.9774                   23620226.3284
 -33612952.02348 -26176493.19147  20217483.0394                   20217481.8014
 -24431747.77047 -19015061.75846  21427122.4144                   21427124.4264
 -15614287.35247 -12152656.09445  22330865.7034                   22330867.1054
 11  9 22  0  3 30.0000000  0  8G02G30G10G12G26G05G25G29
 -13306886.72747 -10335017.93746  21457381.9454                   21457380.1604
 -13241310.64847 -10300169.13745  22497295.9924                   22497296.2114
  -7574504.25446  -5860024.10943  23509603.3834                   23509604.9224
 -26320603.18048 -20462230.66446  21496949.5234                   21496949.0354
  -7508859.85246  -5830236.38343  23596451.5234                   23596453.8164
 -33618986.49648 -26181195.35947  20216334.7974                   20216333.0554
 -24450242.50048 -19029473.23046  21423602.8984                   21423604.6764
 -15723884.02347 -12238055.96145  22310009.9534                   22310009.9614
 11  9 22  0  4  0.0000000  0  8G02G30G10G12G26G05G25G29
 -13294789.07847 -10325591.19946  21459684.2034                   21459681.6134
 -13297614.32047 -10344042.10545  22486582.3754                   22486582.5084
  -7497847.71946  -5800291.78943  23524190.2114                   23524192.2624
 -26280654.69148 -20431102.00046  21504551.5554                   21504551.1954
  -7633701.84446  -5927515.59844  23572694.3834                   23572697.1994
 -33624487.71948 -26185481.99247  20215287.8834                   20215286.6684
 -24468154.76648 -19043430.81246  21420194.3364                   21420196.3324
 -15833371.03147 -12323370.37145  22289175.2734                   22289176.0634
 11  9 22  0  4 30.0000000  0  8G02G30G10G12G26G05G25G29
 -11707160.30947  -9088477.85246  21761800.1484                   21761797.8554
 -11777903.93747  -9159852.14145  22775772.7274                   22775773.6524
  -5845609.40646  -4512833.43443  23838601.1884                   23838602.7894
 -24664876.42647 -19172054.02046  21812023.7584                   21812023.4844
  -6183038.66446  -4797128.47344  23848746.4924                   23848749.8834
 -32054037.16448 -24961754.25047  20514134.4924                   20514133.4694
 -22910064.77348 -17829334.70346  21716688.8754                   21716690.9144
 -14367322.84047 -11180995.04345  22568155.3134                   22568155.1094
 11  9 22  0  5  0.0000000  0  8G02G30G10G12G26G05G25G29
 -11694841.18447  -9078878.52746  21764144.2344                   21764141.7504
 -11833024.08247  -9202802.87944  22765284.2504                   22765284.2934
  -5768628.72347  -4452848.54744  23853250.2664                   23853251.9774
 -24624109.78547 -19140287.82446  21819781.5394                   21819781.0084
  -6307716.69146  -4894279.94544  23825020.5234                   23825024.1024
 -32058478.15648 -24965214.74647  20513289.7504                   20513287.9964
 -22926816.02748 -17842387.61746  21713501.4534                   21713503.1134
 -14476586.43447 -11266135.39845  22547362.8444                   22547362.7464
 11  9 22  0  5 30.0000000  0  9G02G15G30G10G12G26G05G25G29
 -11682413.56247  -9069194.66846  21766509.1564                   21766506.6524
   1393986.45716                  24746513.664
 -11887553.77347  -9245293.47745  22754906.7974                   22754907.7074
  -5691491.84047  -4392741.92644  23867928.9614                   23867930.8954
 -24582940.84847 -19108208.15246  21827615.7034                   21827615.2074
  -6432309.53946  -4991365.00444  23801310.6174                   23801313.8244
 -32062393.45748 -24968265.59447  20512544.5164                   20512543.0044
 -22942990.26248 -17854990.89546  21710423.4144                   21710424.8054
 -14585737.68047 -11351188.22345  22526591.7974                   22526593.1414
 11  9 22  0  6  0.0000000  0  9G02G15G30G10G12G26G05G25G29
 -11669884.04347  -9059431.40246  21768893.1884                   21768891.3834
   1270467.051 5                  24723009.008
 -11941498.55147  -9287328.33245  22744641.7504                   22744642.4804
  -5614207.75447  -4332520.60943  23882635.9694                   23882638.0044
 -24541377.94147 -19075821.48446  21835524.7894                   21835524.3954
  -6556819.69146  -5088385.67244  23777617.7274                   23777619.9494
 -32065790.35248 -24970912.50447  20511897.9844                   20511896.9734
 -22958594.30948 -17867149.88746  21707454.0554                   21707455.8284
 -14694780.59447 -11436156.63746  22505841.9304                   22505842.1024
 11  9 22  0  6 30.0000000  0  9G02G15G30G10G12G26G05G25G29
 -11657257.28147  -9049592.36346  21771296.2344                   21771293.4964
   1146827.207 6                  24699480.633
 -11994862.66447  -9328910.70744  22734486.5634                   22734487.7154
  -5536783.79746  -4272190.28143  23897369.1414                   23897371.0864
 -24499428.39547 -19043133.54746  21843507.5004                   21843507.1094
  -6681248.51646  -5185342.97344  23753939.4224                   23753941.9884
 -32068675.22748 -24973160.42647  20511349.0784                   20511347.7934
 -22973633.87148 -17878869.01246  21704592.2424                   21704594.0864
 -14803718.07847 -11521042.88345  22485111.3984                   22485111.7734
 11  9 22  0  7  0.0000000  0  9G02G15G30G10G12G26G05G25G29
 -11644530.71148  -9039675.55146  21773718.2894                   21773715.3554
   1023072.98846    811562.91053  24675930.7114                   24675937.5164
 -12047642.94947  -9370038.16445  22724443.0164                   22724443.8204
  -5459219.72746  -4211750.78143  23912128.9304                   23912131.4844
 -24457091.95348 -19010144.14546  21851564.4304                   21851564.1524
  -6805589.82447  -5282232.09844  23730278.0474                   23730280.3014
 -32071047.15248 -24975008.64547  20510897.7584                   20510896.1914
 -22988107.22748 -17890146.93046  21701837.7504                   21701839.7504
 -14912545.35547 -11605843.28546  22464402.2344                   22464402.9734
 11  9 22  0  7 30.0000000  0  9G02G15G30G10G12G26G05G25G29
 -11631700.46948  -9029677.96546  21776159.1254                   21776157.3244
    899210.00046    715046.75043  24652360.2734                   24652365.5554
 -12099834.95747  -9410707.20745  22714511.4454                   22714512.3874
  -5381514.50446  -4151201.30944  23926916.3524                   23926917.7464
 -24414367.71148 -18976852.55946  21859694.3674                   21859694.1334
  -6929835.89147  -5379046.98444  23706634.2894                   23706637.4264
 -32072903.57048 -24976455.18447  20510544.1334                   20510543.0554
 -23002011.26248 -17900981.21946  21699191.8674                   21699194.2664
 -15021256.34847 -11690553.05145  22443715.0704                   22443715.2384
 11  9 22  0  8  0.0000000  0  9G02G15G30G10G12G26G05G25G29
 -11618765.27747  -9019598.59046  21778620.9844                   21778617.7974
    775242.62946    618449.25843  24628769.1884                   24628776.6214
 -12151436.94547  -9450916.51245  22704691.9304                   22704692.1094
  -5303669.27346  -4090542.71544  23941729.2664                   23941731.3794
 -24371257.00047 -18943259.81646  21867898.2274                   21867897.3754
  -7053982.08647  -5475784.07444  23683009.6954                   23683013.4304
 -32074244.92648 -24977500.36347  20510289.1724                   20510287.7114
 -23015345.61348 -17911371.60946  21696654.3984                   21696656.2384
 -15129847.84047 -11775169.73845  22423051.2194                   22423051.3164
 11  9 22  0  8 30.0000000  0  9G02G15G30G10G12G26G05G25G29
 -11605721.33247  -9009434.47346  21781103.0704                   21781100.4384
    651177.17246    521775.34443  24605160.1414                   24605167.1844
 -12202444.75447  -9490662.80545  22694985.0164                   22694985.5864
  -5225682.80146  -4029774.11344  23956569.5314                   23956571.8984
 -24327758.67647 -18909365.03946  21876175.1484                   21876174.8794
  -7178020.66047  -5572437.29744  23659406.6724                   23659408.6134
 -32075068.94548 -24978142.43447  20510132.3364                   20510131.1724
 -23028107.53548 -17921315.94946  21694226.1094                   21694228.2814
 -15238314.19947 -11859688.93445  22402410.2664                   22402410.8914
 11  9 22  0  9  0.0000000  0  9G02G15G30G10G12G26G05G25G29
 -11592569.59047  -8999186.35946  21783606.3204                   21783603.5904
    527015.58246    425026.45743  24581531.7424                   24581538.5514
 -12252858.69147  -9529946.35245  22685391.6644                   22685392.6564
  -5147558.23446  -3968897.88343  23971436.1484                   23971438.1484
 -24283876.10547 -18875170.84446  21884525.8054                   21884525.9184
  -7301948.97347  -5669004.59044  23635823.4924                   23635825.8444
 -32075377.96148 -24978383.19147  20510073.2344                   20510072.1454
 -23040298.73048 -17930815.56246  21691906.4384                   21691908.1604
 -15346653.93747 -11944109.44146  22381794.2424                   22381793.9184
 11  9 22  0  9 30.0000000  0  9G02G15G30G10G12G26G05G25G29
 -11579307.96547  -8988852.60946  21786129.4454                   21786126.6454
    402762.83246    328206.59043  24557887.8134                   24557893.3794
 -12302676.10547  -9568765.09845  22675912.1484                   22675912.1524
  -5069296.07446  -3907914.46543  23986329.2344                   23986331.4414
 -24239609.65247 -18840677.53146  21892949.3364                   21892949.0354
  -7425761.08647  -5765481.36344  23612262.2034                   23612265.0904
 -32075171.00048 -24978221.89847  20510112.9774                   20510111.5234
 -23051917.93448 -17939869.46546  21689695.1334                   21689696.5514
 -15454862.76247 -12028427.95746  22361202.4694                   22361203.1454
 11  9 22  0 10  0.0000000  0  9G02G15G30G10G12G26G05G25G29
 -11565936.82447  -8978433.52046  21788674.2274                   21788671.4574
    278420.64846    231317.06343  24534225.2344                   24534232.0864
 -12351897.36747  -9607119.29745  22666545.6334                   22666545.4844
  -4990899.50446  -3846826.27044  24001247.4924                   24001249.8164
 -24194962.62147 -18805887.65246  21901445.7344                   21901445.3094
  -7549454.07047  -5861865.28944  23588724.0704                   23588726.5944
 -32074450.75048 -24977660.64847  20510249.7734                   20510248.2854
 -23062966.94948 -17948479.06246  21687592.3524                   21687594.4804
 -15562939.32447 -12112643.39846  22340636.1484                   22340636.5704
 11  9 22  0 10 30.0000000  0  9G02G15G30G10G12G26G05G25G29
 -11552458.71147  -8967931.09046  21791238.4774                   21791236.4614
    153989.94946    134358.54743  24510547.5944                   24510553.6054
 -12400524.44547  -9645010.48845  22657291.8444                   22657291.5784
  -4912373.56246  -3785637.29744  24016190.9304                   24016192.8594
 -24149940.31247 -18770805.35946  21910012.7504                   21910012.4184
  -7673026.68447  -5958155.41444  23565209.3984                   23565210.8054
 -32073221.13748 -24976702.47347  20510483.8204                   20510482.6214
 -23073449.01248 -17956646.89846  21685597.7584                   21685599.3794
 -15670883.94947 -12196756.02745  22320094.9454                   22320094.6954
 11  9 22  0 11  0.0000000  0  9G02G15G30G10G12G26G05G25G29
 -11538870.67647  -8957343.00046  21793824.3134                   21793821.4884
     29476.01646     37335.13343  24486853.7974                   24486858.3014
 -12448554.06647  -9682436.12545  22648151.8444                   22648152.9344
  -4833717.66846  -3724347.07043  24031158.8594                   24031160.0784
 -24104542.35248 -18735430.35946  21918652.3524                   21918651.6884
  -7796472.20747  -6054346.51644  23541717.9694                   23541719.5234
 -32071480.86748 -24975346.39847  20510815.0164                   20510813.7774
 -23083362.34848 -17964371.55546  21683711.3914                   21683713.0664
 -15778691.44947 -12280761.81245  22299579.9064                   22299579.9884
 11  9 22  0 11 30.0000000  0  9G02G15G30G10G12G26G05G25G29
 -11525174.18447  -8946670.39846  21796430.5234                   21796428.3284
    -95119.67246    -59751.92243  24463142.6724                   24463149.4144
 -12495987.21147  -9719396.97345  22639125.5394                   22639126.3164
  -4754935.60246  -3662958.50043  24046150.0314                   24046151.8484
 -24058772.63348 -18699765.67246  21927361.7504                   21927361.1804
  -7919788.29747  -6150436.74244  23518251.4774                   23518253.4614
 -32069232.50448 -24973594.40247  20511242.6334                   20511241.2154
 -23092709.24648 -17971654.84446  21681932.6804                   21681934.8754
 -15886360.99647 -12364660.10545  22279090.7734                   22279091.2774
 11  9 22  0 12  0.0000000  0  9G02G15G30G10G12G26G05G25G29
 -11511370.86347  -8935914.55146  21799057.2894                   21799054.6454
   -219796.06646   -156901.94543  24439417.3984                   24439422.7894
 -12542825.32447  -9755894.17645  22630212.5944                   22630212.4884
  -4676031.53546  -3601474.84043  24061165.7344                   24061166.1524
 -24012635.76248 -18663814.88746  21936141.1884                   21936141.2384
  -8042972.96547  -6246424.57044  23494810.1174                   23494812.3204
 -32066479.87948 -24971449.47747  20511766.5944                   20511765.3444
 -23101492.57848 -17978498.98046  21680261.1954                   21680263.2234
 -15993892.35547 -12448450.73045  22258628.2194                   22258628.1604
 11  9 22  0 12 30.0000000  0  9G02G15G30G10G12G26G05G25G29
 -11497461.44147  -8925076.04346  21801704.3914                   21801701.7194
   -344551.45746   -254113.47343  24415675.7664                   24415682.1804
 -12589068.97747  -9791928.15245  22621412.8914                   22621413.7704
  -4597008.37146  -3539898.37143  24076203.0394                   24076203.8324
 -23966135.06648 -18627580.59446  21944989.9454                   21944989.7894
  -8166023.46547  -6342307.84444  23471394.2274                   23471395.1994
 -32063225.27748 -24968913.40247  20512386.1954                   20512384.6334
 -23109714.21548 -17984905.44146  21678696.5944                   21678698.3284
 -16101283.85247 -12532132.35546  22238192.0944                   22238192.7074
 11  9 22  0 13  0.0000000  0  9G02G15G30G10G12G26G05G25G29
 -11483441.92647  -8914151.73446  21804372.0554                   21804369.4264
   -469379.05146   -351381.26643  24391921.8444                   24391927.7504
 -12634714.31247  -9827495.91445  22612726.9774                   22612727.2584
  -4517865.07046  -3478228.29743  24091263.1644                   24091264.6414
 -23919269.80948 -18591062.24646  21953908.3054                   21953907.8014
  -8288932.21547  -6438080.67644  23448005.4614                   23448006.4024
 -32059466.39148 -24965984.39547  20513101.3914                   20513099.8054
 -23117371.71148 -17990872.31646  21677239.5474                   21677241.3914
 -16208530.14847 -12615700.82446  22217783.6094                   22217784.6254
 11  9 22  0 13 30.0000000  0  9G02G15G30G10G12G26G05G25G29
 -11469314.98448  -8903143.74246  21807060.4534                   21807058.4654
   -594278.93046   -448705.36343  24368153.6954                   24368159.5004
 -12679763.52047  -9862599.17644  22604154.6334                   22604153.9494
  -4438606.92646  -3416468.72343  24106345.5394                   24106347.3524
 -23872045.09448 -18554263.80146  21962894.5704                   21962894.3794
  -8411698.39547  -6533742.42644  23424643.5554                   23424646.2194
 -32055207.84048 -24962666.01647  20513911.3984                   20513909.8914
 -23124468.77348 -17996402.48846  21675889.0704                   21675890.6174
 -16315631.38347 -12699156.25045  22197403.3594                   22197402.4454
 11  9 22  0 14  0.0000000  0  9G02G15G30G10G12G26G05G25G29
 -11455079.46548  -8892051.12546  21809769.2974                   21809766.9964
   -719246.64146   -546082.33643  24344373.1484                   24344379.1804
 -12724214.99647  -9897236.61345  22595695.2274                   22595695.9614
  -4359234.77746  -3354620.31643  24121450.0554                   24121451.3164
 -23824462.10248 -18517186.18746  21971949.5704                   21971949.6174
  -8534316.46947  -6629288.73444  23401310.3754                   23401312.4884
 -32050450.03148 -24958958.61747  20514817.2114                   20514815.5394
 -23131004.96948 -18001495.62146  21674644.9924                   21674646.7734
 -16422583.76647 -12782495.67646  22177050.9064                   22177050.7544
 11  9 22  0 14 30.0000000  0  9G02G15G30G10G12G26G05G25G29
 -11440735.21147  -8880873.80146  21812498.6724                   21812496.7974
   -844279.60946   -643510.15244  24320579.7894                   24320585.0944
 -12768068.79347  -9931408.36745  22587349.8834                   22587350.9494
  -4279751.19546  -3292685.10943  24136575.2424                   24136576.6764
 -23776524.04348 -18479831.87546  21981072.1644                   21981071.6054
  -8656782.96147  -6724716.93744  23378004.8984                   23378007.0664
 -32045194.39848 -24954863.30147  20515817.1884                   20515815.6604
 -23136981.79748 -18006152.89146  21673507.5944                   21673509.5944
 -16529385.47747 -12865717.70746  22156727.1094                   22156727.9384
 11  9 22  0 15  0.0000000  0  9G02G15G30G10G12G26G05G25G29
 -11426283.19147  -8869612.49246  21815248.8754                   21815246.8524
   -969375.94946   -740987.39544  24296774.2194                   24296780.5514
 -12811325.85247  -9965115.12545  22579118.8054                   22579119.1884
  -4200159.59846  -3230665.68043  24151720.6954                   24151722.3484
 -23728234.62147 -18442203.79746  21990261.2664                   21990260.4964
  -8779095.09847  -6820024.88744  23354729.0554                   23354731.3594
 -32039443.69948 -24950382.20747  20516910.9064                   20516909.6994
 -23142401.45748 -18010376.01246  21672476.4224                   21672478.4224
 -16636035.24247 -12948821.33246  22136432.6094                   22136431.7704
 11  9 22  0 15 30.0000000  0  9G02G15G30G10G12G26G05G25G29
 -11411724.33247  -8858267.94946  21818019.5864                   21818017.5164
  -1094534.18046   -838512.80544  24272957.5234                   24272963.2734
 -12853987.09847  -9998357.59845  22571000.8834                   22571000.9494
  -4120463.37546  -3168564.71943  24166886.3054                   24166887.7734
 -23679597.49248 -18404304.78946  21999516.5784                   21999516.2304
  -8901250.41847  -6915210.64144  23331484.7504                   23331485.9574
 -32033200.99248 -24945517.73047  20518099.3284                   20518097.9574
 -23147266.39848 -18014166.87546  21671550.6414                   21671552.2424
 -16742532.00447 -13031805.72746  22116166.7424                   22116165.7424
 11  9 22  0 16  0.0000000  0  9G02G15G30G10G12G26G05G25G29
 -11397056.66847  -8846838.61346  21820811.0314                   21820808.5744
  -1219749.60546   -936082.78544  24249129.4454                   24249134.8834
 -12896050.70347 -10031134.36345  22562995.6174                   22562996.1334
  -4040663.19146  -3106382.77743  24182071.5394                   24182072.9694
 -23630613.91848 -18366135.79746  22008837.7734                   22008837.5004
  -9023243.25447  -7010269.75044  23308269.9454                   23308270.9654
 -32026466.30948 -24940269.91047  20519381.1414                   20519379.6724
 -23151576.00448 -18017525.01246  21670730.2664                   21670732.8484
 -16848871.93447 -13114667.90246  22095930.7974                   22095930.1094
 11  9 22  0 16 30.0000000  0  9G02G15G30G10G12G26G05G25G29
 -11382278.80147  -8835323.40246  21823623.4384                   21823620.6054
  -1345017.78547  -1033693.85944  24225291.2344                   24225295.3324
 -12937515.05147 -10063444.20345  22555105.2274                   22555106.2894
  -3960760.04346  -3044120.60943  24197276.9064                   24197278.7814
 -23581284.59448 -18327697.40246  22018225.0234                   22018224.5944
  -9145068.38346  -7105198.18044  23285086.1174                   23285088.4304
 -32019239.78148 -24934638.82847  20520756.0314                   20520754.3484
 -23155330.05548 -18020450.26246  21670016.3834                   21670018.4184
 -16955051.25847 -13197404.94546  22075725.4224                   22075725.1724
 11  9 22  0 17  0.0000000  0  9G02G15G30G10G12G26G05G25G29
 -11367394.44547  -8823725.23046  21826455.0004                   21826452.8634
  -1470339.45747  -1131346.66444  24201442.5864                   24201446.5274
 -12978383.88747 -10095290.00845  22547328.0394                   22547328.3484
  -3880760.18046  -2981783.05943  24212500.4694                   24212502.0044
 -23531616.62948 -18288995.14146  22027676.3054                   22027676.3244
  -9266725.80147  -7199995.96144  23261935.8754                   23261937.7624
 -32011527.05948 -24928628.89147  20522223.6024                   20522222.3714
 -23158533.73848 -18022946.64546  21669406.5864                   21669408.1054
 -17061071.41847 -13280017.96146  22055550.1884                   22055549.2194
 11  9 22  0 17 30.0000000  0  9G02G15G30G10G12G26G05G25G29
 -11352402.54347  -8812043.24246  21829308.0944                   21829306.1454
  -1595712.02746  -1229039.08244  24177584.4384                   24177589.1844
 -13018656.87147 -10126671.48445  22539664.0704                   22539664.9344
  -3800665.31646  -2919371.50043  24227742.8364                   24227743.6914
 -23481611.97747 -18250030.52046  22037192.2974                   22037191.9024
  -9388211.66047  -7294660.08244  23238817.9064                   23238819.4884
 -32003329.26648 -24922240.98047  20523783.9844                   20523782.4494
 -23161187.87948 -18025014.81246  21668901.4454                   21668903.3874
 -17166929.76647 -13362504.89546  22035406.0084                   22035404.9024
 11  9 22  0 18  0.0000000  0  9G02G15G30G10G12G26G05G25G29
 -11337301.40247  -8800276.14146  21832181.7274                   21832179.8014
  -1721130.04747  -1326766.96544  24153718.4924                   24153722.9064
 -13058331.76247 -10157586.96145  22532114.4774                   22532114.5984
  -3720475.41046  -2856885.85943  24243001.9384                   24243003.7734
 -23431271.69948 -18210804.35546  22046771.7974                   22046771.2774
  -9509519.40647  -7389185.41044  23215733.5164                   23215735.5124
 -31994646.27048 -24915474.97747  20525435.6254                   20525434.3984
 -23163291.78148 -18026654.22346  21668501.1644                   21668503.5554
 -17272621.87948 -13444862.29746  22015293.7664                   22015293.8834
 11  9 22  0 18 30.0000000  0  9G02G15G30G10G12G26G05G25G29
 -11322092.94948  -8788425.43045  21835076.0164                   21835073.7734
  -1846592.69147  -1424529.58644  24129843.5314                   24129848.5274
 -13097410.65647 -10188037.98445  22524678.1334                   22524679.4144
  -3640195.18446  -2794329.86343  24258278.5474                   24258279.9534
 -23380600.14148 -18171320.05546  22056414.0864                   22056414.3914
  -9630647.71147  -7483570.90244  23192683.2424                   23192685.7584
 -31985481.79748 -24908333.80147  20527179.9454                   20527178.4024
 -23164848.69548 -18027867.40646  21668204.8134                   21668207.1644
 -17378147.52047 -13527089.96546  21995212.6024                   21995212.8444
 11  9 22  0 19  0.0000000  0  9G02G15G30G10G12G26G05G25G29
 -11306775.93747  -8776490.09845  21837990.3834                   21837988.3524
  -1972096.09447  -1522323.98444  24105960.1094                   24105964.2974
 -13135892.53547 -10218023.83645  22517354.8754                   22517355.5784
  -3559825.89146  -2731704.47743  24273572.6804                   24273573.2464
 -23329599.44948 -18131579.28146  22066119.3364                   22066118.9574
  -9751591.42647  -7577812.58644  23169669.0704                   23169669.6024
 -31975836.41848 -24900817.91047  20529015.2194                   20529014.4184
 -23165859.09848 -18028654.73846  21668012.7584                   21668014.4614
 -17483503.42648 -13609185.39846  21975164.0314                   21975163.8164
 11  9 22  0 19 30.0000000  0  9G02G15G30G10G12G26G05G25G29
 -11291350.75448  -8764470.48045  21840926.1954                   21840922.9884
  -2097638.05547  -1620148.44144  24082069.8444                   24082073.3244
 -13173778.45747 -10247545.28945  22510146.1644                   22510146.7624
  -3479370.67246  -2669012.11343  24288882.1484                   24288883.3634
 -23278272.80147 -18091584.52046  22075886.6024                   22075886.2854
  -9872348.01647  -7671908.44144  23146689.1484                   23146690.4344
 -31965713.37948 -24892929.79747  20530941.4534                   20530940.0824
 -23166325.21548 -18029017.96146  21667924.3284                   21667926.1094
 -17588688.14847 -13691147.42646  21955147.8914                   21955147.1914
 11  9 22  0 20  0.0000000  0  9G02G15G30G10G12G26G05G25G29
 -11275818.18048  -8752367.18045  21843881.5864                   21843879.0084
  -2223216.43447  -1718001.27344  24058173.0944                   24058177.1644
 -13211069.28547 -10276603.02045  22503049.4384                   22503049.8244
  -3398832.35946  -2606254.99243  24304208.5634                   24304209.8204
 -23226624.18447 -18051338.88346  22085714.9844                   22085715.0164
  -9992914.23847  -7765855.96944  23123746.1564                   23123747.2274
 -31955114.66448 -24884671.03147  20532958.6564                   20532957.0984
 -23166249.34048 -18028958.84446  21667938.6334                   21667940.3874
 -17693700.29348 -13772974.98846  21935164.6254                   21935164.6334
 11  9 22  0 20 30.0000000  0  9G02G15G30G10G12G26G05G25G29
 -11260177.82848  -8740179.89545  21846858.3444                   21846855.6524
  -2348828.00846  -1815880.01244  24034268.9224                   24034273.5864
 -13247764.75447 -10305196.86345  22496066.6484                   22496066.9884
  -3318212.91046  -2543434.64843  24319549.8984                   24319551.5824
 -23174655.65247 -18010843.95346  22095604.0164                   22095603.8444
 -10113285.89847  -7859651.91444  23100840.3364                   23100840.6684
 -31944042.37148 -24876043.24247  20535065.4064                   20535064.3984
 -23165632.49248 -18028478.19946  21668056.1024                   21668057.7774
 -17798537.33248 -13854666.10946  21915214.8754                   21915214.6604
 11  9 22  0 21  0.0000000  0  9G02G15G30G10G12G26G05G25G29
 -11244427.87947  -8727907.20345  21849855.2274                   21849852.6884
  -2474468.43746  -1913781.20744  24010361.0554                   24010364.8524
 -13283863.53947 -10333325.73045  22489197.4454                   22489198.1374
  -3237513.24246  -2480551.77743  24334906.5944                   24334908.1644
 -23122368.80947 -17970101.00045  22105554.2814                   22105554.0594
 -10233457.71147  -7953292.10244  23077972.4694                   23077973.5234
 -31932496.49648 -24867046.44547  20537262.4614                   20537261.1804
 -23164474.65247 -18027576.00446  21668276.1094                   21668278.1914
 -17903195.14547 -13936217.57046  21895298.6484                   21895298.4884
 11  9 22  0 21 30.0000000  0  9G02G15G30G10G12G26G05G25G29
 -11228571.12148  -8715551.27745  21852872.9614                   21852869.4104
  -2600138.03547  -2011705.17244  23986446.2894                   23986449.6644
 -13319368.98847 -10360992.29345  22482441.0864                   22482441.7464
  -3156738.58246  -2417610.48443  24350277.5704                   24350279.1214
 -23069769.45347 -17929114.50045  22115562.9694                   22115563.4844
 -10353429.03147  -8046776.09444  23055141.8834                   23055143.4184
 -31920482.26648 -24857684.68047  20539548.6334                   20539547.2274
 -23162780.49248 -18026255.88346  21668598.4304                   21668600.1094
 -18007674.83248 -14017630.25446  21875417.3444                   21875416.1134
 11  9 22  0 22  0.0000000  0  9G02G15G30G10G12G26G05G25G29
 -11212608.39548  -8703112.78146  21855910.1644                   21855907.6484
  -2725834.21147  -2109649.85244  23962527.4844                   23962530.4344
 -13354282.12547 -10388197.28545  22475796.7114                   22475797.3874
  -3075892.27346  -2354613.32443  24365661.7424                   24365663.3164
 -23016861.49247 -17887887.54745  22125631.1644                   22125631.2074
 -10473196.69947  -8140101.36344  23032351.1804                   23032352.0204
 -31908002.02348 -24847959.78947  20541923.8134                   20541922.4264
 -23160552.21948 -18024519.59446  21669022.7194                   21669024.3094
 -18111974.81248 -14098902.90246  21855569.1174                   21855568.8834
 11  9 22  0 22 30.0000000  0  9G02G15G30G10G12G26G05G25G29
 -11196537.59048  -8690590.06245  21858968.2664                   21858965.7114
  -2851552.87546  -2207612.09444  23938603.0634                   23938607.2624
 -13388601.44547 -10414939.57045  22469266.1564                   22469266.1094
  -2994974.71546  -2291560.66843  24381059.9924                   24381061.4964
 -22963645.88347 -17846420.86346  22135758.2584                   22135758.2304
 -10592755.29747  -8233263.75444  23009599.5084                   23009600.4964
 -31895055.83648 -24837871.83247  20544387.1954                   20544385.8634
 -23157789.83248 -18022367.09846  21669548.3054                   21669550.4574
 -18216091.10548 -14180032.42246  21835756.7974                   21835756.0474
 11  9 22  0 23  0.0000000  0  9G02G15G30G10G12G26G05G25G29
 -11180357.67648  -8677982.30145  21862047.0944                   21862044.3204
  -2977289.44947  -2305588.30544  23914676.0394                   23914680.1764
 -13422326.02347 -10441218.43445  22462848.3674                   22462849.3874
  -2913987.10546  -2228453.44143  24396472.0634                   24396472.5474
 -22910123.71947 -17804715.29345  22145942.7424                   22145943.1644
 -10712099.83247  -8326259.30944  22986888.3524                   22986889.8054
 -31881644.92648 -24827421.76247  20546939.0554                   20546937.7344
 -23154493.60248 -18019798.60946  21670175.3984                   21670177.8284
 -18320019.81248 -14261015.75046  21815979.5394                   21815979.2424
 11  9 22  0 23 30.0000000  0  9G02G15G30G10G12G26G05G25G29
 -11164070.83647  -8665291.23045  21865146.3594                   21865144.1024
  -3103043.51647  -2403578.13744  23890746.1174                   23890748.5744
 -13455458.62147 -10467036.02045  22456543.3754                   22456543.9574
  -2832934.13746  -2165295.27043  24411895.4694                   24411897.7034
 -22856300.92247 -17762775.49645  22156184.6564                   22156184.8524
 -10831228.74246  -8419086.85544  22964219.2814                   22964220.6954
 -31867773.35547 -24816612.73047  20549578.7034                   20549577.5474
 -23150667.58648 -18016817.31646  21670903.6804                   21670906.0314
 -18423761.38348 -14341853.26646  21796238.3834                   21796237.4494
 11  9 22  0 24  0.0000000  0  9G02G15G30G10G12G26G05G25G29
 -11147674.44148  -8652514.78946  21868266.8054                   21868263.9384
  -3228809.57047  -2501577.32844  23866813.4614                   23866816.5634
 -13487997.32047 -10492390.85545  22450351.5784                   22450352.6334
  -2751815.76246  -2102086.11742  24427331.3444                   24427333.4144
 -22802177.91447 -17720601.75845  22166484.8134                   22166483.9184
 -10950136.09447  -8511741.75444  22941591.4924                   22941592.9454
 -31853441.01248 -24805444.64547  20552306.3364                   20552305.1884
 -23146311.13348 -18013422.68446  21671732.4224                   21671734.6054
 -18527311.05548 -14422541.24646  21776533.1334                   21776533.0664
 11  9 22  0 24 30.0000000  0  9G02G15G30G10G12G26G05G25G29
 -11131169.47748  -8639653.75445  21871407.8204                   21871404.8954
  -3354586.28146  -2599584.85944  23842877.8054                   23842881.5474
 -13519943.76647 -10517284.16845  22444272.9844                   22444272.8014
  -2670635.17646  -2038828.51642  24442779.2584                   24442781.5744
 -22747758.78948 -17678197.24245  22176840.0394                   22176839.1804
 -11068819.26647  -8604221.97744  22919006.5784                   22919007.3054
 -31838650.91848 -24793919.88347  20555120.5314                   20555118.8634
 -23141427.14548 -18009616.98846  21672661.9614                   21672664.2074
 -18630667.95348 -14503079.01646  21756864.9924                   21756864.9804
 11  9 22  0 25  0.0000000  0 10G02G15G30G10G12G26G05G25G29G21
 -11114556.68447  -8626708.69145  21874568.8444                   21874565.8164
  -3480371.46146  -2697598.94544  23818941.6414                   23818944.7194
 -13551299.13347 -10541716.90245  22438305.7274                   22438305.9304
  -2589395.55946  -1975524.92642  24458238.9774                   24458241.7624
 -22693047.07447 -17635564.77346  22187251.5084                   22187251.0274
 -11187275.46147  -8696525.32444  22896464.7974                   22896466.5234
 -31823405.87948 -24782040.61747  20558021.8524                   20558019.8364
 -23136018.18048 -18005402.22746  21673691.3364                   21673692.9534
 -18733830.43747 -14583465.28146  21737233.4534                   21737233.3554
   1446863.64556   1133109.99653  25098900.6954                   25098902.5704
 11  9 22  0 25 30.0000000  0 10G02G15G30G10G12G26G05G25G29G21
 -11097846.92647  -8613688.07846  21877748.2344                   21877746.2464
  -3606172.98046  -2795625.74644  23795001.8204                   23795005.2624
 -13582074.87147 -10565697.98045  22432449.5084                   22432449.9574
  -2508110.02346  -1912185.56242  24473707.1174                   24473709.3674
 -22638057.01247 -17592715.39545  22197715.3134                   22197715.8874
 -11305511.58647  -8788657.18744  22873965.3984                   22873966.5664
 -31807718.98047 -24769817.05147  20561006.8524                   20561005.1334
 -23130096.88748 -18000788.24246  21674818.1174                   21674820.1094
 -18836807.08247 -14663706.75046  21717638.0394                   21717637.4694
   1359620.16846   1065128.19943  25082299.1954                   25082300.3054
 11  9 22  0 26  0.0000000  0 10G02G15G30G10G12G26G05G25G29G21
 -11081040.26247  -8600591.95745  21880946.7504                   21880944.1644
  -3731988.02747  -2893663.12144  23771060.2114                   23771062.8054
 -13612271.64547 -10589227.92645  22426702.8914                   22426704.0124
  -2426780.64846  -1848812.06242  24489183.5784                   24489186.0274
 -22582791.17647 -17549651.12545  22208231.6884                   22208232.3594
 -11423523.94147  -8880614.69144  22851509.1094                   22851509.4184
 -31791592.32848 -24757250.82047  20564075.4224                   20564074.0944
 -23123665.14148 -17995776.49646  21676042.4064                   21676043.9844
 -18939595.95347 -14743801.92246  21698078.1094                   21698077.8014
   1272381.55546    997150.16843  25065698.1174                   25065699.0004
 11  9 22  0 26 30.0000000  0 10G02G15G30G10G12G26G05G25G29G21
 -11064135.06648  -8587419.06246  21884163.9144                   21884161.6564
  -3857812.38346  -2991707.72743  23747115.7734                   23747119.1644
 -13641888.59847 -10612306.05145  22421067.0234                   22421067.5234
  -2345408.78945  -1785405.44143  24504668.4454                   24504670.6294
 -22527251.57047 -17506373.55545  22218801.4064                   22218801.1644
 -11541307.74647  -8972394.11744  22829094.7814                   22829095.3914
 -31775026.34848 -24744342.25447  20567228.2974                   20567226.5044
 -23116723.44148 -17990367.39846  21677362.8914                   21677365.3094
 -19042193.43048 -14823747.91446  21678554.3524                   21678554.1564
   1185149.18055    929177.03952  25049096.0164                   25049099.3634
 11  9 22  0 27  0.0000000  0  9G02G15G30G12G26G05G25G29G21
 -11047129.34847  -8574167.82845  21887399.4454                   21887397.2704
  -3983641.38746  -3089755.99243  23723171.3524                   23723173.4884
 -13670924.60247 -10634931.48845  22415542.1024                   22415542.7114
 -22471439.11348 -17462883.36345  22229422.3594                   22229421.2814
 -11658857.55947  -9063991.19144  22806725.7974                   22806726.5004
 -31758021.97348 -24731092.07847  20570463.5704                   20570461.7304
 -23109271.86748 -17984560.97746  21678780.8054                   21678782.9964
 -19144595.40247 -14903541.58646  21659067.3984                   21659067.4924
   1097924.57845    861209.93843  25032499.8284                   25032500.6214
 11  9 22  0 27 30.0000000  0  9G02G15G30G12G26G05G25G29G21
 -11030014.33247  -8560831.43745  21890656.5474                   21890654.0784
  -4109463.81247  -3187799.09443  23699228.4694                   23699229.6644
 -13699371.71547 -10657098.07045  22410128.8204                   22410128.6454
 -22415348.46947 -17419176.39545  22240096.1644                   22240095.8164
 -11776160.82847  -9155396.16844  22784403.3984                   22784404.3524
 -31740572.08248 -24717494.75047  20573784.5704                   20573782.9964
 -23101303.76248 -17978352.09046  21680297.2274                   21680299.7734
 -19246790.89147 -14983174.36346  21639620.4064                   21639620.2734
   1010715.53545    793255.09042  25015903.3054                   25015904.7384
 11  9 22  0 28  0.0000000  0  9G02G15G30G12G26G05G25G29G21
 -11012783.27047  -8547404.62945  21893935.4614                   21893933.3444
  -4235269.66046  -3285829.28943  23675287.7894                   23675289.6334
 -13727223.91447 -10678801.04745  22404827.9924                   22404828.8794
 -22358975.66447 -17375249.53945  22250823.0704                   22250822.8484
 -11893207.14847  -9246600.93745  22762130.3204                   22762130.9384
 -31722672.49248 -24703547.02047  20577190.7664                   20577189.3914
 -23092814.29348 -17971736.91446  21681912.6254                   21681915.0084
 -19348771.10947 -15062639.39846  21620214.2974                   21620214.9104
    923528.63745    725317.34043  24999312.0164                   24999314.4414
 11  9 22  0 28 30.0000000  0  9G02G15G30G12G26G05G25G29G21
 -10995432.89847  -8533884.85545  21897237.4454                   21897234.6174
  -4361052.62547  -3383841.68443  23651351.3674                   23651353.3714
 -13754478.54747 -10700038.42645  22399642.2734                   22399642.9024
 -22302320.64147 -17331102.79345  22261603.5784                   22261604.4414
 -12009989.48847  -9337600.00045  22739907.3204                   22739908.0164
 -31704322.24248 -24689248.12147  20580682.6884                   20580680.8914
 -23083801.98448 -17964714.35546  21683627.8364                   21683629.5904
 -19450530.25047 -15141932.15246  21600849.6804                   21600849.6804
    836366.55546    657398.96143  24982726.8754                   24982727.6564
 11  9 22  0 29  0.0000000  0  9G02G15G30G12G26G05G25G29G21
 -10977964.62547  -8520273.21545  21900561.3984                   21900558.2974
  -4486811.67247  -3481835.42244  23627420.5554                   23627423.5274
 -13781138.01647 -10720812.00445  22394568.7274                   22394568.8834
 -22245387.71548 -17286739.53545  22272438.6414                   22272437.6524
 -12126505.79747  -9428391.77745  22717735.0704                   22717735.6414
 -31685524.91848 -24674600.84447  20584259.4144                   20584257.9964
 -23074270.57848 -17957287.30146  21685441.3914                   21685442.9144
 -19552068.01647 -15221052.42646  21581527.6094                   21581527.9964
    749226.80546    589498.00443  24966143.8524                   24966145.9144
 11  9 22  0 29 30.0000000  0  9G02G15G30G12G26G05G25G29G21
 -10960382.63747  -8506572.96146  21903907.0084                   21903904.6914
  -4612548.35946  -3579811.70744  23603493.2584                   23603496.0394
 -13807207.50047 -10741125.87545  22389608.0634                   22389608.3484
 -22188184.97747 -17242166.00045  22283323.7424                   22283323.8444
 -12242756.78947  -9518976.81645  22695612.8674                   22695613.2034
 -31666287.07448 -24659610.31646  20587920.2894                   20587918.8404
 -23064226.45347 -17949460.70746  21687352.8364                   21687354.6174
 -19653386.41047 -15300001.77346  21562248.0704                   21562247.3554
    662104.99246    521610.98843  24949565.8524                   24949567.0274
 11  9 22  0 30  0.0000000  0  9G02G15G30G12G26G05G25G29G21
 -10942687.82847  -8492784.80945  21907274.1564                   21907271.5234
  -4738260.55546  -3677768.87944  23579570.1254                   23579573.8554
 -13832688.57847 -10760981.23045  22384758.8284                   22384759.3164
 -22130715.87947 -17197384.91845  22294259.8364                   22294259.3674
 -12358739.56247  -9609352.87145  22673542.0314                   22673542.5124
 -31646611.75848 -24644278.91046  20591664.4454                   20591663.3244
 -23053672.33248 -17941236.73846  21689361.5944                   21689363.9224
 -19754484.01247 -15378779.06646  21543009.4924                   21543009.5594
    574999.69546    453736.85943  24932989.8834                   24932989.9024
 11  9 22  0 30 30.0000000  0  9G02G15G30G12G26G05G25G29G21
 -10924882.87147  -8478910.82445  21910662.2974                   21910659.9774
  -4863948.28147  -3775707.00444  23555652.7974                   23555654.5784
 -13857585.02747 -10780381.06245  22380021.6094                   22380021.1024
 -22072986.11747 -17152400.72745  22305245.1484                   22305245.3714
 -12474453.41847  -9699519.35545  22651521.7664                   22651522.9654
 -31626504.17248 -24628610.64847  20595490.6414                   20595488.9614
 -23042613.30548 -17932619.33246  21691465.9144                   21691468.1294
 -19855361.56247 -15457384.91446  21523813.2664                   21523813.2734
    487907.22746    385872.74243  24916415.7734                   24916416.9534
 11  9 22  0 31  0.0000000  0  9G02G15G30G12G26G05G25G29G21
 -10906969.03947  -8464952.00445  21914071.2974                   21914068.1024
  -4989609.69947  -3873624.68444  23531739.5944                   23531742.4534
 -13881898.98847 -10799326.98845  22375394.4304                   22375395.7114
 -22015000.32447 -17107217.02345  22316279.6174                   22316278.9694
 -12589895.96147  -9789474.46545  22629553.6954                   22629555.7974
 -31605967.71548 -24612608.21146  20599398.5784                   20599397.4494
 -23031052.62548 -17923611.03946  21693665.6334                   21693668.1134
 -19956018.02747 -15535818.47346  21504658.7664                   21504658.1454
    400826.10546    318017.49243  24899844.5474                   24899846.0234
 11  9 22  0 31 30.0000000  0  9G02G15G30G12G26G05G25G29G21
 -10888945.22348  -8450907.48445  21917501.5704                   21917498.7274
  -5115241.21947  -3971519.08244  23507833.1804                   23507835.0704
 -13905630.43047 -10817819.00845  22370879.0474                   22370878.5744
 -21956760.85947 -17061835.65245  22327362.1174                   22327362.0634
 -12705062.57447  -9879214.57845  22607639.0004                   22607639.2074
 -31585003.88748 -24596272.77347  20603388.2274                   20603386.3594
 -23018991.54748 -17914212.81246  21695960.6484                   21695963.0234
 -20056450.34047 -15614077.37546  21485546.6954                   21485546.3014
    313756.67646    250171.34042  24883275.7114                   24883277.2304
 11  9 22  0 32  0.0000000  0  9G02G15G30G12G26G05G25G29G21
 -10870811.71147  -8436777.49245  21920951.3594                   21920949.2814
  -5240840.05947  -4069387.99244  23483932.0864                   23483933.8754
 -13928780.73847 -10835858.19145  22366473.3674                   22366473.9414
 -21898270.76247 -17016259.02045  22338492.8674                   22338492.5434
 -12819950.10947  -9968737.19944  22585775.9384                   22585776.9964
 -31563614.76648 -24579605.91046  20607457.9534                   20607456.6724
 -23006432.48848 -17904426.55546  21698351.0234                   21698352.6254
 -20156656.36347 -15692159.95346  21466478.4924                   21466477.8244
    226697.71546    182333.35942  24866708.7974                   24866710.2074
 11  9 22  0 32 30.0000000  0  9G02G15G30G12G26G05G25G29G21
  -9277149.98847  -7194963.14545  22224215.6414                   22224213.1214
  -3790980.70347  -2939627.15644  23759830.4224                   23759832.6414
 -12375931.37147  -9625845.68745  22661970.8134                   22661970.7894
 -20264116.29747 -15742891.94145  22649462.0784                   22649461.8164
 -11359132.12947  -8830437.36344  22863760.7504                   22863760.2304
 -29966385.30148 -23335011.52047  20911400.7114                   20911399.5634
 -21417959.39548 -16666655.34446  22000627.3674                   22000628.8984
 -18681212.18748 -14542463.14146  21747245.9614                   21747246.0044
   1715070.60246   1342104.55543  25149937.4534                   25149937.8244
 11  9 22  0 33  0.0000000  0  9G02G15G30G12G26G05G25G29G21
  -9258796.88747  -7180662.02045  22227707.8054                   22227704.4964
  -3916506.45746  -3037439.11744  23735943.8204                   23735945.4884
 -12397922.63347  -9642981.72345  22657786.0164                   22657785.7504
 -20205134.89547 -15696932.44545  22660685.4384                   22660685.4304
 -11473450.60547  -8919516.57445  22842006.2504                   22842006.9264
 -29944154.07048 -23317688.47346  20915631.2664                   20915630.1024
 -21404411.31648 -16656098.41046  22003205.5234                   22003207.5554
 -18780959.89147 -14620188.56646  21728264.4694                   21728264.4574
   1628031.32846   1274281.86343  25133373.8914                   25133374.5044
 11  9 22  0 33 30.0000000  0  9G02G15G30G12G26G05G25G29G21
  -9240331.60547  -7166273.47345  22231221.4144                   22231219.4884
  -4041989.03547  -3135217.45744  23712064.7814                   23712066.7624
 -12419333.89847  -9659665.82045  22653711.3984                   22653712.4534
 -20145910.47347 -15650783.58245  22671955.9064                   22671955.3984
 -11587477.15247  -9008368.32845  22820307.1644                   22820308.0164
 -29921503.03548 -23300038.33247  20919941.6804                   20919940.1334
 -21390369.99648 -16645157.14846  22005877.0554                   22005879.3134
 -18880472.71948 -14697730.98046  21709328.1094                   21709327.8714
   1541002.78946   1206467.51643  25116813.1724                   25116813.3914
 11  9 22  0 34  0.0000000  0  9G02G15G30G12G26G05G25G29G21
  -9221758.59448  -7151801.01645  22234756.2034                   22234753.4804
  -4167429.51646  -3232962.99244  23688194.0944                   23688196.1094
 -12440170.23447  -9675901.89845  22649746.7814                   22649746.7854
 -20086450.25847 -15604450.99645  22683270.7584                   22683270.2504
 -11701212.01647  -9096992.77345  22798664.8754                   22798665.7464
 -29898438.48048 -23282065.92646  20924330.8594                   20924329.5664
 -21375841.60948 -16633836.35246  22008642.2504                   22008643.8094
 -18979752.87148 -14775092.08646  21690435.6174                   21690434.8594
   1453980.84446   1138658.29343  25100253.7894                   25100254.0004
 11  9 22  0 34 30.0000000  0  9G02G15G30G12G26G05G25G29G21
  -9203072.70747  -7137240.58245  22238312.3134                   22238309.1254
  -4292820.27047  -3330669.80944  23664333.1024                   23664334.9024
 -12460427.66047  -9691686.90645  22645891.7034                   22645891.9884
 -20026752.00047 -15557932.91045  22694631.0944                   22694630.8754
 -11814646.45347  -9185383.10244  22777078.2734                   22777079.1524
 -29874957.75848 -23263769.25846  20928799.0474                   20928797.7114
 -21360823.46548 -16622133.92646  22011500.1644                   22011501.7304
 -19078792.91048 -14852266.07846  21671589.0084                   21671588.1914
   1366969.80946   1070857.59043  25083696.0864                   25083696.5744
 11  9 22  0 35  0.0000000  0  9G02G15G30G12G26G05G25G29G21
  -9184275.67648  -7122593.53545  22241888.5554                   22241885.6454
  -4418160.18746  -3428337.03144  23640481.4774                   23640483.0664
 -12480109.61747  -9707023.48045  22642146.4144                   22642146.4454
 -19966821.51247 -15511233.88345  22706035.5004                   22706036.1294
 -11927779.12547  -9273538.34045  22755550.2664                   22755550.8594
 -29851065.36748 -23245151.80946  20933345.6484                   20933343.9654
 -21345319.96548 -16610053.30146  22014450.4534                   22014451.9734
 -19177592.66048 -14929252.82846  21652788.1954                   21652787.1564
   1279966.77346   1003063.09843  25067139.5474                   25067140.9494
 11  9 22  0 35 30.0000000  0  9G02G15G30G12G26G05G25G29G21
  -9165370.30548  -7107862.07045  22245486.4534                   22245484.4454
  -4543449.64547  -3525964.93044  23616639.0944                   23616641.1684
 -12499220.00847  -9721914.69545  22638510.3834                   22638510.0784
 -19906664.53947 -15464358.37145  22717482.5474                   22717483.4804
 -12040609.47747  -9361457.98845  22734078.7424                   22734080.3134
 -29826766.64548 -23226217.73046  20937969.4774                   20937968.1094
 -21329336.23848 -16597598.48046  22017491.6024                   22017493.5704
 -19276152.93048 -15006052.96946  21634032.2034                   21634032.1644
   1192968.34046    935272.18843  25050583.6484                   25050585.5514
 11  9 22  0 36  0.0000000  0  9G02G15G30G12G26G05G25G29G21
  -9146353.63347  -7093043.88745  22249105.3834                   22249102.2854
  -4668682.64546  -3623548.84444  23592808.1024                   23592809.7894
 -12517757.21947  -9736359.26245  22634982.2114                   22634981.7304
 -19846281.32447 -15417306.57045  22728973.3444                   22728973.3874
 -12153130.73447  -9449136.79745  22712667.2664                   22712667.4964
 -29802060.98847 -23206966.55946  20942670.8984                   20942669.4454
 -21312871.82048 -16584769.07846  22020625.2344                   22020627.0434
 -19374468.68048 -15082662.55946  21615323.7194                   21615322.9804
   1105976.89146    867486.68843  25034030.7424                   25034030.9494
 11  9 22  0 36 30.0000000  0  9G02G15G30G12G26G05G25G29G21
  -9127225.44948  -7078138.78545  22252745.3364                   22252742.4654
  -4793856.19947  -3721086.44145  23568988.4924                   23568990.0664
 -12535722.21547  -9750357.96545  22631563.5234                   22631563.2274
 -19785675.08247 -15370080.97745  22740506.9304                   22740506.5984
 -12265339.41847  -9536572.02045  22691314.3834                   22691314.5594
 -29776950.57048 -23187399.98846  20947449.2034                   20947447.9264
 -21295928.78148 -16571566.73846  22023849.0784                   22023851.0704
 -19472537.45348 -15159079.69546  21596661.7734                   21596660.6054
   1018992.12546    799706.43843  25017477.4534                   25017478.4534
 11  9 22  0 37  0.0000000  0  9G02G15G30G12G26G05G25G29G21
  -9107986.07448  -7063147.05545  22256406.5944                   22256403.9804
  -4918967.77347  -3818575.71544  23545180.1564                   23545181.2624
 -12553116.76247  -9763912.15645  22628253.4384                   22628253.9064
 -19724849.28147 -15322684.27745  22752081.3914                   22752081.3954
 -12377232.17647  -9623761.08645  22670022.0704                   22670022.0124
 -29751438.38748 -23167520.35546  20952303.8914                   20952301.8204
 -21278509.94548 -16557993.66446  22027163.7114                   22027165.7974
 -19570357.41848 -15235302.95346  21578047.1094                   21578046.5204
    932013.34046    731930.84443  25000925.1884                   25000926.2974
 11  9 22  0 37 30.0000000  0  9G02G15G30G12G26G05G25G29G21
  -9088636.13748  -7048069.16045  22260088.4614                   22260085.7194
  -5044015.23847  -3916015.05544  23521384.1094                   23521385.4304
 -12569942.88347  -9777023.41845  22625051.4454                   22625051.7664
 -19663807.72347 -15275119.46545  22763697.4774                   22763697.5274
 -12488806.18747  -9710701.77345  22648790.0394                   22648789.8554
 -29725527.27048 -23147329.87546  20957234.6644                   20957233.1994
 -21260618.51648 -16544052.29746  22030568.1334                   22030570.2664
 -19667926.89548 -15311331.01646  21559480.1564                   21559479.0044
    845038.68846    664158.43443  24984375.5084                   24984376.0664
 11  9 22  0 38  0.0000000  0  9G02G15G30G12G26G05G25G29G21
  -9069175.89147  -7032905.34045  22263791.7424                   22263788.6684
  -5168995.93747  -4013402.37944  23497601.3204                   23497601.4494
 -12586202.06647  -9789692.92245  22621958.1024                   22621957.5664
 -19602553.71147 -15227389.10245  22775353.7734                   22775353.7894
 -12600058.28147  -9797391.61345  22627619.2814                   22627618.6414
 -29699220.14148 -23126830.79746  20962240.5004                   20962238.9734
 -21242257.01248 -16529744.65646  22034062.6644                   22034064.6604
 -19765244.12548 -15387162.53146  21540960.8364                   21540959.8164
    758067.51646    596388.71943  24967825.1254                   24967826.0784
 11  9 22  0 38 30.0000000  0  9G02G15G30G12G26G05G25G29G21
  -9049604.35548  -7017654.77045  22267516.2584                   22267513.3834
  -5293906.24246  -4110734.84044  23473830.8204                   23473831.6954
 -12601895.12147  -9801921.27745  22618971.3524                   22618971.4414
 -19541089.61747 -15179495.05545  22787049.3054                   22787050.7424
 -12710984.07047  -9883827.19545  22606510.6484                   22606510.9804
 -29672518.81648 -23106024.55146  20967321.6414                   20967320.4024
 -21223427.35548 -16515072.20346  22037645.6804                   22037647.4184
 -19862306.32848 -15462795.31246  21522490.3754                   21522489.6094
    671099.85246    528621.70343  24951275.8284                   24951275.8634
 11  9 22  0 39  0.0000000  0  9G02G15G30G12G26G05G25G29G21
  -9029920.43448  -7002316.64145  22271261.8054                   22271259.6054
  -5418742.00847  -4208009.24644  23450075.1954                   23450076.1024
 -12617022.19147  -9813708.60945  22616092.9924                   22616093.2704
 -19479418.25447 -15131439.52745  22798785.5314                   22798786.1024
 -12821579.04747  -9970005.00845  22585465.1414                   22585465.8444
 -29645424.59848 -23084912.17246  20972478.0394                   20972476.1094
 -21204130.82048 -16500035.94946  22041317.5784                   22041320.3054
 -19959110.12948 -15538226.75446  21504069.1484                   21504068.4024
    584136.45746    460858.04343  24934727.4774                   24934727.7544
 11  9 22  0 39 30.0000000  0  9G02G15G30G12G26G05G25G29G21
  -9010125.53547  -6986892.03145  22275028.3444                   22275025.5634
  -5543502.38346  -4305224.88744  23426334.0634                   23426334.9964
 -12631586.24647  -9825057.20745  22613320.8134                   22613321.8794
 -19417543.89547 -15083225.78945  22810559.6954                   22810559.2194
 -12931841.00047 -10055923.31645  22564482.9454                   22564482.9734
 -29617941.42648 -23063496.71146  20977707.5164                   20977705.9534
 -21184371.34848 -16484638.97746  22045077.8754                   22045079.5784
 -20055654.68048 -15613456.16446  21485697.5234                   21485696.6024
    497175.13746    393095.96943  24918179.1724                   24918178.5594
 11  9 22  0 40  0.0000000  0  9G02G15G30G12G26G05G25G29G21
  -8990217.70348  -6971379.42645  22278816.8674                   22278814.7274
  -5668182.16847  -4402377.74644  23402608.9384                   23402609.6414
 -12645586.94147  -9835966.84445  22610656.8204                   22610657.3634
 -19355468.05147 -15034855.03145  22822372.3524                   22822372.5234
 -13041764.51647 -10141577.90645  22543565.0394                   22543565.3634
 -29590069.93448 -23041778.64146  20983011.0634                   20983009.6604
 -21164149.71548 -16468881.88346  22048925.6174                   22048927.6454
 -20151936.14548 -15688480.58646  21467375.6174                   21467374.6334
    410217.11746    325336.44543  24901631.7194                   24901630.9924
 11  9 22  0 40 30.0000000  0  9G02G15G30G12G26G05G25G29G21
  -8970197.98448  -6955779.62145  22282626.8834                   22282624.0744
  -5792779.26247  -4499466.14144  23378898.2974                   23378899.3594
 -12659026.61347  -9846439.32845  22608099.3674                   22608100.1254
 -19293194.75847 -14986330.44545  22834222.4534                   22834222.5704
 -13151347.19947 -10226966.89845  22522711.8674                   22522712.3554
 -29561813.20748 -23019760.39146  20988388.6484                   20988386.9494
 -21143469.32048 -16452767.29746  22052861.1414                   22052863.1174
 -20247953.32848 -15763299.07446  21449104.3444                   21449102.7774
    323261.05946    257578.57043  24885083.1644                   24885085.0864
 11  9 22  0 41  0.0000000  0  9G02G15G30G12G26G05G25G29G21
  -8950067.08248  -6940093.18745  22286457.3834                   22286455.1054
  -5917291.91047  -4596488.76644  23355203.8284                   23355205.0204
 -12671907.74647  -9856476.56245  22605648.0944                   22605648.7504
 -19230728.19947 -14937655.25045  22846109.6644                   22846109.8714
 -13260586.34047 -10312088.22745  22501924.5234                   22501924.6994
 -29533175.20748 -22997445.06246  20993837.9534                   20993835.9414
 -21122333.64548 -16436297.94146  22056883.7424                   22056885.4774
 -20343704.80948 -15837910.53946  21430883.2504                   21430882.0664
    236305.29746    189820.88743  24868536.8364                   24868538.0474
 11  9 22  0 41 30.0000000  0  9G02G15G30G12G26G05G25G29G21
  -8929823.62948  -6924319.04745  22290309.5474                   22290307.3634
  -6041716.00847  -4693442.43044  23331527.0004                   23331527.8444
 -12684230.53147  -9866078.74245  22603303.6024                   22603303.6524
 -19168070.10947 -14888830.85945  22858033.6174                   22858033.2934
 -13369477.27047 -10396938.21145  22481203.3834                   22481202.9654
 -29504156.88748 -22974833.37146  20999359.5784                   20999357.9964
 -21100744.00048 -16419474.84846  22060991.4384                   22060993.8524
 -20439187.15248 -15912312.26246  21412713.3204                   21412712.6334
    149350.26246    122063.80543  24851989.6334                   24851990.3554
 11  9 22  0 42  0.0000000  0  9G02G15G30G12G26G05G25G29G21
  -8909466.75848  -6908456.55145  22294183.7114                   22294180.8554
  -6166048.12147  -4790324.39144  23307867.3054                   23307868.3364
 -12695995.84847  -9875246.52745  22601065.4304                   22601065.2344
 -19105223.00047 -14839859.11345  22869992.4614                   22869992.9614
 -13478015.75847 -10481513.55545  22460548.8134                   22460549.2624
 -29474759.96548 -22951926.64846  21004953.7894                   21004952.2734
 -21078702.24648 -16402299.46946  22065186.1174                   22065188.0044
 -20534397.48848 -15986502.03946  21394595.4774                   21394594.1954
     62396.32446     54307.54743  24835443.0004                   24835443.9574
 11  9 22  0 42 30.0000000  0  9G02G15G30G12G26G05G25G29G21
  -8888998.05147  -6892506.86345  22298078.2114                   22298075.4844
  -6290286.38347  -4887133.24244  23284224.9384                   23284225.8984
 -12707206.69947  -9883982.25845  22598931.0554                   22598930.8754
 -19042191.81647 -14790743.95345  22881986.6804                   22881987.6844
 -13586199.63747 -10565812.59445  22439961.8364                   22439962.4024
 -29444988.40648 -22928728.00846  21010619.3054                   21010618.0274
 -21056212.45748 -16384774.97346  22069465.6024                   22069467.5904
 -20629335.00048 -16060479.23446  21376529.4304                   21376528.2344
    -24558.46546    -13449.30543  24818895.9694                   24818896.8594
 11  9 22  0 43  0.0000000  0  9G02G15G30G12G26G05G25G29G21
  -8868417.46947  -6876470.02745  22301994.2734                   22301992.0864
  -6414428.39847  -4983867.05545  23260601.2974                   23260602.3404
 -12717865.11747  -9892287.52045  22596902.8204                   22596903.2114
 -18978979.77047 -14741487.87545  22894015.7114                   22894016.0124
 -13694025.78547 -10649832.89845  22419443.5864                   22419443.0944
 -29414845.18448 -22905239.75846  21016355.0634                   21016354.0594
 -21033277.53948 -16366903.62546  22073830.0084                   22073831.7664
 -20723997.96548 -16134242.50446  21358515.7734                   21358514.3134
   -111515.09446    -81207.60943  24802348.5634                   24802349.5274
 11  9 22  0 43 30.0000000  0  9G02G15G30G12G26G05G25G29G21
  -8847725.53147  -6860346.40645  22305932.3204                   22305928.7074
  -6538471.85247  -5080524.08645  23236997.1644                   23236996.9064
 -12727973.11747  -9900163.91045  22594979.1644                   22594979.5434
 -18915591.25847 -14692094.29345  22906078.6024                   22906078.7584
 -13801491.30947 -10733572.18045  22398993.0314                   22398993.5084
 -29384333.33648 -22881464.26646  21022161.3594                   21022159.8794
 -21009900.68048 -16348687.88746  22078278.5784                   22078280.6454
 -20818384.65648 -16207790.48446  21340554.0704                   21340552.9384
   -198474.78546   -148968.29743  24785800.5394                   24785801.7234
 11  9 22  0 44  0.0000000  0  9G02G15G30G12G26G05G25G29G21
  -8826921.39147  -6844135.37945  22309891.1334                   22309887.7114
  -6662412.94947  -5177101.42245  23213411.8984                   23213412.5084
 -12737531.61747  -9907612.08245  22593160.5314                   22593160.3954
 -18852028.16047 -14642564.67645  22918174.4224                   22918174.8164
 -13908591.90247 -10817027.10245  22378612.4694                   22378612.7384
 -29353454.70748 -22857402.96946  21028037.7424                   21028035.7814
 -20986083.68048 -16330129.20746  22082810.6564                   22082812.5434
 -20912491.88748 -16281120.72346  21322646.2274                   21322645.0314
   -285437.32446   -216731.21143  24769251.3914                   24769252.2894
 11  9 22  0 44 30.0000000  0  9G02G15G30G12G26G05G25G29G21
  -8806002.71947  -6827835.07845  22313871.4384                   22313868.8324
  -6786246.36747  -5273594.83645  23189846.1414                   23189847.2074
 -12746540.06647  -9914631.64545  22591446.4224                   22591446.2384
 -18788291.19947 -14592899.55145  22930303.3054                   22930302.8014
 -14015321.99647 -10900193.34045  22358302.6564                   22358302.3714
 -29322209.34448 -22833055.90646  21033983.3444                   21033981.4104
 -20961826.96147 -16311227.87546  22087426.5084                   22087427.9924
 -21006315.49647 -16354229.94946  21304792.4224                   21304790.4964
   -372400.91046   -284494.98843  24752703.3984                   24752704.1724
 11  9 22  0 45  0.0000000  0  9G02G15G30G12G26G05G25G29G21
  -8784973.10947  -6811448.36345  22317873.7194                   22317870.9734
  -6909973.23046  -5370005.21144  23166302.3754                   23166302.4064
 -12755003.93447  -9921226.87945  22589836.0944                   22589836.5554
 -18724387.80147 -14543104.77345  22942463.6804                   22942463.8984
 -14121681.63747 -10983070.90245  22338062.6484                   22338062.5234
 -29290603.56247 -22808428.00046  21039997.5634                   21039996.0744
 -20937137.06647 -16291989.00846  22092124.9534                   22092127.1254
 -21099856.93747 -16427119.31646  21286991.9144                   21286990.6374
   -459369.91446   -352262.94543  24736153.8524                   24736153.7464
 11  9 22  0 45 30.0000000  0  9G02G15G30G12G26G05G25G29G21
  -8763830.47347  -6794973.54345  22321896.6954                   22321893.8524
  -7033588.46547  -5466328.58645  23142779.0634                   23142778.7384
 -12762922.89847  -9927397.51645  22588328.9384                   22588328.6174
 -18660319.12147 -14493181.19145  22954655.9924                   22954655.9024
 -14227665.52347 -11065655.68045  22317895.2344                   22317894.8954
 -29258637.70748 -22783519.51246  21046080.6644                   21046079.0704
 -20912014.58247 -16272413.07046  22096905.7664                   22096907.9344
 -21193111.76648 -16499785.34846  21269245.9454                   21269245.0744
   -546342.96146   -420034.01243  24719602.6414                   24719603.6094
 11  9 22  0 46  0.0000000  0  9G02G15G30G12G26G05G25G29G21
  -8742575.46947  -6778411.20745  22325941.8984                   22325939.0824
  -7157089.91847  -5562563.31245  23119277.1884                   23119277.5904
 -12770299.57447  -9933145.55545  22586924.9844                   22586925.3554
 -18596089.26247 -14443132.04745  22966877.8984                   22966878.5784
 -14333271.10247 -11147945.66845  22297798.8914                   22297799.3244
 -29226315.65648 -22758333.47746  21052231.1724                   21052229.5944
 -20886463.19947 -16252502.92246  22101767.9144                   22101770.0664
 -21286078.95348 -16572227.24646  21251554.8054                   21251553.6644
   -633321.73445   -487809.53543  24703049.9144                   24703053.0744
 11  9 22  0 46 30.0000000  0  9G02G15G30G12G26G05G25G29G21
  -8721206.12147  -6761759.77045  22330008.1644                   22330004.6644
  -7280473.18447  -5658705.98045  23095798.2584                   23095797.4964
 -12777133.90647  -9938471.02045  22585624.2974                   22585624.3834
 -18531699.55547 -14392958.30545  22979131.0004                   22979130.5744
 -14438492.99647 -11229936.67245  22277775.6094                   22277775.0394
 -29193637.85248 -22732870.22746  21058449.5634                   21058447.6454
 -20860483.60547 -16232259.12146  22106712.2274                   22106713.4384
 -21378754.38748 -16644441.80546  21233919.4454                   21233918.2424
   -720304.85246   -555588.43743  24686499.5314                   24686500.4024
 11  9 22  0 47  0.0000000  0  9G02G15G30G12G26G05G25G29G21
  -8699722.30947  -6745019.12145  22334096.1564                   22334093.4614
  -7403735.35947  -5754754.28944  23072341.3674                   23072342.1954
 -12783427.80947  -9943375.34445  22584426.5704                   22584426.5744
 -18467153.38747 -14342662.65245  22991414.2584                   22991414.1604
 -14543327.64147 -11311625.92645  22257826.3364                   22257825.5474
 -29160606.97748 -22707131.85946  21064734.8524                   21064733.2624
 -20834078.76647 -16211683.94946  22111736.5474                   22111738.8054
 -21471135.84047 -16716427.28546  21216339.7894                   21216338.1684
   -807292.87146   -623371.19144  24669945.6484                   24669947.2114
 11  9 22  0 47 30.0000000  0 10G02G15G30G18G12G26G05G25G29G21
  -8678121.67647  -6728187.44945  22338206.5864                   22338203.9304
  -7526870.66847  -5850703.72745  23048909.5234                   23048909.9304
 -12789180.48047  -9947857.95745  22583331.8674                   22583332.6484
   2977893.68855   2331319.37952  24660198.5314                   24660203.5084
 -18402451.02347 -14292245.31245  23003725.8204                   23003727.2274
 -14647769.18448 -11393008.86345  22237951.4924                   22237951.1604
 -29127222.70748 -22681118.12546  21071088.1804                   21071086.7854
 -20807248.77048 -16190777.48446  22116841.7584                   22116843.9344
 -21563218.71148 -16788180.10246  21198816.7664                   21198815.7304
   -894283.50447   -691156.03144  24653392.7584                   24653392.8484
 11  9 22  0 48  0.0000000  0 10G02G15G30G18G12G26G05G25G29G21
  -8656415.93447  -6711273.87945  22342336.4534                   22342334.4184
  -7649888.20347  -5946561.41445  23025500.2974                   23025500.2384
 -12794405.92647  -9951929.74245  22582337.7504                   22582337.8834
   2859797.91845   2239297.21943  24637725.1484                   24637728.9064
 -18337608.08247 -14241718.43445  23016065.4534                   23016065.9884
 -14751826.62547 -11474092.51245  22218149.8754                   22218149.9844
 -29093500.10248 -22654840.73446  21077505.0554                   21077503.2854
 -20780008.59847 -16169551.41846  22122025.7114                   22122027.6764
 -21655012.74248 -16859707.85546  21181349.0164                   21181348.0354
   -981289.90646   -758953.14543  24636835.6884                   24636835.4494
 11  9 22  0 48 30.0000000  0 10G02G15G30G18G12G26G05G25G29G21
  -8634605.71947  -6694278.90245  22346487.4534                   22346485.1294
  -7772785.47347  -6042325.39145  23002113.1094                   23002113.6914
 -12799106.37147  -9955592.41845  22581443.3364                   22581443.0354
   2741856.03546   2147394.96943  24615280.9144                   24615285.5234
 -18272628.00447 -14191084.69945  23028430.6484                   23028431.4454
 -14855496.51247 -11554874.17245  22198421.9614                   22198422.0164
 -29059441.89548 -22628301.83646  21083985.9384                   21083983.8444
 -20752361.39547 -16148008.16846  22127286.8914                   22127288.4104
 -21746516.30548 -16931009.27046  21163936.2894                   21163935.5474
  -1068312.68046   -826763.01643  24620274.1334                   24620274.9384
 11  9 22  0 49  0.0000000  0 10G02G15G30G18G12G26G05G25G29G21
  -8612687.84047  -6677200.02345  22350658.3914                   22350656.1954
  -7895556.82846  -6137991.24645  22978750.4534                   22978750.7704
 -12803281.07047  -9958845.44145  22580648.8834                   22580649.1914
   2624071.81346   2055615.53143  24592868.2584                   24592870.6054
 -18207511.85947 -14140344.95745  23040822.4384                   23040823.1374
 -14958773.00447 -11635349.27345  22178769.4064                   22178768.9344
 -29025048.28148 -22601501.59846  21090531.1804                   21090528.6524
 -20724307.25047 -16126147.83646  22132625.5164                   22132628.1054
 -21837724.23847 -17002080.30946  21146580.0164                   21146579.0944
  -1155350.01246   -894584.30543  24603712.1024                   24603712.8054
 11  9 22  0 49 30.0000000  0 10G02G15G30G18G12G26G05G25G29G21
  -8590659.77747  -6660035.30545  22354850.2584                   22354847.4494
  -8018197.14146  -6233555.01244  22955412.9144                   22955412.2504
 -12806929.62147  -9961688.47745  22579954.9304                   22579955.2234
   2506448.87546   1963961.75043  24570484.0314                   24570486.1724
 -18142260.20347 -14089499.60944  23053239.1174                   23053239.7814
 -15061650.34847 -11715513.34445  22159192.0004                   22159191.9884
 -28990319.17648 -22574439.93746  21097139.5554                   21097138.3484
 -20695846.69548 -16103970.80946  22138041.4924                   22138043.3204
 -21928632.43747 -17072917.80546  21129280.5004                   21129279.5514
  -1242399.93446   -962415.35243  24587147.5234                   24587147.5204
 11  9 22  0 50  0.0000000  0 10G02G15G30G18G12G26G05G25G29G21
  -8568518.71947  -6642782.50445  22359063.3364                   22359059.8594
  -8140700.25047  -6329011.85545  22932101.2734                   22932101.1954
 -12810050.69947  -9964120.49245  22579360.8134                   22579360.1764
   2388991.05946   1872436.64143  24548133.1174                   24548134.4104
 -18076872.89547 -14038548.55945  23065682.4774                   23065682.7894
 -15164121.96547 -11795361.28945  22139692.7734                   22139692.7664
 -28955254.18448 -22547116.53946  21103812.1724                   21103811.2854
 -20666979.38747 -16081476.83646  22143534.7734                   22143537.1724
 -22019235.32048 -17143517.40246  21112039.6334                   21112038.7034
  -1329460.00447  -1030254.26643  24570580.5084                   24570580.2154
 11  9 22  0 50 30.0000000  0 10G02G15G30G18G12G26G05G25G29G21
  -8546263.06247  -6625440.42245  22363298.3444                   22363295.8484
  -8263062.68747  -6424359.09045  22908817.1414                   22908816.1914
 -12812645.62547  -9966142.52045  22578867.0004                   22578866.5744
   2271700.38346   1781041.69543  24525812.3524                   24525815.2074
 -18011352.69547 -13987493.92645  23078149.7584                   23078150.3204
 -15266183.77347 -11874889.85945  22120270.5394                   22120270.1454
 -28919855.00848 -22519532.75046  21110548.8054                   21110546.7424
 -20637707.30147 -16058667.46546  22149104.9064                   22149106.7504
 -22109529.91448 -17213876.75446  21094856.9614                   21094856.1844
  -1416529.98047  -1098100.90644  24554011.0784                   24554011.9384
 11  9 22  0 51  0.0000000  0 10G02G15G30G18G12G26G05G25G29G21
  -8523890.78148  -6608007.47745  22367555.4384                   22367552.9224
  -8385278.96947  -6519592.44545  22885559.0554                   22885559.6564
 -12814714.16047  -9967754.37545  22578473.4614                   22578473.2704
   2154580.39546   1689779.89842  24503523.5864                   24503526.6844
 -17945700.36747 -13936336.35244  23090642.7814                   23090643.7544
 -15367830.29747 -11954094.85245  22100928.1884                   22100927.6954
 -28884121.94548 -22491688.76646  21117348.0554                   21117346.4144
 -20608031.16847 -16035543.26645  22154752.0314                   22154754.0044
 -22199511.96148 -17283992.57046  21077733.7584                   21077732.5514
  -1503608.05547  -1165953.89544  24537441.4844                   24537441.8554
 11  9 22  0 51 30.0000000  0 10G02G15G30G18G12G26G05G25G29G21
  -8501403.95747  -6590485.23445  22371835.0084                   22371831.8134
  -8507348.18447  -6614711.17645  22862329.8674                   22862330.2934
 -12816260.25047  -9968959.11745  22578179.1414                   22578179.1454
   2037630.17646   1598650.26243  24481269.5784                   24481272.0204
 -17879921.09847 -13885079.89844  23103161.5474                   23103161.5434
 -15469060.03548 -12032975.09445  22081664.7504                   22081664.9184
 -28848059.71948 -22463588.32046  21124210.6094                   21124208.8014
 -20577955.80948 -16012107.96145  22160475.4534                   22160477.1804
 -22289181.07048 -17353864.54346  21060670.5084                   21060669.1174
  -1590696.82447  -1233815.19943  24520868.9694                   24520869.6484
 11  9 22  0 52  0.0000000  0 10G02G15G30G18G12G26G05G25G29G21
  -8478802.28947  -6572873.53145  22376135.9224                   22376134.1804
  -8629267.53947  -6709713.16045  22839130.5784                   22839129.0554
 -12817286.12547  -9969758.51645  22577983.4304                   22577984.1724
   1920850.45346   1507653.56342  24459045.6884                   24459048.1024
 -17814018.48047 -13833727.27045  23115701.9144                   23115702.6724
 -15569869.80548 -12111528.06245  22062481.0164                   22062480.9734
 -28811670.71548 -22435233.22346  21131134.9774                   21131133.5204
 -20547484.30147 -15988363.96546  22166273.9384                   22166275.4024
 -22378535.22748 -17423491.11346  21043666.7584                   21043665.6134
  -1677796.82846  -1301685.22343  24504293.4384                   24504292.9774
 11  9 22  0 52 30.0000000  0 10G02G15G30G18G12G26G05G25G29G21
  -8456082.56647  -6555169.83645  22380459.2974                   22380455.8594
  -8751031.14847  -6804593.76245  22815958.9304                   22815959.3134
 -12817790.62147  -9970151.64545  22577887.2504                   22577888.4184
   1804245.91846   1416793.29743  24436857.4064                   24436859.3754
 -17747992.01247 -13782278.17245  23128265.9144                   23128267.1804
 -15670253.24647 -12189748.82445  22043378.3284                   22043378.5984
 -28774954.71148 -22406623.32846  21138122.3204                   21138120.4924
 -20516616.34447 -15964311.05546  22172148.5394                   22172149.9964
 -22467569.04748 -17492868.05546  21026724.1174                   21026723.0984
  -1764905.55946  -1369562.03543  24487716.6174                   24487716.7504
 11  9 22  0 53  0.0000000  0 10G02G15G30G18G12G26G05G25G29G21
  -8433246.17647  -6537375.20345  22384804.6804                   22384801.8524
  -8872637.59847  -6899351.93045  22792817.6724                   22792818.1094
 -12817777.45346  -9970141.41845  22577890.1884                   22577890.5984
   1687815.79746   1326068.96143  24414701.5784                   24414703.6804
 -17681847.23847 -13730736.87545  23140853.6414                   23140854.0944
 -15770208.40647 -12267635.87945  22024357.5634                   22024357.1484
 -28737915.70348 -22377761.74246  21145170.3834                   21145168.7734
 -20485356.42647 -15939952.72746  22178096.7274                   22178098.5204
 -22556282.07047 -17561995.05146  21009842.6024                   21009841.7344
  -1852025.27046  -1437447.42243  24471138.8834                   24471138.7274
 11  9 22  0 53 30.0000000  0 10G02G15G30G18G12G26G05G25G29G21
  -8410294.03147  -6519490.37945  22389172.1804                   22389168.2344
  -8994084.47347  -6993985.74245  22769706.8674                   22769708.1684
 -12817249.60247  -9969730.12145  22577990.7424                   22577990.5554
   1571560.02346   1235480.48043  24392578.5784                   24392580.9384
 -17615588.03547 -13679106.44144  23153461.9144                   23153462.4774
 -15869733.00047 -12345187.41845  22005418.7584                   22005418.8554
 -28700557.02748 -22348651.08646  21152279.4924                   21152277.6374
 -20453708.30947 -15915291.90246  22184118.8914                   22184121.5234
 -22644672.94148 -17630871.00046  20993022.5084                   20993020.7934
  -1939157.40246  -1505342.50844  24454559.1174                   24454558.4534
 11  9 22  0 54  0.0000000  0 10G02G15G30G18G12G26G05G25G29G21
  -8387224.36347  -6501513.98045  22393562.6644                   22393559.8054
  -9115367.43047  -7088491.82845  22746627.9694                   22746628.2774
 -12816207.55947  -9968918.15645  22578189.0164                   22578189.8164
   1455481.38346   1145029.99243  24370489.1954                   24370491.5594
 -17549215.84047 -13627387.96144  23166092.3284                   23166093.2274
 -15968822.24247 -12422399.72345  21986562.5634                   21986562.4344
 -28662880.16048 -22319292.47346  21159449.3204                   21159447.2194
 -20421673.46147 -15890329.75446  22190215.1484                   22190217.1844
 -22732737.93748 -17699493.03546  20976264.1644                   20976262.8674
  -2026301.02746  -1573246.46944  24437975.1174                   24437976.1054
 11  9 22  0 54 30.0000000  0 10G02G15G30G18G12G26G05G25G29G21
  -8364036.04747  -6483445.14145  22397974.5864                   22397972.0944
  -9236482.60547  -7182867.21545  22723580.6024                   22723579.4804
 -12814652.76247  -9967706.66445  22578485.2734                   22578485.5274
   1339581.91446   1054719.10243  24348433.4924                   24348436.0554
 -17482733.16047 -13575583.35244  23178743.7424                   23178744.8594
 -16067471.82847 -12499269.43745  21967790.3594                   21967789.5274
 -28624886.47748 -22289686.98446  21166679.1254                   21166677.3634
 -20389253.90647 -15865067.81646  22196384.4694                   22196386.3954
 -22820473.99648 -17767858.76246  20959568.2424                   20959567.4304
  -2113455.75446  -1641159.12143  24421390.5314                   24421390.6054
 11  9 22  0 55  0.0000000  0 10G02G15G30G18G12G26G05G25G29G21
  -8340732.03147  -6465286.14545  22402409.7274                   22402406.1994
  -9357430.00047  -7277111.84845  22700564.6254                   22700564.4264
 -12812590.23047  -9966099.51645  22578877.3594                   22578877.3094
   1223859.71546    964546.28543  24326412.3134                   24326413.7074
 -17416145.78547 -13523697.16845  23191415.3914                   23191415.5044
 -16165681.56647 -12575796.42645  21949101.8674                   21949100.7234
 -28586581.52048 -22259838.95346  21173968.2814                   21173966.5554
 -20356455.50847 -15839510.67246  22202626.0004                   22202627.7304
 -22907881.91848 -17835968.78946  20942935.1024                   20942933.6914
  -2200625.11346  -1709083.10243  24404801.1484                   24404801.6684
 11  9 22  0 55 30.0000000  0 10G02G15G30G18G12G26G05G25G29G21
  -8317309.51247  -6447034.78545  22406866.5864                   22406863.5664
  -9478204.56647  -7371221.79345  22677581.6884                   22677581.7734
 -12810019.62147  -9964096.47345  22579367.0004                   22579367.2114
   1108318.32446    874514.37543  24304425.1094                   24304425.7114
 -17349454.69147 -13471730.16845  23204106.5784                   23204106.7664
 -16263445.57447 -12651976.07445  21930497.6484                   21930497.0234
 -28547965.43748 -22229748.49246  21181316.5474                   21181314.8984
 -20323278.82447 -15813658.72346  22208939.1724                   22208940.4264
 -22994956.72348 -17903819.25046  20926365.5164                   20926363.7734
  -2287806.87546  -1777016.75043  24388210.9064                   24388211.4574
 11  9 22  0 56  0.0000000  0 10G02G15G30G18G12G26G05G25G29G21
  -8293768.67247  -6428691.24645  22411346.6564                   22411344.0554
  -9598803.17647  -7465194.63345  22654632.8754                   22654633.1214
 -12806943.39847  -9961699.45745  22579953.0474                   22579952.9884
    992958.71146    784624.08643  24282471.2504                   24282473.7154
 -17282663.54347 -13419685.22744  23216815.5634                   23216816.6214
 -16360760.80147 -12727806.03945  21911978.9924                   21911978.0274
 -28509041.17648 -22199417.89146  21188723.4454                   21188721.8984
 -20289726.98047 -15787514.46145  22215324.0784                   22215326.0234
 -23081697.25048 -17971409.22746  20909859.2034                   20909857.7544
  -2375002.00846  -1844960.85943  24371618.9844                   24371619.4654
 11  9 22  0 56 30.0000000  0 10G02G15G30G18G12G26G05G25G29G21
  -8270108.90647  -6410255.03545  22415848.2814                   22415845.3914
  -9719222.53147  -7559027.81645  22631717.4924                   22631717.5434
 -12803363.44547  -9958909.90245  22580632.7194                   22580633.7424
    877782.02346    694876.32043  24260555.2034                   24260556.3404
 -17215774.67647 -13367564.12144  23229544.1254                   23229545.4064
 -16457623.90647 -12803283.68045  21893546.3594                   21893545.6484
 -28469810.26648 -22168848.32846  21196189.0704                   21196187.0704
 -20255802.60547 -15761079.95345  22221779.4454                   22221781.5004
 -23168100.37547 -18038736.30546  20893417.3674                   20893416.4344
  -2462210.72346  -1912915.62143  24355023.5004                   24355023.6724
 11  9 22  0 57  0.0000000  0 10G02G15G30G18G12G26G05G25G29G21
  -8246329.04347  -6391725.25045  22420373.7344                   22420371.1374
  -9839458.57047  -7652718.16045  22608837.1804                   22608837.0824
 -12799280.84847  -9955728.68745  22581410.1334                   22581409.9304
    762790.49246    605272.80543  24238672.1484                   24238674.3484
 -17148790.44947 -13315368.75444  23242291.3364                   23242292.0234
 -16554030.32448 -12878405.47345  21875201.1024                   21875200.1174
 -28430275.00848 -22138041.62546  21203712.4614                   21203710.2384
 -20221507.66447 -15734356.65646  22228305.3364                   22228308.0824
 -23254162.84848 -18105797.92246  20877039.9694                   20877038.1214
  -2549432.11746  -1980880.21143  24338425.9534                   24338426.6684
 11  9 22  0 57 30.0000000  0 10G02G15G30G18G12G26G05G25G29G21
  -8222427.18747  -6373100.38345  22424922.4454                   22424918.9964
  -9959506.77747  -7746262.11745  22585992.3834                   22585992.9024
 -12794696.20347  -9952156.25445  22582283.1644                   22582282.5824
    647986.68846    515815.63743  24216825.6484                   24216827.3794
 -17081712.39847 -13263100.25044  23255056.0164                   23255056.3634
 -16649975.23447 -12953167.65645  21856943.1024                   21856942.7854
 -28390436.24248 -22106998.41446  21211293.3284                   21211291.6484
 -20186843.38347 -15707345.57846  22234901.7894                   22234903.7234
 -23339881.12148 -18172591.34846  20860728.2814                   20860727.0824
  -2636665.19946  -2048853.85543  24321825.6564                   24321826.4694
 11  9 22  0 58  0.0000000  0 10G02G15G30G18G12G26G05G25G29G21
  -8198406.00047  -6354382.53945  22429492.6644                   22429490.8954
 -10079366.79347  -7839659.43045  22563184.1334                   22563184.6134
 -12789614.84847  -9948196.77745  22583249.5944                   22583250.0984
    533368.98046    426503.38743  24195014.7734                   24195016.3404
 -17014546.55947 -13210763.34445  23267837.3674                   23267837.5394
 -16745458.39848 -13027570.02745  21838773.3444                   21838772.5044
 -28350299.49248 -22075723.01246  21218931.0314                   21218929.3444
 -20151815.80147 -15680051.40645  22241567.7974                   22241569.6684
 -23425255.71547 -18239116.96146  20844482.5864                   20844480.5664
  -2723913.62946  -2116839.42244  24305222.4304                   24305222.8914
 11  9 22  0 58 30.0000000  0 10G02G15G30G18G12G26G05G25G29G21
  -8174266.23847  -6335572.29345  22434086.4774                   22434083.9614
 -10199036.67247  -7932908.59045  22540412.0314                   22540411.7424
 -12784039.65647  -9943852.46545  22584310.6094                   22584310.9804
    418937.51246    337336.23843  24173239.1804                   24173241.4534
 -16947296.90647 -13158361.09045  23280635.3054                   23280635.2504
 -16840477.48447 -13101610.77345  21820691.3524                   21820690.4454
 -28309867.60248 -22044217.64546  21226625.0314                   21226623.4654
 -20116428.69947 -15652477.04345  22248301.4384                   22248303.8204
 -23510285.19948 -18305373.64546  20828301.1804                   20828299.9104
  -2811178.68046  -2184838.02344  24288616.4774                   24288617.1524
 11  9 22  0 59  0.0000000  0 10G02G15G30G18G12G26G05G25G29G21
  -8150005.10947  -6316667.50045  22438703.7034                   22438700.6604
 -10318511.28547  -8026005.58645  22517676.2814                   22517676.0004
 -12777970.78547  -9939123.46545  22585465.1884                   22585465.3284
    304695.57446    248316.75043  24151499.3524                   24151500.9804
 -16879964.18046 -13105894.11344  23293447.3204                   23293448.6294
 -16935026.77347 -13175285.44545  21802698.8364                   21802697.8324
 -28269141.15248 -22012482.73446  21234375.0944                   21234373.5594
 -20080682.66447 -15624623.01646  22255103.8984                   22255105.8164
 -23594965.12948 -18371357.94146  20812187.7114                   20812186.0594
  -2898457.78146  -2252847.61743  24272008.7194                   24272007.9964
 11  9 22  0 59 30.0000000  0 10G02G15G30G18G12G26G05G25G29G21
  -8125621.79747  -6297667.49245  22443343.7344                   22443340.9384
 -10437786.63347  -8118947.30945  22494979.1414                   22494978.6334
 -12771409.62547  -9934010.88345  22586713.8364                   22586714.9534
    190644.79746    159446.20343  24129795.0784                   24129797.1524
 -16812550.70346 -13053364.28144  23306275.9694                   23306276.9414
 -17029102.37147 -13248591.02745  21784797.2274                   21784795.9184
 -28228121.96148 -21980519.73046  21242180.8364                   21242179.1214
 -20044580.07047 -15596491.15645  22261973.7424                   22261975.5044
 -23679292.60948 -18437067.60546  20796140.3134                   20796139.4414
  -2985751.53546  -2320868.60243  24255396.9534                   24255397.0944
 11  9 22  1  0  0.0000000  0 10G02G15G30G18G12G26G05G25G29G21
  -8101118.23447  -6278573.79745  22448006.4144                   22448004.4774
 -10556861.69147  -8211732.99245  22472319.6414                   22472319.0204
 -12764360.45347  -9928518.02745  22588055.2584                   22588056.0084
     76784.57046     70724.12143  24108128.5944                   24108129.7384
 -16745061.60246 -13000775.46944  23319118.6954                   23319118.8554
 -17122702.89147 -13321526.38745  21766985.3524                   21766984.2424
 -28186814.20748 -21948331.84046  21250041.5164                   21250039.5274
 -20008125.66847 -15568085.15645  22268910.7194                   22268912.9574
 -23763267.23848 -18502502.30947  20780160.4774                   20780158.6214
  -3073061.82046  -2388902.49643  24238780.9614                   24238781.3794
 11  9 22  1  0 30.0000000  0 10G02G15G30G18G12G26G05G25G29G21
  -8076492.45747  -6259384.86745  22452692.3364                   22452689.2934
 -10675731.98847  -8304359.10245  22449699.4844                   22449698.6884
 -12756824.19947  -9922645.63745  22589489.2504                   22589490.1294
    -36882.82846    -17847.71943  24086498.0164                   24086500.3954
 -16677498.71946 -12948129.14544  23331975.7424                   23331976.5984
 -17215823.88347 -13394088.10545  21749265.0004                   21749265.0634
 -28145219.30148 -21915920.23446  21257956.7504                   21257955.3284
 -19971321.17647 -15539406.36345  22275914.7734                   22275917.2114
 -23846885.36748 -18567659.22746  20764248.3054                   20764246.6884
  -3160388.04346  -2456948.77743  24222164.4384                   24222164.7584
 11  9 22  1  1  0.0000000  0 10G02G15G30G18G12G26G05G25G29G21
  -6476325.19547  -5012501.27745  22757194.3444                   22757190.7504
  -9218970.49647  -7169220.17645  22726911.3834                   22726910.7664
 -11173383.57047  -8688795.82045  22890808.7894                   22890808.2584
   1425067.26246   1121334.34843  24364697.8984                   24364699.9264
 -15034447.07847 -11667829.26245  23644638.3284                   23644639.4614
 -15733039.05948 -12238671.30145  22031430.0634                   22031429.2544
 -26527921.18048 -20655687.91846  21565718.0394                   21565716.7034
 -18358750.84448 -14282858.09046  22582776.9694                   22582779.4774
 -22354722.19948 -17404934.60246  21048197.3524                   21048196.2034
  -1672307.28946  -1297405.18744  24505336.2114                   24505336.6214
 11  9 22  1  1 30.0000000  0 10G02G15G30G18G12G26G05G25G29G21
  -6451455.21547  -4993122.04345  22761926.7424                   22761924.1604
  -9337422.95747  -7261520.71545  22704371.0314                   22704370.0984
 -11164881.00446  -8682170.42645  22892426.3204                   22892427.3484
   1311787.63346   1033064.66843  24343142.3914                   24343143.0664
 -14966746.31247 -11615075.50845  23657521.6484                   23657522.8914
 -15825192.21547 -12310478.84045  22013893.6254                   22013892.0634
 -26485760.07848 -20622835.10946  21573741.1484                   21573739.4694
 -18321255.93047 -14253641.31246  22589911.7274                   22589914.1294
 -22437621.86748 -17469531.67646  21032422.1254                   21032420.4614
  -1759666.82446  -1365477.44544  24488712.5474                   24488712.7234
 11  9 22  1  2  0.0000000  0 10G02G15G30G18G12G26G05G25G29G21
  -6426462.73047  -4973647.35545  22766682.5864                   22766679.2814
  -9455661.87147  -7353654.85545  22681870.6094                   22681870.5164
 -11155898.70347  -8675171.25045  22894136.0164                   22894136.1134
   1198703.82046    944947.51643  24321622.1254                   24321623.9184
 -14898980.98446 -11562271.44944  23670416.6024                   23670417.7504
 -15916856.53547 -12381905.51245  21996450.5314                   21996449.2934
 -26443319.58248 -20589764.58246  21581817.4924                   21581815.2344
 -18283420.24647 -14224158.99645  22597111.6024                   22597113.7304
 -22520158.80548 -17533846.09046  21016715.6644                   21016714.1334
  -1847043.71146  -1433563.20343  24472084.9534                   24472084.6374
 11  9 22  1  2 30.0000000  0 10G02G15G30G18G12G26G05G25G29G21
  -6401348.48047  -4954077.79345  22771461.2584                   22771458.6644
  -9573685.30147  -7445621.05945  22659411.5474                   22659410.8054
 -11146440.13747  -8667800.91045  22895934.9614                   22895935.1484
   1085815.60246    856982.79744  24300140.7584                   24300142.2544
 -14831155.17646 -11509420.29744  23683322.6484                   23683324.7664
 -16008029.84847 -12452949.56245  21979100.3284                   21979099.7114
 -26400603.07848 -20556478.98446  21589945.9614                   21589943.8054
 -18245247.87947 -14194414.31645  22604375.0314                   22604377.4184
 -22602331.76648 -17597876.89146  21001078.5944                   21001077.4884
  -1934439.29346  -1501663.59043  24455453.7584                   24455453.6454
 11  9 22  1  3  0.0000000  0 10G02G15G30G18G12G26G05G25G29G21
  -6376110.59047  -4934411.90645  22776263.8984                   22776261.5234
  -9691488.79747  -7537415.86745  22636993.5314                   22636992.9694
 -11136506.10547  -8660060.12944  22897825.9924                   22897825.7274
    973125.37546    769172.35543  24278696.7274                   24278697.6804
 -14763270.82846 -11456523.54744  23696241.3984                   23696243.2974
 -16098707.71147 -12523607.56645  21961845.0634                   21961844.2814
 -26357611.60548 -20522979.10946  21598127.1174                   21598125.2664
 -18206740.28947 -14164408.44545  22611702.8054                   22611704.5204
 -22684137.25448 -17661621.34847  20985511.3834                   20985510.0004
  -2021852.43746  -1569777.63744  24438819.8524                   24438820.0354
 11  9 22  1  3 30.0000000  0 10G02G15G30G18G12G26G05G25G29G21
  -6350748.55947  -4914649.23845  22781090.3284                   22781087.2344
  -9809068.46547  -7629036.30545  22614619.7114                   22614619.2584
 -11126098.73047  -8651950.47344  22899806.2274                   22899805.7544
    860634.70346    681517.42243  24257290.6804                   24257291.9024
 -14695330.65646 -11403583.25844  23709170.5084                   23709171.0314
 -16188886.59847 -12593876.75845  21944684.4384                   21944683.2704
 -26314347.31648 -20489266.65646  21606359.8674                   21606358.6024
 -18167900.21947 -14134143.48845  22619094.3834                   22619096.8954
 -22765572.46548 -17725077.28147  20970014.7424                   20970013.1054
  -2109283.01646  -1637905.25044  24422182.3674                   24422182.2584
 11  9 22  1  4  0.0000000  0 10G02G15G30G18G12G26G05G25G29G21
  -6325260.18747  -4894788.16445  22785940.6884                   22785937.4804
  -9926419.79347  -7720478.79745  22592288.1954                   22592287.1724
 -11115218.73447  -8643472.56644  22901876.3054                   22901877.0204
    748346.55146    594020.29343  24235921.5004                   24235923.1764
 -14627335.99246 -11350600.47744  23722109.5634                   23722110.0554
 -16278561.54747 -12663753.25445  21927620.0474                   21927619.1604
 -26270811.05148 -20455342.28546  21614644.5474                   21614642.8754
 -18128728.91447 -14103620.42645  22626548.6954                   22626550.5274
 -22846633.62548 -17788241.74647  20954589.5314                   20954587.9414
  -2196729.73846  -1706045.44144  24405541.6954                   24405541.7194
 11  9 22  1  4 30.0000000  0 10G02G15G30G18G12G26G05G25G29G21
  -6299648.58647  -4874831.05545  22790814.2664                   22790811.4614
 -10043543.03947  -7811743.53145  22569999.9614                   22570000.3954
 -11103871.60547  -8634630.66844  22904035.7114                   22904036.6604
    636258.41446    506679.03143  24214592.2344                   24214593.5594
 -14559292.54347 -11297579.69144  23735057.4844                   23735058.4104
 -16367732.70747 -12733237.20745  21910651.6804                   21910650.2974
 -26227008.37148 -20421210.29746  21622980.1334                   21622977.7704
 -18089232.62147 -14072844.12546  22634064.4844                   22634067.6484
 -22927321.59848 -17851115.42646  20939234.5084                   20939233.4534
  -2284196.13746  -1774200.91044  24388897.5704                   24388897.5824
 11  9 22  1  5  0.0000000  0 10G02G15G30G18G12G26G05G25G29G21
  -6273913.85247  -4854778.00845  22795711.7194                   22795707.8794
 -10160435.50047  -7902828.46945  22547756.2814                   22547755.7304
 -11092060.28547  -8625427.07445  22906283.8284                   22906284.5864
    524370.85946    419494.10543  24193300.0004                   24193300.9654
 -14491203.80547 -11244523.64544  23748014.4924                   23748015.6644
 -16456397.39847 -12802326.49245  21893778.6564                   21893777.5204
 -26182942.23848 -20386873.01246  21631365.3364                   21631363.0204
 -18049414.73447 -14041817.23845  22641641.3134                   22641643.4734
 -23007634.80148 -17913697.07846  20923951.8444                   20923949.9384
  -2371683.10546  -1842372.46543  24372248.5634                   24372248.5634
 11  9 22  1  5 30.0000000  0 10G02G15G30G18G12G26G05G25G29G21
  -6248053.19947  -4834626.84445  22800632.8984                   22800629.5824
 -10277091.78546  -7993729.35945  22525557.0234                   22525556.6214
 -11079784.82847  -8615861.80945  22908619.6644                   22908620.3524
    412687.11746    332467.94143  24172047.7034                   24172048.4344
 -14423070.54746 -11191432.91044  23760979.6564                   23760981.2894
 -16544550.09847 -12871016.84045  21877004.1564                   21877003.3134
 -26138612.60248 -20352330.41446  21639800.9924                   21639799.1414
 -18009276.02747 -14010540.37945  22649279.3364                   22649282.3094
 -23087568.64148 -17975983.11747  20908740.8834                   20908738.9144
  -2459188.52047  -1910558.38743  24355597.4144                   24355596.2074
 11  9 22  1  6  0.0000000  0 10G02G15G30G18G12G26G05G25G29G21
  -6222066.94547  -4814377.78145  22805578.2584                   22805575.7504
 -10393509.23047  -8084444.14145  22503403.5784                   22503402.5944
 -11067048.30547  -8605937.24645  22911042.9614                   22911043.3984
    301208.02346    245601.23043  24150834.5704                   24150834.4144
 -14354896.51246 -11138310.41844  23773953.0944                   23773954.5554
 -16632188.39847 -12939306.34445  21860326.8444                   21860326.6844
 -26094022.65648 -20317584.97346  21648286.5704                   21648284.7734
 -17968819.98047 -13979016.23045  22656978.3204                   22656980.9654
 -23167121.46948 -18037972.27046  20893602.2894                   20893600.9024
  -2546713.28547  -1978759.42244  24338942.4064                   24338940.4184
 11  9 22  1  6 30.0000000  0 10G02G15G30G18G12G26G05G25G29G21
  -6195954.03547  -4794030.01245  22810547.0164                   22810544.3134
 -10509684.18047  -8174969.96545  22481296.1484                   22481295.9064
 -11053852.48447  -8595654.79345  22913554.3204                   22913555.4494
    189935.14146    158895.19943  24129659.9924                   24129660.5004
 -14286683.93747 -11085157.88744  23786933.7664                   23786934.7734
 -16719308.38347 -13007191.96145  21843748.4924                   21843746.8834
 -26049173.85948 -20282637.80946  21656820.7424                   21656818.3714
 -17928049.00447 -13947246.67645  22664736.2344                   22664738.7074
 -23246290.02748 -18099662.00447  20878537.3134                   20878535.2344
  -2634257.07047  -2046975.21544  24322282.4384                   24322282.9224
 11  9 22  1  7  0.0000000  0 10G02G15G30G18G12G26G05G25G29G21
  -6169715.02047  -4773584.00045  22815539.8594                   22815537.4574
 -10625614.38747  -8265305.08645  22459234.9844                   22459234.6054
 -11040200.68447  -8585017.03145  22916152.1254                   22916152.2704
     78868.47346     72349.87943  24108523.6804                   24108524.4024
 -14218436.55947 -11031978.21944  23799920.8524                   23799922.3324
 -16805907.98047 -13074672.07845  21827268.3674                   21827267.2624
 -26004069.52348 -20247491.53146  21665403.7344                   21665400.8164
 -17886966.93747 -13915234.73045  22672554.7194                   22672556.8094
 -23325073.19948 -18161051.41846  20863545.1484                   20863543.2664
  -2721820.95346  -2115206.67644  24305619.1484                   24305619.8484
 11  9 22  1  7 30.0000000  0 10G02G15G30G18G12G26G05G25G29G21
  -6143350.29747  -4753040.05145  22820557.0474                   22820554.5004
 -10741297.85247  -8355447.93445  22437221.1954                   22437221.0274
 -11026096.31247  -8574026.62545  22918836.3524                   22918836.3914
    -31991.81246    -14034.64143  24087427.3834                   24087428.7584
 -14150158.40247 -10978774.53944  23812913.8444                   23812915.5514
 -16891985.16047 -13141745.12145  21810888.9384                   21810888.3874
 -25958713.38348 -20212149.06246  21674034.7504                   21674033.0164
 -17845577.87947 -13882983.56245  22680430.6254                   22680432.9344
 -23403469.75848 -18222139.59847  20848626.6094                   20848624.8634
  -2809405.82847  -2183454.48844  24288952.6484                   24288952.5354
 11  9 22  1  8  0.0000000  0 10G02G15G30G18G12G26G05G25G29G21
  -6116859.61747  -4732397.94145  22825598.0004                   22825595.5044
 -10856731.27747  -8445395.95745  22415254.5704                   22415254.0234
 -11011541.82447  -8562685.46144  22921605.3364                   22921605.3634
   -142644.71146   -100257.50843  24066371.0704                   24066372.4774
 -14081851.61747 -10925548.57444  23825912.0784                   23825914.1604
 -16977536.57447 -13208408.48445  21794609.0704                   21794607.8634
 -25913107.27048 -20176611.79746  21682712.9844                   21682711.3914
 -17803884.56247 -13850495.30545  22688364.4144                   22688367.1334
 -23481477.36748 -18282924.69547  20833782.2194                   20833780.5944
  -2897012.59447  -2251719.41044  24272281.7114                   24272280.7424
 11  9 22  1  8 30.0000000  0 10G02G15G30G18G12G26G05G25G29G21
  -6090242.14547  -4711657.03145  22830663.1644                   22830659.1604
 -10971910.93047  -8535146.21145  22393336.6414                   22393336.5944
 -10996539.16847  -8550995.09845  22924460.5084                   22924461.3594
   -253088.90646   -186317.76643  24045354.6334                   24045355.2974
 -14013519.26247 -10872302.68744  23838915.9774                   23838916.1334
 -17062558.71147 -13274659.42645  21778429.7114                   21778428.0474
 -25867252.84848 -20140881.02746  21691439.0944                   21691437.5004
 -17761889.56647 -13817771.98845  22696355.8204                   22696358.2734
 -23559093.25048 -18343404.55947  20819012.3444                   20819010.9304
  -2984640.69146  -2320000.94544  24255606.6484                   24255605.5204
 11  9 22  1  9  0.0000000  0 10G02G15G30G18G12G26G05G25G29G21
  -6063495.63747  -4690815.54345  22835752.6724                   22835748.9344
 -11086832.15647  -8624695.12945  22371468.4614                   22371467.5474
 -10981089.19147  -8538956.18044  22927400.0634                   22927401.2854
   -363321.09446   -272212.85243  24024377.4694                   24024378.8594
 -13945162.90247 -10819038.07044  23851923.2734                   23851924.1994
 -17147047.01247 -13340494.34845  21762352.1254                   21762350.8134
 -25821151.57048 -20104957.91446  21700211.4844                   21700209.5824
 -17719594.31247 -13784814.71145  22704404.1954                   22704406.8674
 -23636313.51648 -18403576.14547  20804317.8364                   20804315.9064
  -3072288.63747  -2388297.91444  24238927.3914                   24238926.8244
 11  9 22  1  9 30.0000000  0 10G02G15G30G18G12G26G05G25G29G21
  -6036621.96947  -4669875.01645  22840866.6024                   22840863.7854
 -11201493.91847  -8714041.85545  22349648.4774                   22349648.2814
 -10965196.39147  -8526572.20344  22930424.4534                   22930425.4654
   -473342.83647   -357943.94543  24003440.9064                   24003442.7974
 -13876787.08247 -10765758.34044  23864934.6024                   23864936.5554
 -17231000.26247 -13405912.37945  21746376.0084                   21746375.3714
 -25774807.44948 -20068845.58246  21709030.3984                   21709027.6374
 -17677003.74647 -13751627.32045  22712509.2424                   22712511.5044
 -23713137.71948 -18463439.10547  20789699.0164                   20789697.2704
  -3159958.64547  -2456612.02044  24222244.0474                   24222243.9654
 11  9 22  1 10  0.0000000  0 10G02G15G30G18G12G26G05G25G29G21
  -6009619.95347  -4648834.48045  22846005.2974                   22846001.9804
 -11315891.95347  -8803183.06245  22327879.9384                   22327879.0784
 -10948862.48047  -8513844.51245  22933533.3444                   22933533.6174
   -583152.16447   -443509.53143  23982544.5004                   23982545.1954
 -13808393.70346 -10712464.97344  23877949.5864                   23877951.7154
 -17314414.62147 -13470910.50445  21730502.9614                   21730501.2034
 -25728222.07848 -20032545.25846  21717895.2504                   21717893.5704
 -17634120.07447 -13718211.52745  22720669.9924                   22720672.3674
 -23789563.01648 -18522991.23447  20775155.4694                   20775154.0634
  -3247650.12947  -2524942.94144  24205557.3444                   24205556.3914
 11  9 22  1 10 30.0000000  0 10G02G15G30G18G12G26G05G25G29G21
  -5982491.00847  -4627695.02045  22851167.7584                   22851164.5204
 -11430025.32447  -8892118.06245  22306160.1564                   22306159.1684
 -10932092.03147  -8500776.64545  22936725.1954                   22936724.7424
   -692750.06646   -528910.39843  23961688.6174                   23961689.4224
 -13739987.55147 -10659161.59444  23890967.2584                   23890968.7894
 -17397289.38747 -13535488.16045  21714732.5944                   21714731.5984
 -25681399.88748 -19996060.41046  21726804.9454                   21726803.3444
 -17590948.39147 -13684571.31645  22728885.4064                   22728888.1764
 -23865589.30548 -18582232.46547  20760688.0944                   20760686.5784
  -3335365.30547  -2593292.32043  24188864.8674                   24188863.7624
 11  9 22  1 11  0.0000000  0 10G02G15G30G18G12G26G05G25G29G21
  -5955232.77747  -4606454.81245  22856354.0704                   22856352.0164
 -11543888.78147  -8980842.74245  22284492.7344                   22284492.0474
 -10914885.48447  -8487368.98845  22939999.7894                   22940000.1374
   -802133.78146   -614144.34443  23940873.7814                   23940873.7544
 -13671569.69546 -10605849.09844  23903987.1094                   23903988.0514
 -17479619.33247 -13599641.26245  21699065.3054                   21699064.1914
 -25634340.78948 -19959390.95746  21735760.6094                   21735758.6094
 -17547489.53147 -13650707.32045  22737154.8284                   22737157.5274
 -23941212.25448 -18641159.39147  20746297.1024                   20746295.7194
  -3423101.77746  -2661658.29343  24172168.7114                   24172168.0704
 11  9 22  1 11 30.0000000  0 10G02G15G30G18G12G26G05G25G29G21
  -5927844.64147  -4585113.39845  22861566.0164                   22861563.2274
 -11657479.38347  -9069354.78945  22262876.8134                   22262876.8014
 -10897245.28547  -8473623.39145  22943356.1484                   22943355.9924
   -911301.94547   -699210.33643  23920100.5554                   23920100.0904
 -13603142.87546 -10552529.60544  23917007.7504                   23917009.7114
 -17561401.40248 -13663367.46945  21683502.5474                   21683500.9844
 -25587047.04348 -19922538.66046  21744760.0084                   21744758.1174
 -17503746.52047 -13616621.89545  22745479.0004                   22745481.7274
 -24016429.50048 -18699770.19147  20731984.3754                   20731982.3524
  -3510860.42646  -2730041.52744  24155469.3594                   24155468.9344
 11  9 22  1 12  0.0000000  0 10G02G15G30G18G12G26G05G25G29G21
  -5900326.62547  -4563670.77745  22866802.4304                   22866799.2074
 -11770794.32847  -9157652.03545  22241313.8984                   22241312.8674
 -10879174.50447  -8459542.30545  22946795.4534                   22946795.6804
  -1020253.98047   -784107.89844  23899367.5314                   23899368.0554
 -13534710.33246 -10499205.66044  23930030.1024                   23930031.9844
 -17642633.19547 -13726664.87145  21668044.3754                   21668044.2154
 -25539521.75448 -19885505.95746  21753803.8674                   21753802.7074
 -17459722.82047 -13582317.79345  22753856.8054                   22753859.1804
 -24091239.15648 -18758063.39147  20717748.3834                   20717746.4964
  -3598641.73447  -2798442.43444  24138765.0234                   24138764.6134
 11  9 22  1 12 30.0000000  0 10G02G15G30G18G12G26G05G25G29G21
  -5872677.62147  -4542126.08245  22872064.1804                   22872060.1374
 -11883829.44547  -9245731.23445  22219804.1644                   22219802.8404
 -10860674.87147  -8445127.04344  22950314.1024                   22950316.0744
  -1128988.01646   -868835.58244  23878675.7974                   23878676.1644
 -13466273.96546 -10445878.77743  23943053.3134                   23943054.4264
 -17723310.75848 -13789530.40645  21652692.2814                   21652690.8914
 -25491766.11748 -19848293.77346  21762891.4304                   21762889.5514
 -17415420.58247 -13547796.63345  22762286.9614                   22762289.9734
 -24165638.23448 -18816036.66047  20703590.3444                   20703588.7624
  -3686444.98447  -2866860.44944  24122056.8134                   24122055.2194
 11  9 22  1 13  0.0000000  0 10G02G15G30G18G12G26G05G25G29G21
  -5844899.88347  -4520481.06645  22877350.0784                   22877346.6844
 -11996584.52747  -9333592.21945  22198347.0164                   22198346.1954
 -10841751.76247  -8430381.82845  22953915.2584                   22953916.5234
  -1237506.12146   -953395.00444  23858025.3054                   23858026.3594
 -13397839.57447 -10392553.40643  23956076.2584                   23956076.8754
 -17803434.33248 -13851964.26645  21637445.0944                   21637443.1994
 -25443785.44147 -19810906.21146  21772021.9454                   21772019.6604
 -17370845.64847 -13513062.98045  22770769.2734                   22770772.2934
 -24239627.28548 -18873690.42247  20689510.7504                   20689509.0204
  -3774273.07046  -2935297.79743  24105343.5004                   24105342.8834
 11  9 22  1 13 30.0000000  0 10G02G15G30G18G12G26G05G25G29G21
  -5816991.86747  -4498734.52745  22882660.3834                   22882657.7274
 -12109055.25447  -9421231.64545  22176944.5634                   22176943.9454
 -10822406.53147  -8415307.68444  22957597.4454                   22957597.6644
  -1345805.93746  -1037784.32444  23837415.9454                   23837417.1454
 -13329408.26646 -10339230.42244  23969098.4844                   23969099.0084
 -17882999.35947 -13913962.90246  21622303.9064                   21622303.4454
 -25395580.74247 -19773344.10946  21781194.9064                   21781192.6804
 -17325999.82447 -13478118.25445  22779302.8054                   22779306.0124
 -24313202.94948 -18931022.07447  20675509.7814                   20675508.3204
  -3862124.96946  -3003753.69943  24088625.1174                   24088623.7464
 11  9 22  1 14  0.0000000  0 10G02G15G30G18G12G26G05G25G29G21
  -5788952.55147  -4476885.69545  22887996.6644                   22887993.6484
 -12221237.85547  -9508646.54745  22155597.0314                   22155596.1764
 -10802641.16047  -8399906.10944  22961358.2974                   22961357.8634
  -1453885.92646  -1122002.35944  23816848.9304                   23816850.5864
 -13260982.68747 -10285911.93044  23982119.4614                   23982121.2664
 -17962002.73048 -13975523.87946  21607270.5784                   21607269.5514
 -25347153.54747 -19735608.62946  21790410.1414                   21790408.0204
 -17280885.47347 -13442964.29345  22787888.1174                   22787890.7894
 -24386362.47348 -18988029.45347  20661587.6644                   20661586.1054
  -3950000.16047  -3072227.81644  24071903.8984                   24071902.6414
 11  9 22  1 14 30.0000000  0 10G02G15G30G18G12G26G05G25G29G21
  -5760780.31247  -4454933.27345  22893357.5944                   22893354.3404
 -12333128.54747  -9595834.00045  22134304.7194                   22134303.4104
 -10782457.26647  -8384178.44144  22965199.2664                   22965199.2894
  -1561744.20746  -1206047.62944  23796323.5234                   23796325.4224
 -13192564.63347 -10232599.28144  23995139.2974                   23995141.1334
 -18040440.41448 -14036644.07445  21592343.8364                   21592342.0124
 -25298505.07847 -19697700.72346  21799667.9384                   21799665.8984
 -17235504.58247 -13407602.64545  22796524.2504                   22796526.6764
 -24459102.53548 -19044709.96547  20647746.0474                   20647744.5044
  -4037897.57847  -3140719.22744  24055177.2114                   24055176.5004
 11  9 22  1 15  0.0000000  0 10G02G15G30G18G12G26G05G25G29G21
  -5732477.81647  -4432879.35945  22898742.9384                   22898740.0234
 -12444726.73848  -9682793.52046  22113068.6954                   22113067.1054
 -10761860.50447  -8368129.04344  22969119.1644                   22969118.7504
  -1669382.59846  -1289921.53943  23775841.8364                   23775840.9304
 -13124159.41847 -10179296.66844  24008156.5554                   24008158.0634
 -18118312.57847 -14097323.58645  21577525.0784                   21577523.5984
 -25249640.73447 -19659624.60546  21808966.6954                   21808964.4804
 -17189863.20747 -13372037.99645  22805209.8524                   22805212.2384
 -24531423.83248 -19101064.18447  20633983.5164                   20633981.8444
  -4125820.55146  -3209230.52744  24038445.5784                   24038445.3714
 11  9 22  1 15 30.0000000  0 10G02G15G30G18G12G26G05G25G29G21
  -5704045.21947  -4410724.05145  22904153.8594                   22904150.4064
 -12556029.87147  -9769523.12946  22091888.0004                   22091887.5004
 -10740853.95747  -8351760.33644  22973116.7194                   22973116.6214
  -1776800.90247  -1373624.00043  23755399.8754                   23755399.5944
 -13055771.02047 -10126007.13344  24021170.4924                   24021172.9224
 -18195617.03548 -14157560.74645  21562814.8524                   21562813.5634
 -25200563.28147 -19621382.43446  21818305.7504                   21818303.8634
 -17143964.91447 -13336273.16445  22813943.4304                   22813946.5554
 -24603324.94948 -19157090.97347  20620301.6884                   20620299.6884
  -4213769.49646  -3277762.03544  24021708.9384                   24021708.5164
 11  9 22  1 16  0.0000000  0 10G02G15G30G18G12G26G05G25G29G21
  -5675480.55947  -4388465.85245  22909589.1334                   22909586.0314
 -12667033.50447  -9856019.35946  22070764.9064                   22070763.8594
 -10719439.07847  -8335073.48844  22977191.3754                   22977191.7774
  -1883996.73846  -1457153.07443  23735000.9844                   23735001.8554
 -12987400.02347 -10072731.19544  24034181.2424                   24034182.5274
 -18272349.52048 -14217352.21145  21548213.1024                   21548211.6884
 -25151273.37947 -19582974.72746  21827685.3284                   21827683.3444
 -17097811.35947 -13300309.43445  22822726.1024                   22822728.9064
 -24674802.30948 -19212787.57047  20606699.6564                   20606697.6954
  -4301743.42247  -3346313.05144  24004968.9924                   24004967.7034
 11  9 22  1 16 30.0000000  0 10G02G15G30G18G12G26G05G25G29G21
  -5646782.69547  -4366103.85945  22915050.5784                   22915047.1764
 -12777733.77048  -9942279.18746  22049698.8914                   22049697.6484
 -10697617.36747  -8318069.61744  22981344.2194                   22981344.9924
  -1990968.70346  -1540507.71143  23714645.1954                   23714645.7734
 -12919048.85947 -10019470.65243  24047187.8444                   24047188.5274
 -18348506.15648 -14276694.96945  21533720.8204                   21533719.4694
 -25101772.57448 -19544402.66846  21837104.9454                   21837102.9304
 -17051404.61347 -13264148.40245  22831557.7114                   22831559.8444
 -24745852.68448 -19268151.44547  20593179.2194                   20593177.1094
  -4389741.48047  -3414882.91444  23988223.7664                   23988221.2234
 11  9 22  1 17  0.0000000  0 10G02G15G30G18G12G26G05G25G29G21
  -5617953.23847  -4343639.33245  22920536.8754                   22920533.8134
 -12888129.47347 -10028301.71946  22028691.4064                   22028690.1414
 -10675393.69547  -8300752.52745  22985572.9454                   22985574.1954
  -2097717.31246  -1623688.27044  23694331.2424                   23694332.1684
 -12850722.57447  -9966229.50044  24060190.2584                   24060191.4844
 -18424086.42648 -14335588.60245  21519338.2274                   21519337.0084
 -25052065.35248 -19505669.76646  21846563.7584                   21846561.7704
 -17004749.84447 -13227794.10545  22840435.3834                   22840438.1334
 -24816475.75048 -19323182.36347  20579740.1334                   20579737.9414
  -4477765.68046  -3483473.13344  23971472.4534                   23971471.4924
 11  9 22  1 17 30.0000000  0 10G02G15G30G18G12G26G05G25G29G21
  -5588990.88747  -4321071.23845  22926048.0084                   22926045.0394
 -12998216.64147 -10114083.81646  22007742.4774                   22007741.2974
 -10652769.89847  -8283123.65244  22989877.6484                   22989879.8754
  -2204240.97347  -1706693.51643  23674060.3594                   23674061.3794
 -12782422.78946  -9913009.00044  24073187.1174                   24073188.8054
 -18499086.81247 -14394030.39545  21505066.2664                   21505065.2114
 -25002152.82847 -19466776.87546  21856061.6254                   21856059.7624
 -16957849.19147 -13191248.22745  22849360.6254                   22849364.3014
 -24886668.97748 -19377878.32047  20566382.5554                   20566380.7664
  -4565815.50447  -3552083.28144  23954717.5944                   23954716.6524
 11  9 22  1 18  0.0000000  0 10G02G15G30G18G12G26G05G25G29G21
  -5559895.68447  -4298399.60545  22931584.4304                   22931581.3284
 -13107993.27348 -10199623.95746  21986852.3134                   21986850.8134
 -10629749.46947  -8265185.73844  22994259.0394                   22994258.9224
  -2310539.77347  -1789523.54344  23653831.9924                   23653832.4224
 -12714152.62547  -9859811.60544  24086178.5944                   24086179.9454
 -18573505.26248 -14452018.71145  21490904.7504                   21490903.7934
 -24952038.07448 -19427726.42246  21865597.9534                   21865596.3794
 -16910706.46947 -13154513.71945  22858331.9224                   22858334.4884
 -24956430.81248 -19432238.14147  20553107.3754                   20553105.8484
  -4653891.59847  -3620713.90644  23937957.2894                   23937955.8364
 11  9 22  1 18 30.0000000  0 10G02G15G30G18G12G26G05G25G29G21
  -5530666.45347  -4275623.56245  22937145.6644                   22937143.3244
 -13217455.06648 -10284918.76246  21966022.3054                   21966021.2114
 -10606334.19947  -8246940.12544  22998714.6884                   22998715.1524
  -2416611.75447  -1872176.86343  23633647.3834                   23633647.1214
 -12645914.34847  -9806639.03544  24099163.7894                   24099165.3094
 -18647338.37148 -14509550.93746  21476854.9384                   21476852.8484
 -24901722.14848 -19388519.20746  21875173.3134                   21875171.7234
 -16863323.85547 -13117592.27345  22867348.4534                   22867350.7704
 -25025758.20748 -19486259.44147  20539914.7894                   20539913.0044
  -4741993.18447  -3689364.40244  23921191.3284                   23921190.6094
 11  9 22  1 19  0.0000000  0 10G02G15G30G18G12G26G05G25G29G21
  -5501303.17247  -4252743.10545  22942734.1724                   22942730.7544
 -13326599.23048 -10369966.07046  21945252.8444                   21945252.2704
 -10582527.21547  -8228389.27744  23003245.2664                   23003245.5514
  -2522456.40247  -1954653.08243  23613506.1414                   23613505.5864
 -12577710.83647  -9753493.58644  24112142.5944                   24112144.7344
 -18720583.67248 -14566625.10545  21462916.3594                   21462915.1214
 -24851207.90648 -19349157.45346  21884785.6334                   21884784.1374
 -16815704.76647 -13080486.56245  22876409.9774                   22876413.4844
 -25094649.47348 -19539940.89847  20526805.0944                   20526803.1604
  -4830120.64847  -3758035.06644  23904421.5474                   23904420.1884
 11  9 22  1 19 30.0000000  0 10G02G15G30G18G12G26G05G25G29G21
  -5471806.55947  -4229758.69945  22948347.2344                   22948343.9844
 -13435424.12148 -10454764.59046  21924544.2734                   21924543.3054
 -10558332.39547  -8209536.21944  23007849.5784                   23007849.2974
  -2628074.03547  -2036952.37544  23593407.0314                   23593407.5204
 -12509546.16846  -9700378.43044  24125113.5864                   24125117.0554
 -18793239.74648 -14623240.14845  21449090.9924                   21449088.9414
 -24800498.90247 -19309643.93046  21894435.1954                   21894432.9534
 -16767853.35547 -13043199.81645  22885515.4774                   22885518.3524
 -25163103.75448 -19593281.84847  20513778.6174                   20513776.7894
  -4918275.32447  -3826726.93044  23887645.8914                   23887644.4774
 11  9 22  1 20  0.0000000  0 10G02G15G30G18G12G26G05G25G29G21
  -5442176.10247  -4206670.00444  22953985.3984                   22953981.9384
 -13543926.52047 -10539311.82445  21903896.7894                   21903895.4264
 -10533752.39847  -8190383.00844  23012526.8364                   23012526.4654
  -2733463.96547  -2119074.21544  23573351.6484                   23573352.3914
 -12441422.78147  -9647295.39844  24138078.2114                   24138080.1644
 -18865303.93048 -14679394.00846  21435376.9844                   21435376.4454
 -24749596.93447 -19269980.05146  21904121.6644                   21904119.3794
 -16719772.62147 -13005734.39145  22894665.3134                   22894668.5354
 -25231118.50448 -19646280.31247  20500835.6174                   20500833.8324
  -5006457.06647  -3895439.85544  23870865.5394                   23870864.4454
 11  9 22  1 20 30.0000000  0 10G02G15G30G18G12G26G05G25G29G21
  -5412412.18747  -4183477.32444  22959649.2504                   22959645.0204
 -13652104.25048 -10623606.05946  21883311.5474                   21883309.7814
 -10508790.85947  -8170932.52744  23017277.4454                   23017277.8524
  -2838626.16847  -2201018.67243  23553340.1644                   23553339.6844
 -12373344.33647  -9594247.36744  24151032.9224                   24151034.5474
 -18936774.61348 -14735085.37146  21421776.5084                   21421775.8524
 -24698505.27047 -19230168.35946  21913843.8984                   21913841.9574
 -16671466.62147 -12968093.42645  22903857.5394                   22903860.7344
 -25298692.66848 -19698935.45747  20487976.7274                   20487974.8554
  -5094666.89547  -3964174.69544  23854080.5554                   23854078.9304
 11  9 22  1 21  0.0000000  0 10G02G15G30G18G12G26G05G25G29G21
  -5382513.52747  -4160179.66444  22965338.9774                   22965335.2304
 -13759952.92248 -10707643.89546  21862788.0394                   21862787.3244
 -10483449.44947  -8151186.01244  23022099.5784                   23022099.0944
  -2943558.43447  -2282783.97343  23533372.2504                   23533372.1764
 -12305312.35546  -9541235.53943  24163977.7664                   24163981.1684
 -19007647.85247 -14790311.20346  21408289.7734                   21408288.1454
 -24647224.85547 -19190209.59446  21923601.8754                   21923600.5824
 -16622937.02747 -12930278.21545  22913092.9144                   22913095.0044
 -25365823.09448 -19751244.83647  20475202.3984                   20475200.2384
  -5182903.30147  -4032930.25444  23837288.8754                   23837287.7974
 11  9 22  1 21 30.0000000  0 10G02G15G30G18G12G26G05G25G29G21
  -5352478.65647  -4136775.86345  22971054.5554                   22971051.2894
 -13867468.96148 -10791422.53146  21842328.2034                   21842327.7894
 -10457730.13747  -8131145.03144  23026993.5234                   23026994.7304
  -3048259.41047  -2364368.98044  23513447.9844                   23513448.2624
 -12237328.56646  -9488261.35243  24176915.5704                   24176917.4224
 -19077920.44947 -14845069.00845  21394917.6094                   21394915.6134
 -24595757.25447 -19150104.94946  21933396.1884                   21933394.4494
 -16574186.34047 -12892290.73445  22922370.0784                   22922372.3834
 -25432507.09848 -19803206.36747  20462512.8204                   20462510.4064
  -5271166.32447  -4101706.53144  23820493.3914                   23820492.1214
 11  9 22  1 22  0.0000000  0 10G02G15G30G18G12G26G05G25G29G21
  -5322307.16847  -4113265.58645  22976795.4384                   22976793.3284
 -13974649.10548 -10874939.44146  21821932.7894                   21821931.1414
 -10431635.60947  -8110811.74644  23031959.3984                   23031959.1684
  -3152727.92647  -2445772.87944  23493568.5474                   23493568.8524
 -12169395.82446  -9435326.85243  24189842.7114                   24189843.9224
 -19147589.73047 -14899356.68746  21381660.0004                   21381658.2034
 -24544104.59847 -19109856.11346  21943225.4304                   21943223.7304
 -16525217.44947 -12854133.22745  22931688.2814                   22931691.4884
 -25498742.52048 -19854818.34847  20449908.6564                   20449906.7034
  -5359455.46547  -4170503.14844  23803692.7034                   23803691.2934
 11  9 22  1 22 30.0000000  0 10G02G15G30G18G12G26G05G25G29G21
  -5292000.07447  -4089649.65244  22982562.6024                   22982560.5274
 -14081491.96148 -10958193.52045  21801601.1644                   21801599.1254
 -10405170.44547  -8090189.57044  23036994.8594                   23036996.0474
  -3256964.91847  -2526996.37544  23473732.7974                   23473733.0354
 -12101518.72747  -9382435.76243  24202760.5394                   24202761.8134
 -19216654.99247 -14953173.71145  21368517.1804                   21368515.1484
 -24492270.43047 -19069465.85246  21953089.1334                   21953087.1024
 -16476035.07447 -12815809.35245  22941047.4454                   22941050.7664
 -25564528.55948 -19906080.16047  20437389.9534                   20437388.2894
  -5447772.48847  -4239321.48444  23786885.9614                   23786884.5234
 11  9 22  1 23  0.0000000  0 10G02G15G30G18G12G26G05G25G29G21
  -5261559.05147  -4065929.35244  22988355.8134                   22988353.0274
 -14187996.38348 -11041183.87946  21781333.7814                   21781332.7814
 -10378339.19547  -8069282.16844  23042101.6484                   23042102.1374
  -3360971.20347  -2608040.11344  23453940.7424                   23453941.0514
 -12033701.50847  -9329591.26644  24215665.3204                   24215666.5044
 -19285115.46548 -15006519.46546  21355489.4924                   21355487.9534
 -24440258.96547 -19028937.40646  21962986.6564                   21962984.4614
 -16426644.03547 -12777322.89545  22950445.8444                   22950449.0004
 -25629865.48848 -19956992.01647  20424957.0234                   20424954.5354
  -5536119.23447  -4308162.98044  23770073.8284                   23770072.2544
 11  9 22  1 23 30.0000000  0 10G02G15G30G18G12G26G05G25G29G21
  -5230981.96547  -4042103.04744  22994174.6644                   22994170.3524
 -14294157.78148 -11123906.94146  21761131.7114                   21761130.7034
 -10351143.03147  -8048090.37544  23047276.8204                   23047277.5704
  -3464744.67247  -2688902.45344  23434193.0234                   23434192.6994
 -11965945.12947  -9276794.18744  24228559.0394                   24228560.9384
 -19352967.17648 -15059390.86746  21342577.7734                   21342575.7624
 -24388070.19548 -18988270.82046  21972917.7424                   21972916.1214
 -16377045.90247 -12738675.07845  22959884.7274                   22959887.1724
 -25694749.13348 -20007550.66847  20412609.6954                   20412607.7894
  -5624494.16447  -4377026.45344  23753256.5394                   23753255.2384
 11  9 22  1 24  0.0000000  0 10G02G15G30G18G12G26G05G25G29G21
  -5200269.28547  -4018171.07044  23000018.5234                   23000015.5314
 -14399974.21948 -11206361.21546  21740995.7814                   21740994.3204
 -10323586.07447  -8026617.48844  23052520.8284                   23052521.6484
  -3568285.78147  -2769583.72743  23414489.7114                   23414489.3404
 -11898253.41047  -9224047.50444  24241440.4694                   24241443.0394
 -19420208.77748 -15111786.86346  21329781.6094                   21329780.0824
 -24335708.21947 -18947469.25446  21982882.3984                   21982880.3524
 -16327244.92247 -12699869.18445  22969361.1804                   22969364.6174
 -25759179.10548 -20057755.80147  20400349.1484                   20400347.1254
  -5712898.47747  -4445912.81644  23736433.6414                   23736432.8754
 11  9 22  1 24 30.0000000  0 10G02G15G30G18G12G26G05G25G29G21
  -5169418.16847  -3994131.20344  23005888.9844                   23005886.5124
 -14505440.16448 -11288542.37146  21720925.9844                   21720924.4454
 -10295668.47747  -8004863.55944  23057833.3674                   23057834.0864
  -3671591.01247  -2850081.20343  23394831.1334                   23394830.6994
 -11830626.28546  -9171351.18044  24254309.3754                   24254312.6644
 -19486835.62947 -15163703.82446  21317103.5554                   21317101.3484
 -24283172.62147 -18906532.38746  21992878.8674                   21992877.4264
 -16277241.55947 -12660905.58645  22978876.8834                   22978879.2544
 -25823151.19948 -20107604.15647  20388175.2664                   20388173.8094
  -5801329.59447  -4514820.06244  23719605.5164                   23719604.9064
 11  9 22  1 25  0.0000000  0 10G02G15G30G18G12G26G05G25G29G21
  -5138429.67647  -3969984.32444  23011785.8524                   23011783.6684
 -14610553.87948 -11370449.07446  21700923.5314                   21700922.4064
 -10267394.52747  -7982831.95744  23063213.7114                   23063214.1884
  -3774661.07047  -2930395.43443  23375217.3674                   23375217.6954
 -11763067.82846  -9118708.38343  24267164.9534                   24267167.5944
 -19552846.47348 -15215140.78946  21304541.9064                   21304540.4384
 -24230466.59448 -18865462.73446  22002908.8754                   22002906.6414
 -16227040.25047 -12621787.70745  22988429.6024                   22988432.7934
 -25886664.24648 -20157094.81247  20376089.3524                   20376087.3634
  -5889788.60947  -4583749.04744  23702772.3364                   23702771.0824
 11  9 22  1 25 30.0000000  0 10G02G15G30G18G12G26G05G25G29G21
  -5107301.58247  -3945728.67244  23017709.8364                   23017706.5044
 -14715310.77348 -11452077.72346  21680988.9384                   21680987.8204
 -10238765.34447  -7960523.53944  23068661.7034                   23068661.7384
  -3877493.35247  -3010524.39144  23355649.5554                   23355649.7624
 -11695578.68047  -9066119.57444  24280007.9614                   24280009.7424
 -19618237.22348 -15266094.55546  21292098.0234                   21292096.6684
 -24177590.44947 -18824260.53546  22012970.7664                   22012968.1334
 -16176642.22747 -12582516.56645  22998020.4774                   22998022.6684
 -25949713.98848 -20206224.44947  20364091.1414                   20364089.6684
  -5978274.14547  -4652698.69144  23685934.0164                   23685932.6134
 11  9 22  1 26  0.0000000  0 10G02G15G30G18G12G26G05G25G29G21
  -5076035.05947  -3921365.13344  23023659.6954                   23023656.3134
 -14819709.30148 -11533427.14146  21661122.4064                   21661121.4344
 -10209785.28947  -7937941.71544  23074175.8674                   23074177.3484
  -3980088.67247  -3090468.67644  23336126.3204                   23336126.3014
 -11628163.52346  -9013588.44943  24292836.4304                   24292838.6174
 -19683007.27747 -15316564.67246  21279772.6414                   21279770.8914
 -24124548.03548 -18782928.76646  22023064.4534                   22023061.9964
 -16126052.10947 -12543095.74244  23007646.9064                   23007649.4614
 -26012300.86348 -20254993.41047  20352181.5474                   20352179.7814
  -6066787.45347  -4721669.96544  23669091.2974                   23669088.7034
 11  9 22  1 26 30.0000000  0 10G02G15G30G18G12G26G05G25G29G21
  -5044629.64147  -3896893.38745  23029636.2344                   23029632.6524
 -14923746.82048 -11614495.23446  21641324.5164                   21641323.8554
 -10180457.39846  -7915088.82444  23079757.1484                   23079756.8094
  -4082446.59447  -3170228.00444  23316648.1724                   23316648.3834
 -11560825.15646  -8961117.14843  24305651.1334                   24305652.8834
 -19747154.43447 -15366549.41046  21267565.8524                   21267564.6804
 -24071341.65248 -18741469.21546  22033189.0234                   22033186.9884
 -16075273.23847 -12503527.84445  23017310.0944                   23017312.6844
 -26074422.96147 -20303400.19947  20340360.0864                   20340358.0514
  -6155328.72346  -4790663.05144  23652241.4694                   23652239.5514
 11  9 22  1 27  0.0000000  0 10G02G15G30G18G12G26G05G25G29G21
  -5013083.23847  -3872311.74244  23035639.6414                   23035636.2274
 -15027418.57848 -11695278.32446  21621596.6484                   21621594.5434
 -10150782.87946  -7891965.82044  23085403.4304                   23085404.3634
  -4184564.47747  -3249800.26644  23297215.7114                   23297214.8134
 -11493564.25446  -8908706.17243  24318450.6094                   24318453.1214
 -19810674.43748 -15416045.45346  21255478.6564                   21255477.2774
 -24017971.52748 -18699882.05546  22043345.1094                   22043343.7274
 -16024306.82847 -12463813.81245  23027008.3984                   23027011.8204
 -26136076.43048 -20351441.83647  20328627.6954                   20328625.7034
  -6243896.01647  -4859676.39144  23635387.3594                   23635386.1094
 11  9 22  1 27 30.0000000  0 10G02G15G30G18G12G26G05G25G29G21
  -4981399.54747  -3847623.13744  23041668.5554                   23041665.6524
 -15130725.42648 -11775777.08646  21601938.1804                   21601936.0394
 -10120768.49247  -7868578.04744  23091115.9694                   23091117.5704
  -4286445.50447  -3329187.96544  23277828.1724                   23277828.1094
 -11426387.09846  -8856360.49643  24331233.9774                   24331236.4224
 -19873569.48048 -15465054.50846  21243509.5634                   21243507.7504
 -23964443.75448 -18658172.08246  22053530.7034                   22053529.2034
 -15973159.92647 -12423959.16845  23036741.6564                   23036744.5204
 -26197263.39848 -20399119.94947  20316984.3914                   20316982.0744
  -6332493.49247  -4928713.26244  23618528.6254                   23618527.0784
 11  9 22  1 28  0.0000000  0 10G02G15G30G18G12G26G05G25G29G21
  -4949576.10546  -3822825.64144  23047724.0394                   23047720.5164
 -15233662.49248 -11855987.69946  21582349.4694                   21582347.8754
 -10090415.24646  -7844926.21144  23096891.7034                   23096892.6374
  -4388087.21147  -3408389.16444  23258485.8204                   23258486.2464
 -11359294.71546  -8804080.83243  24344001.2504                   24344004.5314
 -19935835.04347 -15513573.08246  21231661.0164                   21231659.8954
 -23910758.22748 -18616339.19146  22063747.1484                   22063744.4884
 -15921833.67647 -12383964.74645  23046508.8914                   23046511.9104
 -26257979.73048 -20446431.33647  20305430.4384                   20305427.9454
  -6421118.96947  -4997771.93444  23601663.3914                   23601660.8014
 11  9 22  1 28 30.0000000  0 10G02G15G30G18G12G26G05G25G29G21
  -4917610.67647  -3797917.55144  23053806.9534                   23053803.4414
 -15336225.14848 -11935906.53546  21562832.5314                   21562831.1484
 -10059724.51646  -7821011.40244  23102731.9304                   23102732.6604
  -4489487.18747  -3487402.07043  23239189.5704                   23239188.9384
 -11292287.78146  -8751867.77043  24356752.4454                   24356754.3794
 -19997467.38748 -15561598.23046  21219932.6564                   21219931.8244
 -23856915.99648 -18574384.19146  22073992.9304                   22073991.1024
 -15870329.52747 -12343831.70745  23056310.0394                   23056312.1604
 -26318222.00048 -20493373.32447  20293966.4454                   20293964.4304
  -6509771.03946  -5066851.32044  23584793.0474                   23584790.9774
 11  9 22  1 29  0.0000000  0 10G02G15G30G18G12G26G05G25G29G21
  -4885506.28547  -3772901.14844  23059915.7424                   23059912.7194
 -15438413.96948 -12015534.10246  21543386.6254                   21543384.9184
 -10028702.55546  -7796838.48044  23108635.2034                   23108636.2894
  -4590648.08247  -3566228.61744  23219940.0944                   23219939.0634
 -11225372.35246  -8699726.02043  24369485.4304                   24369488.6954
 -20058467.96547 -15609131.09446  21208324.5784                   21208322.6374
 -23802922.21948 -18532311.09846  22084267.9774                   22084265.5314
 -15818653.91047 -12303565.00045  23066143.3914                   23066146.4414
 -26377991.73848 -20539947.11747  20282592.8984                   20282590.6644
  -6598453.02046  -5135954.01644  23567917.5394                   23567915.1174
 11  9 22  1 29 30.0000000  0 10G02G15G30G18G12G26G05G25G29G21
  -4853259.64146  -3747773.87545  23066052.2974                   23066049.7544
 -15540223.09048 -12094865.79746  21524012.9534                   21524011.0514
  -9997349.19946  -7772407.33644  23114601.7194                   23114603.1254
  -4691565.85547  -3644865.72744  23200736.0164                   23200735.9454
 -11158547.80146  -8647655.10543  24382202.6024                   24382205.7504
 -20118831.55148 -15656167.58246  21196837.8754                   21196836.2274
 -23748775.89547 -18490119.12546  22094571.5004                   22094569.1484
 -15766806.82847 -12263164.73844  23076009.3444                   23076011.5234
 -26437283.99648 -20586148.83647  20271309.8524                   20271307.5314
  -6687161.44946  -5205077.31244  23551036.1484                   23551035.2384
 11  9 22  1 30  0.0000000  0 10G02G15G30G18G12G26G05G25G29G21
  -3245452.44546  -2494937.11745  23372007.8444                   23372004.6024
 -14066227.35947 -10946297.60546  21804505.0164                   21804503.1054
  -8390249.75046  -6520122.10244  23420422.8914                   23420423.6174
  -3216818.28146  -2495711.65244  23481371.6564                   23481370.3524
  -9516400.04346  -7368059.56643  24694693.2814                   24694696.8984
 -18603135.03547 -14475105.31646  21485265.4304                   21485263.7894
 -22119062.23447 -17220212.35946  22404695.5004                   22404693.3444
 -14139374.40247 -10995035.60544  23385699.7194                   23385701.9414
 -24920676.66048 -19404376.85547  20559910.2114                   20559908.1684
  -5200474.84446  -4046620.05544  23833943.3204                   23833941.1954
 11  9 22  1 30 30.0000000  0 10G02G15G30G18G12G26G05G25G29G21
  -3212923.26246  -2469589.71544  23378198.3054                   23378194.3634
 -14167271.31248 -11025033.06646  21785276.8284                   21785275.4734
  -8358245.96946  -6495184.13744  23426513.2894                   23426513.2114
  -3317252.31247  -2573971.80544  23462259.0944                   23462258.6254
  -9449768.84046  -7316139.27343  24707373.2034                   24707375.6374
 -18662221.52047 -14521146.66846  21474021.2424                   21474020.0474
 -22064620.31647 -17177790.09045  22415055.2584                   22415052.7544
 -14087197.02047 -10954377.96544  23395628.7344                   23395632.1684
 -24979012.39848 -19449833.23447  20548809.5314                   20548807.1524
  -5289239.55546  -4115787.24244  23817052.3754                   23817049.3874
 11  9 22  1 31  0.0000000  0 10G02G15G30G18G12G26G05G25G29G21
  -3180251.58246  -2444131.25444  23384414.8524                   23384412.9384
 -14267927.93048 -11103466.68446  21766122.4774                   21766120.3674
  -8325920.77746  -6469995.69144  23432663.5944                   23432665.0434
  -3417442.67247  -2652042.02744  23443192.5784                   23443193.1134
  -9383237.23446  -7264296.62143  24720033.3524                   24720035.6844
 -18720665.94947 -14566687.73846  21462899.9304                   21462897.9614
 -22010033.21148 -17135254.68046  22425443.1484                   22425440.5394
 -14034858.51647 -10913594.77045  23405588.3444                   23405591.7234
 -25036866.29348 -19494914.16047  20537800.0944                   20537798.3244
  -5378032.09446  -4184976.09444  23800155.1484                   23800153.2304
 11  9 22  1 31 30.0000000  0 10G02G15G30G18G12G26G05G25G29G21
  -3147437.73046  -2418562.01644  23390659.1484                   23390656.5904
 -14368194.96548 -11181596.74246  21747042.0394                   21747039.9264
  -8293277.83246  -6444559.69144  23438876.4774                   23438877.1564
  -3517389.68747  -2729922.67244  23424173.3054                   23424173.4804
  -9316808.62546  -7212534.25043  24732674.5084                   24732677.3284
 -18778466.96948 -14611727.44946  21451900.3834                   21451898.9694
 -21955303.87548 -17092608.43046  22435857.8524                   22435855.4414
 -13982362.74647 -10872689.02745  23415578.5004                   23415581.4964
 -25094237.27748 -19539618.79347  20526882.9224                   20526880.7034
  -5466852.74246  -4254186.80144  23783253.1024                   23783251.9104
 11  9 22  1 32  0.0000000  0 10G02G15G30G18G12G26G05G25G29G21
  -3114479.75846  -2392880.50444  23396930.5394                   23396928.1414
 -14468068.04748 -11259419.85246  21728037.0314                   21728035.1844
  -8260318.58246  -6418877.18744  23445148.8674                   23445148.2344
  -3617090.99647  -2807611.82444  23405201.1174                   23405201.0084
  -9250484.05946  -7160852.93743  24745295.5784                   24745298.2544
 -18835621.02048 -14656263.02046  21441024.3594                   21441022.5314
 -21900432.55148 -17049851.54745  22446299.0084                   22446297.4534
 -13929711.14147 -10831661.86745  23425597.6954                   23425601.0634
 -25151122.17248 -19583944.65247  20516057.8524                   20516055.9224
  -5555699.85247  -4323418.18444  23766346.2274                   23766343.3054
 11  9 22  1 32 30.0000000  0 10G02G15G30G18G12G26G05G25G29G21
  -3081376.10546  -2367085.46944  23403231.2034                   23403226.8794
 -14567543.21948 -11336932.86746  21709107.2814                   21709105.3794
  -8227044.87946  -6392949.67244  23451479.2424                   23451480.0514
  -3716544.83247  -2885108.12944  23386275.3984                   23386274.2894
  -9184264.55146  -7109253.36343  24757896.5554                   24757898.5164
 -18892125.27347 -14700292.25446  21430272.2194                   21430269.3634
 -21845420.21547 -17006984.77746  22456767.4694                   22456766.0744
 -13876905.62547 -10790514.77045  23435646.2114                   23435649.6484
 -25207517.89548 -19627889.34447  20505326.4694                   20505323.9844
  -5644572.13747  -4392669.17244  23749433.8364                   23749432.2304
 11  9 22  1 33  0.0000000  0 10G02G15G30G18G12G26G05G25G29G21
  -3048128.62146  -2341178.32844  23409557.3524                   23409553.1524
 -14666619.55148 -11414135.10946  21690253.8134                   21690251.2704
  -8193461.77746  -6366781.07044  23457870.1094                   23457871.2344
  -3815752.62947  -2962412.73444  23367397.0864                   23367396.0784
  -9118154.73446  -7057739.34043  24770477.4144                   24770478.7034
 -18947979.43447 -14743814.92646  21419643.1954                   21419641.1644
 -21790270.93447 -16964011.32446  22467262.4144                   22467260.6804
 -13823951.29747 -10749251.70345  23445722.7584                   23445725.3404
 -25263424.85248 -19671453.18747  20494687.4694                   20494685.2344
  -5733471.59847  -4461941.31644  23732516.7894                   23732514.9264
 11  9 22  1 33 30.0000000  0 10G02G15G30G18G12G26G05G25G29G21
  -3014736.43046  -2315158.46144  23415911.8754                   23415907.9384
 -14765294.11748 -11491024.28146  21671476.2584                   21671474.4884
  -8159572.22746  -6340373.65244  23464318.7974                   23464319.4344
  -3914713.59447  -3039524.99244  23348565.4774                   23348565.0944
  -9052157.61746  -7006313.12143  24783036.3984                   24783039.2464
 -19003181.96547 -14786829.82446  21409138.6254                   21409136.1724
 -21734986.73047 -16920932.73845  22477782.8204                   22477780.5204
 -13770851.22747 -10707875.08244  23455826.7664                   23455830.2114
 -25318840.98848 -19714634.57047  20484142.2584                   20484140.1604
  -5822398.12147  -4531234.54344  23715594.3284                   23715592.5314
 11  9 22  1 34  0.0000000  0 10G02G15G30G18G12G26G05G25G29G21
  -2981200.05146  -2289026.18044  23422293.5084                   23422290.7774
 -14863565.26248 -11567599.10246  21652776.2034                   21652774.6054
  -8125379.84046  -6313730.27044  23470825.9224                   23470825.2234
  -4013428.18447  -3116445.25044  23329780.3674                   23329779.2344
  -8986276.26646  -6954977.12543  24795572.9064                   24795576.3014
 -19057731.76248 -14829336.11746  21398757.7974                   21398756.4964
 -21679570.16048 -16877750.98846  22488327.7114                   22488325.4534
 -13717609.18447 -10666387.85944  23465959.3364                   23465962.2584
 -25373765.48048 -19757432.85547  20473690.3054                   20473688.2194
  -5911352.29747  -4600549.35944  23698666.8674                   23698664.2194
 11  9 22  1 34 30.0000000  0 10G02G15G30G18G12G26G05G25G29G21
  -2947517.09047  -2262779.74244  23428703.9064                   23428701.1214
 -14961427.84447 -11643855.56646  21634153.4224                   21634151.6684
  -8090885.73446  -6286851.77344  23477390.2664                   23477390.5164
  -4111893.54746  -3193171.30544  23311042.4304                   23311041.7034
  -8920510.43046  -6903731.16443  24808088.2194                   24808090.3674
 -19111624.75448 -14871330.59445  21388502.2114                   21388500.5634
 -21624021.37947 -16834466.21945  22498898.1414                   22498896.0664
 -13664226.19947 -10624790.77344  23476117.9774                   23476120.6374
 -25428194.57048 -19799845.10547  20463332.7584                   20463330.6374
  -6000331.87547  -4669884.00444  23681734.8984                   23681732.6254
 11  9 22  1 35  0.0000000  0 10G02G15G30G18G12G26G05G25G29G21
  -2913688.94146  -2236420.14544  23435140.6564                   23435136.6994
 -15058880.57047 -11719792.67646  21615608.4614                   21615606.6994
  -8056094.61347  -6259741.84844  23484010.8054                   23484012.0204
  -4210111.00046  -3269704.19144  23292352.2584                   23292351.4264
  -8854865.04346  -6852579.13743  24820580.4304                   24820582.9924
 -19164860.96548 -14912813.31646  21378371.8754                   21378370.0984
 -21568343.83247 -16791081.14145  22509493.9384                   22509491.7974
 -13610707.10247 -10583087.63345  23486302.7114                   23486305.8754
 -25482128.17248 -19841871.28147  20453069.4454                   20453067.2194
  -6089338.60547  -4739239.76244  23664797.3594                   23664795.4064
 11  9 22  1 35 30.0000000  0 10G02G15G30G18G12G26G05G25G29G21
  -2879715.47747  -2209947.30544  23441605.7584                   23441601.6174
 -15155921.10548 -11795408.57846  21597142.3524                   21597140.5944
  -8021009.53946  -6232402.83644  23490686.7974                   23490687.5904
  -4308079.93747  -3346043.40244  23273709.3524                   23273709.1844
  -8789342.63745  -6801522.88343  24833048.1334                   24833051.9614
 -19217438.60948 -14953782.85946  21368366.5164                   21368364.9104
 -21512539.79747 -16747597.48445  22520112.8984                   22520110.1884
 -13557054.93447 -10541280.80945  23496511.9384                   23496515.0354
 -25535564.63348 -19883510.06247  20442900.9844                   20442898.9104
  -6178372.25447  -4808616.48844  23647855.2664                   23647852.6954
 11  9 22  1 36  0.0000000  0  9G02G15G30G18G26G05G25G29G21
  -2845594.84846  -2183359.79744  23448097.5004                   23448095.6994
 -15252545.37548 -11870700.12546  21578755.3204                   21578753.5394
  -7985632.56247  -6204836.40644  23497419.3204                   23497419.6294
  -4405798.50047  -3422187.57444  23255114.1484                   23255112.7464
 -19269354.96948 -14994237.11746  21358487.4774                   21358485.6174
 -21456610.38347 -16704016.10545  22530756.0084                   22530752.5044
 -13503271.77747 -10499371.90245  23506746.7894                   23506749.7974
 -25588501.56248 -19924759.59447  20432827.4774                   20432825.3484
  -6267431.68047  -4878013.34444  23630907.4384                   23630905.2934
 11  9 22  1 36 30.0000000  0  9G02G15G30G18G26G05G25G29G21
  -2811326.20347  -2156656.96144  23454619.2504                   23454616.6764
 -15348750.12548 -11945664.77046  21560448.0634                   21560446.5434
  -7949965.99647  -6177044.27344  23504206.0164                   23504206.8594
  -4503266.15647  -3498136.24644  23236566.8984                   23236565.5984
 -19320607.95748 -15034174.48046  21348733.9774                   21348732.0744
 -21400556.87147 -16660338.03945  22541422.2734                   22541419.3134
 -13449359.98847 -10457362.77745  23517005.2274                   23517008.9844
 -25640936.36348 -19965617.85247  20422849.3594                   20422847.1684
  -6356516.39547  -4947429.91044  23613954.9924                   23613952.4804
 11  9 22  1 37  0.0000000  0  9G02G15G30G18G26G05G25G29G21
  -2776901.78547  -2129832.74244  23461170.3594                   23461165.7934
 -15444525.62148 -12020294.95346  21542222.5164                   21542220.2974
  -7914005.58647  -6149023.21544  23511049.0004                   23511051.0704
  -4600474.97747  -3573883.16844  23218067.4304                   23218066.5164
 -19371188.40648 -15073587.77046  21339109.0164                   21339107.3484
 -21344373.63747 -16616558.88745  22552114.1724                   22552111.1414
 -13395315.41447 -10415250.19145  23527290.2894                   23527293.8874
 -25692860.28148 -20006078.03147  20412968.5944                   20412966.0274
  -6445618.47347  -5016860.03144  23596999.1564                   23596997.0434
 11  9 22  1 37 30.0000000  0  9G02G15G30G18G26G05G25G29G21
  -2742318.77047  -2102884.94544  23467751.4304                   23467747.5864
 -15539865.87948 -12094585.97746  21524079.5944                   21524077.9884
  -7877751.64847  -6120773.43744  23517948.1334                   23517949.2734
  -4697421.51647  -3649425.78144  23199619.4144                   23199617.2814
 -19421091.93447 -15112473.60246  21329612.8594                   21329610.9384
 -21288060.09047 -16572678.21145  22562830.0004                   22562828.1374
 -13341138.18447 -10373034.25045  23537599.4924                   23537603.4534
 -25744268.94547 -20046136.70747  20403186.2114                   20403183.4844
  -6534735.15247  -5086301.48044  23580040.6414                   23580039.0084
 11  9 22  1 38  0.0000000  0  9G02G15G30G18G26G05G25G29G21
  -2707578.44147  -2075814.55544  23474361.8674                   23474359.1024
 -15634770.16047 -12168537.27346  21506020.0314                   21506018.5594
  -7841209.16046  -6092298.78544  23524901.9614                   23524903.2504
  -4794107.31647  -3724765.21544  23181221.3754                   23181219.7974
 -19470318.90648 -15150832.23046  21320244.9534                   21320243.5784
 -21231619.80947 -16528698.76645  22573570.3284                   22573568.0944
 -13286833.40247 -10330718.89844  23547933.6954                   23547936.1374
 -25795162.58648 -20085794.06247  20393500.9534                   20393498.6374
  -6623868.07047  -5155755.62544  23563079.2034                   23563076.6134
 11  9 22  1 38 30.0000000  0  9G02G15G30G18G26G05G25G29G21
  -2672683.43747  -2048623.61744  23481002.5234                   23480999.3874
 -15729238.93448 -12242149.24246  21488043.1414                   21488041.3404
  -7804384.04346  -6063603.93044  23531909.1024                   23531909.5704
  -4890534.74647  -3799903.31244  23162871.2894                   23162870.2034
 -19518870.70348 -15188664.77346  21311006.2664                   21311003.9614
 -21175057.95347 -16484624.60945  22584333.3204                   22584331.8594
 -13232407.03947 -10288308.75044  23558291.0234                   23558293.2624
 -25845542.52048 -20125051.11347  20383913.9144                   20383911.9804
  -6713019.85247  -5225224.50844  23546113.7734                   23546111.5434
 11  9 22  1 39  0.0000000  0  9G02G15G30G18G26G05G25G29G21
  -2637636.08647  -2021313.98844  23487671.6024                   23487667.9614
 -15823272.02048 -12315421.69946  21470149.0554                   21470147.1134
  -7767282.12147  -6034693.37144  23538968.8984                   23538970.5514
  -4986705.81247  -3874841.66444  23144570.1024                   23144568.9224
 -19566748.44947 -15225972.06646  21301895.1174                   21301893.4104
 -21118379.35547 -16440459.46945  22595119.2504                   22595117.2274
 -13177864.85947 -10245808.37944  23568669.4844                   23568672.3754
 -25895410.03548 -20163908.89547  20374424.6254                   20374422.2894
  -6802193.50847  -5294710.41844  23529145.0554                   23529142.6024
 11  9 22  1 39 30.0000000  0  9G02G15G30G18G26G05G25G29G21
  -2602437.09447  -1993886.21944  23494370.1724                   23494366.3404
 -15916868.13347 -12388353.64546  21452338.3594                   21452336.5164
  -7729907.84447  -6005570.60544  23546082.0944                   23546082.6914
  -5082621.56247  -3949581.07444  23126318.0314                   23126316.4924
 -19613952.12548 -15262754.10546  21292913.1954                   21292909.7544
 -21061586.84847 -16396205.54345  22605926.2424                   22605923.7154
 -13123211.18047 -10203221.15244  23579070.0784                   23579073.4224
 -25944764.91448 -20202367.21947  20365032.6334                   20365030.3914
  -6891389.75447  -5364213.91444  23512170.9144                   23512169.3554
 11  9 22  1 40  0.0000000  0  9G02G15G30G18G26G05G25G29G21
  -2567086.95747  -1966340.68044  23501097.1334                   23501094.1994
 -16010025.14848 -12460943.44946  21434611.1334                   21434609.2154
  -7692264.70747  -5976238.31244  23553245.1724                   23553245.6884
  -5178282.34447  -4024121.80944  23108114.3594                   23108112.9884
 -19660480.71548 -15299010.09446  21284058.3754                   21284055.9224
 -21004683.03947 -16351864.93045  22616754.4614                   22616752.4844
 -13068449.64847 -10160549.87144  23589491.3594                   23589493.3594
 -25993606.00448 -20240425.18447  20355738.2584                   20355736.4304
  -6980608.83247  -5433735.21544  23495193.1254                   23495191.1884
 11  9 22  1 40 30.0000000  0  9G02G15G30G18G26G05G25G29G21
  -2531588.39547  -1938679.44144  23507851.9384                   23507848.2664
 -16102743.56248 -12533191.50046  21416967.1254                   21416965.0904
  -7654358.91447  -5946701.37544  23560459.0864                   23560459.6134
  -5273690.40647  -4098465.63744  23089958.5554                   23089957.3404
 -19706335.77348 -15334741.28146  21275332.2194                   21275330.6724
 -20947672.86747 -16307441.42245  22627603.4924                   22627600.9804
 -13013586.31247 -10117799.24244  23599930.8364                   23599934.0274
 -26041934.85948 -20278084.02347  20346541.8834                   20346539.3594
  -7069853.94147  -5503276.80144  23478211.0634                   23478207.7234
 11  9 22  1 41  0.0000000  0  9G02G15G30G18G26G05G25G29G21
  -2495937.42247  -1910899.46544  23514636.0554                   23514632.7934
 -16195017.22347 -12605092.96146  21399407.7974                   21399406.5864
  -7616190.14847  -5916959.49244  23567722.0394                   23567722.1524
  -5368841.75447  -4172609.41044  23071851.9694                   23071850.6684
 -19751512.60248 -15369943.96146  21266735.7274                   21266733.7424
 -20890554.94147 -16262933.94945  22638473.1884                   22638469.9414
 -12958620.80147 -10074969.02744  23610390.2344                   23610394.0824
 -26089746.68748 -20315339.96547  20337443.6254                   20337441.2074
  -7159121.10247  -5572835.58244  23461223.3134                   23461221.7504
 11  9 22  1 41 30.0000000  0  9G02G15G30G18G26G05G25G29G21
  -2460134.24647  -1883000.92644  23521448.7504                   23521446.0394
 -16286843.60948 -12676645.92646  21381934.0314                   21381931.8404
  -7577761.62947  -5887015.23044  23575034.6484                   23575035.8834
  -5463736.46547  -4246553.23444  23053794.1334                   23053793.2584
 -19796009.98848 -15404617.20746  21258267.5634                   21258266.3554
 -20833331.54747 -16218344.28145  22649361.9454                   22649359.3834
 -12903556.32447 -10032061.70345  23620869.0394                   23620872.6054
 -26137040.18448 -20352192.01247  20328443.9614                   20328441.3754
  -7248410.41847  -5642411.62144  23444232.3914                   23444230.5354
 11  9 22  1 42  0.0000000  0  9G02G15G30G18G26G05G25G29G21
  -2424181.72746  -1854985.99244  23528290.2974                   23528287.4104
 -16378223.93048 -12747851.29346  21364545.0704                   21364542.4344
  -7539079.99247  -5856873.75044  23582395.4844                   23582396.7234
  -5558377.77747  -4320299.59444  23035784.0474                   23035782.3324
 -19839829.99648 -15438762.62546  21249929.6024                   21249927.2974
 -20776007.81647 -16173676.43045  22660270.0004                   22660267.7154
 -12848399.43747  -9989082.34044  23631365.2814                   23631368.8324
 -26183817.25448 -20388641.65647  20319542.6254                   20319540.1374
  -7337725.51647  -5712007.77744  23427236.3834                   23427233.7544
 11  9 22  1 42 30.0000000  0  9G02G15G30G18G26G05G25G29G21
  -2388079.48846  -1826854.43044  23535161.1094                   23535158.8284
 -16469155.38748 -12818706.90646  21347241.2344                   21347238.9774
  -7500148.19546  -5826537.36344  23589802.9844                   23589804.2934
  -5652764.77047  -4393847.82044  23017822.7734                   23017821.1024
 -19882971.33248 -15472379.20346  21241720.0634                   21241718.2234
 -20718585.52347 -16128931.78945  22671197.0234                   22671195.1954
 -12793153.10247  -9946033.32844  23641877.0554                   23641881.8134
 -26230076.53948 -20424687.82447  20310739.2734                   20310737.4574
  -7427065.69947  -5781623.43444  23410235.5784                   23410232.6604
 11  9 22  1 43  0.0000000  0  9G02G15G30G18G26G05G25G29G21
  -2351826.03947  -1798604.96144  23542059.7894                   23542056.4574
 -16559634.19948 -12889209.80546  21330023.6094                   21330021.6214
  -7460968.28146  -5796007.64844  23597258.0314                   23597260.8054
  -5746896.10947  -4467196.82844  22999909.7114                   22999908.0204
 -19925431.68048 -15505465.14846  21233639.7424                   21233637.9694
 -20661065.52047 -16084111.01645  22682142.7584                   22682141.0554
 -12737819.27347  -9902916.12544  23652407.7734                   23652411.8284
 -26275815.32848 -20460328.42247  20302035.4454                   20302033.5904
  -7516429.63747  -5851257.60944  23393229.9534                   23393226.7664
 11  9 22  1 43 30.0000000  0  9G02G15G30G18G26G05G25G29G21
  -2315420.16047  -1770236.72344  23548987.4694                   23548984.5554
 -16649657.04347 -12959357.41046  21312892.6804                   21312890.5084
  -7421542.44147  -5765286.27744  23604762.4534                   23604763.5204
  -5840770.42247  -4540345.54744  22982046.0314                   22982044.7034
 -19967208.93448 -15538018.80146  21225689.5784                   21225687.4574
 -20603448.76647 -16039214.83245  22693107.3594                   22693104.5314
 -12682400.00047  -9859732.33244  23662954.0314                   23662956.0664
 -26321031.60248 -20495561.85547  20293431.3754                   20293429.4264
  -7605816.24647  -5920909.49244  23376220.3674                   23376216.9534
 11  9 22  1 44  0.0000000  0  9G02G15G30G18G26G05G25G29G21
  -2278863.57847  -1741751.10244  23555943.9224                   23555940.5394
 -16739223.28947 -13029149.22746  21295848.7274                   21295846.8134
  -7381875.77047  -5734377.27044  23612310.4534                   23612311.7974
  -5934389.54747  -4613295.44144  22964231.6094                   22964230.3444
 -20008303.82848 -15570040.77346  21217869.8444                   21217867.6414
 -20545739.01247 -15994246.19545  22704089.1024                   22704086.7774
 -12626900.34847  -9816485.87144  23673515.5864                   23673516.8914
 -26365725.81648 -20530388.49647  20284926.3834                   20284924.2424
  -7695226.95747  -5990580.09445  23359206.3204                   23359204.0784
 11  9 22  1 44 30.0000000  0  9G02G15G30G18G26G05G25G29G21
  -2242154.62946  -1713146.75044  23562928.9534                   23562926.2344
 -16828329.09447 -13098582.25046  21278892.2894                   21278890.4774
  -7341970.02047  -5703281.92244  23619904.9064                   23619905.3594
  -6027751.73847  -4686045.10944  22946464.6174                   22946464.1884
 -20048713.77348 -15601528.99246  21210179.6094                   21210177.8284
 -20487936.88347 -15949205.59045  22715088.5944                   22715086.5314
 -12571321.99247  -9773178.10244  23684091.8204                   23684094.2934
 -26409895.43748 -20564806.35947  20276521.1174                   20276518.8914
  -7784660.40647  -6060268.42244  23342187.4304                   23342185.4454
 11  9 22  1 45  0.0000000  0  9G02G15G30G18G26G05G25G29G21
  -2205293.12946  -1684423.52344  23569943.3134                   23569941.1954
 -16916972.14848 -13167654.69146  21262024.3754                   21262022.8874
  -7301828.64847  -5672002.99644  23627543.6414                   23627544.4534
  -6120856.77747  -4758594.41444  22928747.6174                   22928745.8204
 -20088438.24648 -15632483.09446  21202620.5084                   21202618.0004
 -20430044.32447 -15904094.50045  22726104.3834                   22726102.9144
 -12515668.19547  -9729811.57444  23694681.7584                   23694685.1454
 -26453539.24648 -20598814.50047  20268216.2504                   20268213.5234
  -7874116.75847  -6129974.59044  23325164.8444                   23325161.7464
 11  9 22  1 45 30.0000000  0  9G02G15G30G18G26G05G25G29G21
  -2168278.91047  -1655581.31244  23576987.5474                   23576983.9104
 -17005150.34448 -13236364.92246  21245244.4694                   21245242.5784
  -7261454.75447  -5640542.86344  23635226.0864                   23635227.1684
  -6213704.52747  -4830943.23044  22911078.7274                   22911077.2734
 -20127475.89548 -15662901.99646  21195192.0784                   21195188.9734
 -20372063.32847 -15858914.51645  22737138.4304                   22737135.9184
 -12459942.03946  -9686388.65644  23705286.2734                   23705289.8914
 -26496656.00848 -20632411.96947  20260010.9224                   20260008.7274
  -7963595.46147  -6199698.18744  23308136.9534                   23308134.4884
 11  9 22  1 46  0.0000000  0  9G02G15G30G18G26G05G25G29G21
  -2131111.63747  -1626619.80144  23584060.4304                   23584056.2624
 -17092860.63748 -13304710.54346  21228553.8834                   21228551.9654
  -7220851.22347  -5608903.80944  23642953.1094                   23642952.7274
  -6306294.37547  -4903091.09844  22893459.6564                   22893458.1884
 -20165825.76248 -15692784.95746  21187894.2424                   21187891.6054
 -20313995.42247 -15813666.79345  22748188.2734                   22748185.4734
 -12404146.32847  -9642911.57044  23715904.3134                   23715907.6644
 -26539243.90648 -20665597.33247  20251906.8914                   20251904.7274
  -8053096.04347  -6269438.82845  23291105.7664                   23291103.8054
 11  9 22  1 46 30.0000000  0  9G02G15G30G18G26G05G25G29G21
  -2093789.43447  -1597537.54744  23591162.2894                   23591159.9344
 -17180099.29747 -13372688.64846  21211952.8524                   21211950.6484
  -7180019.89847  -5577087.23844  23650723.0634                   23650722.8094
  -6398624.60547  -4975036.65645  22875890.0864                   22875888.9844
 -20203484.94948 -15722129.73046  21180727.7034                   21180725.8204
 -20255841.29747 -15768351.89845  22759254.3754                   22759252.0634
 -12348282.71547  -9599381.57444  23726534.1884                   23726538.4384
 -26581300.77748 -20698368.90647  20243903.6094                   20243901.1884
  -8142616.67247  -6339195.08245  23274070.4224                   23274068.1724
 11  9 22  1 47  0.0000000  0  9G02G15G30G18G26G05G25G29G21
  -2056314.63747  -1568336.41044  23598293.4454                   23598289.6804
 -17266866.44148 -13440299.34446  21195441.5234                   21195439.0594
  -7138966.29347  -5545097.42644  23658535.0234                   23658535.2974
  -6490697.46147  -5046781.64144  22858368.8834                   22858367.9184
 -20240455.44548 -15750937.89146  21173692.2424                   21173690.3164
 -20197605.21947 -15722973.14145  22770336.8134                   22770334.3054
 -12292356.66047  -9555802.91844  23737176.9534                   23737180.6214
 -26622827.69548 -20730727.52747  20236001.4694                   20235999.3674
  -8232159.91447  -6408968.91845  23257030.5634                   23257028.5824
 11  9 22  1 47 30.0000000  0  9G02G15G30G18G26G05G25G29G21
  -2018686.81647  -1539016.05544  23605454.3524                   23605450.6484
 -17353159.60547 -13507540.72746  21179020.0394                   21179018.3484
  -7097693.58647  -5512936.91444  23666389.0784                   23666389.9614
  -6582512.60247  -5118325.84844  22840897.2734                   22840895.5314
 -20276736.05148 -15779208.45746  21166788.1564                   21166786.0744
 -20139288.68047 -15677531.66845  22781433.6174                   22781431.7504
 -12236371.14847  -9512177.94144  23747830.9844                   23747834.1094
 -26663823.29748 -20762672.13747  20228200.2814                   20228197.5394
  -8321725.26247  -6478759.97745  23239986.5784                   23239983.3834
 11  9 22  1 48  0.0000000  0  9G02G15G30G18G26G05G25G29G21
  -1980902.04347  -1509573.38744  23612644.4064                   23612641.1294
 -17438973.05948 -13574408.28546  21162690.6484                   21162688.9344
  -7056201.51647  -5480605.44544  23674284.6414                   23674285.4494
  -6674066.16847  -5189666.18744  22823474.5784                   22823473.6484
 -20312322.43748 -15806938.08646  21160016.7274                   21160014.7114
 -20080890.16847 -15632026.32445  22792546.6484                   22792544.1684
 -12180325.84447  -9468506.37944  23758496.1094                   23758499.2894
 -26704283.04748 -20794199.18747  20220501.1254                   20220498.5204
  -8411309.07847  -6548565.43044  23222939.5314                   23222937.1884
 11  9 22  1 48 30.0000000  0  9G02G15G30G18G26G05G25G29G21
  -1942962.89546  -1480010.41844  23619863.3594                   23619860.4534
 -17524306.94148 -13640902.16046  21146452.3674                   21146450.1134
  -7014495.57047  -5448107.37544  23682220.6564                   23682221.8754
  -6765360.53547  -5260804.52745  22806102.2114                   22806102.2624
 -20347216.25848 -15834128.03946  21153376.2114                   21153374.3524
 -20022414.17247 -15586460.60945  22803674.9384                   22803671.8324
 -12124226.09847  -9424792.39144  23769171.4454                   23769175.1764
 -26744208.23848 -20825309.70747  20212903.4924                   20212901.1334
  -8500913.28147  -6618386.77745  23205888.6174                   23205886.0084
 11  9 22  1 49  0.0000000  0  9G02G15G30G18G26G05G25G29G21
  -1904869.04347  -1450326.91444  23627113.4694                   23627109.6884
 -17609158.94548 -13707020.54346  21130305.1804                   21130303.1334
  -6972579.14847  -5415445.24644  23690197.5784                   23690199.3244
  -6856395.53147  -5331740.76645  22788778.4694                   22788776.8794
 -20381416.67248 -15860777.66846  21146868.2114                   21146865.9964
 -19963862.26247 -15540835.74245  22814816.0084                   22814814.2504
 -12068075.02347  -9381038.42644  23779856.3134                   23779859.7154
 -26783597.95348 -20856002.97747  20205407.7584                   20205405.5204
  -8590537.87147  -6688224.00045  23188833.3204                   23188831.1994
 11  9 22  1 49 30.0000000  0  9G02G15G30G18G26G05G25G29G21
  -1866616.61747  -1420519.81244  23634392.0474                   23634389.0984
 -17693522.85548 -13772758.60246  21114251.0234                   21114248.8364
  -6930451.68747  -5382618.68044  23698213.8444                   23698215.4024
  -6947167.26247  -5402471.86745  22771505.4224                   22771503.5234
 -20414919.43748 -15886883.70346  21140493.0084                   21140490.5744
 -19905232.70747 -15495150.41445  22825972.7814                   22825970.8094
 -12011872.02047  -9337243.96944  23790551.9224                   23790554.7424
 -26822447.14148 -20886275.05947  20198014.9924                   20198013.1054
  -8680178.73447  -6758073.89144  23171774.8674                   23171772.6054
 11  9 22  1 50  0.0000000  0  9G02G15G30G18G26G05G25G29G21
  -1828207.87947  -1390590.91444  23641700.7274                   23641697.5474
 -17777399.09048 -13838116.65246  21098290.2664                   21098287.6254
  -6888118.87147  -5349632.13644  23706269.6804                   23706271.3714
  -7037678.03947  -5472999.64144  22754281.9454                   22754279.3954
 -20447726.19948 -15912447.38746  21134249.7814                   21134247.7154
 -19846529.90247 -15449407.96945  22837143.8364                   22837140.8164
 -11955622.61747  -9293413.30944  23801255.3524                   23801258.7034
 -26860757.23848 -20916127.07447  20190725.0864                   20190722.5594
  -8769838.01247  -6827938.13344  23154713.0864                   23154710.5204
 11  9 22  1 50 30.0000000  0  9G02G15G30G18G26G05G25G29G21
  -1789643.84447  -1360541.04344  23649040.0704                   23649036.1414
 -17860786.57048 -13903093.85546  21082421.8984                   21082419.4454
  -6845585.06647  -5316488.94144  23714363.8984                   23714365.7504
  -7127928.69147  -5543324.72344  22737107.9224                   22737105.9694
 -20479837.47747 -15937469.10946  21128139.3524                   21128137.0204
 -19787756.73047 -15403610.68745  22848328.5634                   22848325.8554
 -11899330.98047  -9249549.79744  23811967.4384                   23811971.8484
 -26898528.42648 -20945559.15647  20183537.2584                   20183534.6564
  -8859516.57847  -6897817.39844  23137648.0234                   23137645.6414
 11  9 22  1 51  0.0000000  0  9G02G15G30G18G26G05G25G29G21
  -1750925.72747  -1330371.06244  23656407.6334                   23656403.6604
 -17943684.89548 -13967689.89846  21066646.8594                   21066644.4104
  -6802855.12147  -5283192.88344  23722495.5004                   23722496.0084
  -7217920.82047  -5613448.30544  22719982.3524                   22719980.6684
 -20511253.97347 -15961949.46546  21122160.8754                   21122158.5824
 -19728916.32447 -15357761.04345  22859525.3984                   22859522.8484
 -11843001.69547  -9205656.96544  23822686.8984                   23822691.3204
 -26935761.24248 -20974571.72347  20176452.1954                   20176450.0204
  -8949215.71947  -6967712.71145  23120577.9614                   23120575.6484
 11  9 22  1 51 30.0000000  0  9G02G15G30G18G26G05G25G29G21
  -1712050.87146  -1300078.96544  23663804.6644                   23663801.5274
 -18026089.19548 -14031900.99246  21050965.6094                   21050963.4694
  -6759929.75047  -5249744.57044  23730663.5234                   23730664.7664
  -7307651.77047  -5683368.35244  22702906.8204                   22702905.5084
 -20541972.88748 -15985886.24646  21116315.2814                   21116312.9184
 -19670008.18047 -15311858.57845  22870735.2584                   22870732.3094
 -11786635.41047  -9161735.34844  23833413.5164                   23833417.2584
 -26972452.19948 -21003162.05947  20169469.9694                   20169467.2584
  -9038932.95347  -7037622.12945  23103506.4774                   23103502.7584
 11  9 22  1 52  0.0000000  0  9G02G15G30G18G26G05G25G29G21
  -1673019.19946  -1269664.71544  23671232.2734                   23671228.8594
 -18107997.23448 -14095725.38746  21035379.1724                   21035376.6804
  -6716812.28947  -5216146.56644  23738868.3674                   23738869.9964
  -7397121.37547  -5753084.79345  22685881.4224                   22685880.0944
 -20571993.67247 -16009279.03946  21110602.8284                   21110600.2734
 -19611034.50847 -15265905.09045  22881957.5634                   22881955.3484
 -11730235.10947  -9117787.12544  23844145.8444                   23844150.0824
 -27008600.58648 -21031329.60947  20162591.0234                   20162588.8874
  -9128668.14147  -7107545.50845  23086429.5704                   23086427.0984
 11  9 22  1 52 30.0000000  0  9G02G15G30G18G26G05G25G29G21
  -1633830.30946  -1239127.90643  23678689.9534                   23678686.9924
 -18189406.54348 -14159161.14846  21019888.0554                   21019884.8484
  -6673505.61747  -5182401.13344  23747109.2504                   23747109.1254
  -7486329.54347  -5822597.50845  22668905.9844                   22668903.6134
 -20601315.59447 -16032127.27046  21105022.5864                   21105020.3754
 -19551996.62947 -15219901.55545  22893192.0234                   22893189.9264
 -11673803.61346  -9073814.66044  23854884.3914                   23854888.5274
 -27044204.81648 -21059073.15247  20155815.9064                   20155814.0824
  -9218420.06647  -7177481.94945  23069350.8914                   23069347.5434
 11  9 22  1 53  0.0000000  0  9G02G15G30G18G26G05G25G29G21
  -1594485.00446  -1208469.20344  23686176.8364                   23686172.8014
 -18270316.23448 -14222207.60246  21004490.8834                   21004487.8134
  -6630014.04347  -5148511.61743  23755385.4384                   23755386.1094
  -7575276.88347  -5891906.99645  22651979.5084                   22651976.6454
 -20629939.35547 -16054431.46546  21099575.8674                   21099574.2774
 -19492897.27747 -15173850.11345  22904438.4694                   22904436.0124
 -11617345.07046  -9029821.11344  23865628.3524                   23865632.6254
 -27079265.43748 -21086393.10247  20149143.9064                   20149141.7704
  -9308190.33646  -7247432.84244  23052267.2194                   23052265.0394
 11  9 22  1 53 30.0000000  0  9G02G15G30G18G26G05G25G29G21
  -1554983.34446  -1177688.72344  23693694.0084                   23693690.0664
 -18350724.23048 -14284863.14146  20989189.6724                   20989187.3014
  -6586340.75447  -5114480.51243  23763695.5554                   23763698.0554
  -7663963.41447  -5961013.26244  22635102.9224                   22635101.0514
 -20657864.11347 -16076190.97746  21094261.9144                   21094259.6644
 -19433738.22347 -15127752.13345  22915696.0394                   22915693.5044
 -11560862.38346  -8985808.68744  23876377.0554                   23876380.4844
 -27113781.31648 -21113288.57047  20142576.4224                   20142573.7664
  -9397977.11357  -7317396.32054  23035181.8134                   23035179.2114
 11  9 22  1 54  0.0000000  0  9G02G15G30G18G26G05G25G29G21
  -1515322.21546  -1146783.96144  23701240.9304                   23701238.2464
 -18430625.56248 -14347123.86346  20973984.8914                   20973982.6524
  -6542486.15247  -5080308.12543  23772041.2344                   23772042.5704
  -7752386.59847  -6029914.30944  22618275.6414                   22618273.9534
 -20685086.89847 -16097403.52746  21089081.9774                   21089079.7274
 -19374518.78147 -15081607.12945  22926965.0944                   22926963.8094
 -11504355.94947  -8941777.81644  23887129.8914                   23887133.5784
 -27147748.75448 -21139756.68047  20136111.9144                   20136109.5984
  -9487778.87547  -7387371.59845  23018093.2344                   23018090.4384
 11  9 22  1 54 30.0000000  0  9G02G15G30G18G26G05G25G29G21
  -1475503.10546  -1115756.12144  23708818.4144                   23708815.2424
 -18510019.73448 -14408989.40646  20958876.7814                   20958874.4264
  -6498455.19947  -5045998.35544  23780421.0554                   23780421.5234
  -7840547.53547  -6098611.01245  22601499.6094                   22601497.8594
 -20711609.09447 -16118070.11346  21084034.2114                   21084031.8594
 -19315241.74647 -15035417.25045  22938245.1724                   22938242.6804
 -11447830.25846  -8897731.91444  23897885.9774                   23897890.2854
 -27181168.57848 -21165798.07447  20129752.5004                   20129750.0554
  -9577596.03547  -7457358.92245  23001001.2194                   23000998.4264
 11  9 22  1 55  0.0000000  0  9G02G15G30G18G26G05G25G29G21
  -1435526.35546  -1084605.43744  23716425.9694                   23716422.0514
 -18588905.23448 -14470458.57846  20943865.1334                   20943862.4384
  -6454251.67247  -5011554.08644  23788832.0394                   23788833.3244
  -7928446.86747  -6167103.87145  22584772.8444                   22584771.1644
 -20737430.38347 -16138190.57046  21079120.8054                   21079118.2194
 -19255909.75447 -14989184.52345  22949535.2974                   22949533.0664
 -11391289.045 6                  23908645.930
 -27214040.55148 -21191412.57847  20123497.4534                   20123494.7304
  -9667429.05147  -7527358.59845  22983906.8754                   22983903.3714
 11  9 22  1 55 30.0000000  0  9G02G15G30G18G26G05G25G29G21
  -1395392.46546  -1053332.28544  23724063.4304                   23724060.2344
 -18667280.41848 -14531530.09846  20928950.8134                   20928947.9884
  -6409879.18747  -4976978.19544  23797276.0784                   23797277.3754
  -8016084.89847  -6235393.12145  22568096.2194                   22568094.1094
 -20762551.50847 -16157765.44546  21074340.3754                   21074337.8874
 -19196524.78547 -14942910.51245  22960835.8444                   22960833.6374
 -11334735.27746  -8809606.10554  23919407.5164                   23919411.3244
 -27246364.26248 -21216599.85547  20117346.0394                   20117343.5984
  -9757277.94547  -7597370.62545  22966809.0084                   22966805.4734
 11  9 22  1 56  0.0000000  0  9G02G15G30G18G26G05G25G29G21
  -1355102.72746  -1021937.68443  23731729.8054                   23731726.4264
 -18745144.92248 -14592203.68746  20914133.4694                   20914131.4104
  -6365342.66446  -4942274.50844  23805751.5554                   23805753.3484
  -8103463.46147  -6303480.20745  22551468.5314                   22551466.0474
 -20786973.66447 -16176795.66846  21069692.7584                   21069690.6254
 -19137090.54746 -14896598.10945  22972145.4694                   22972143.8134
 -11278174.16846  -8765532.61344  23930170.8674                   23930175.3014
 -27278140.47748 -21241360.53547  20111299.1414                   20111296.9024
  -9847144.12547  -7667396.14545  22949708.0234                   22949704.9734
 11  9 22  1 56 30.0000000  0  9G02G15G30G18G26G05G25G29G21
  -1314654.84046   -990419.84043  23739426.5864                   23739423.0084
 -18822494.41448 -14652475.98046  20899414.3754                   20899412.2154
  -6320642.89546  -4907443.56244  23814257.2894                   23814258.8364
  -8190580.10947  -6371363.18744  22534890.7274                   22534888.1994
 -20810694.01248 -16195279.01646  21065179.2424                   21065177.6094
 -19077606.00046 -14850246.52045  22983465.2734                   22983463.6604
 -11221606.02746  -8721453.63744  23940935.3674                   23940939.6604
 -27309366.00448 -21265692.09447  20105357.1334                   20105354.8914
  -9937024.76647  -7737432.93745  22932604.5474                   22932600.9924
 11  9 22  1 57  0.0000000  0  9G02G15G30G18G26G05G25G29G21
  -1274049.14146   -958779.09844  23747153.7194                   23747151.0664
 -18899327.60248 -14712345.93446  20884793.4454                   20884790.8404
  -6275783.59046  -4872488.32843  23822793.0704                   23822795.1604
  -8277435.25047  -6439042.38744  22518361.2814                   22518360.0084
 -20833712.94147 -16213215.82046  21060798.7664                   21060796.4304
 -19018073.55947 -14803857.60545  22994793.6484                   22994791.0554
 -11165034.48847  -8677372.03944  23951700.8674                   23951704.5124
 -27340040.42648 -21289594.23047  20099520.1724                   20099517.7384
 -10026919.94547  -7807481.06645  22915497.4384                   22915494.4494
 11  9 22  1 57 30.0000000  0  9G02G15G30G18G26G05G25G29G21
  -1233283.89147   -927013.97344  23754911.4844                   23754907.9144
 -18975640.89848 -14771810.79346  20870271.6884                   20870269.1454
  -6230766.57446  -4837410.21943  23831360.6094                   23831360.9694
  -8364027.42247  -6506516.73045  22501884.6884                   22501881.5944
 -20856028.92248 -16230604.85246  21056552.0864                   21056550.4804
 -18958493.68446 -14757431.73045  23006131.4304                   23006128.5824
 -11108460.95747  -8633288.85944  23962466.8284                   23962470.1454
 -27370162.54748 -21313065.99647  20093787.9384                   20093785.6254
 -10116827.82047  -7877539.09845  22898388.5314                   22898385.6414
 11  9 22  1 58  0.0000000  0  9G02G15G30G18G26G05G25G29G21
  -1192362.33647   -895127.07444  23762698.8594                   23762695.0354
 -19051435.91448 -14830871.80146  20855848.2274                   20855845.4064
  -6185598.47346  -4802214.30543  23839955.5394                   23839956.6134
  -8450359.86347  -6573788.69945  22485455.9774                   22485453.9264
 -20877645.10548 -16247448.60946  21052438.7504                   21052436.8524
 -18898870.93447 -14710972.43745  23017477.2664                   23017475.3164
 -11051891.80147  -8589209.07444  23973231.8984                   23973235.6804
 -27399734.05948 -21336108.71947  20088160.7344                   20088158.3284
 -10206751.39846  -7947609.38745  22881276.5084                   22881272.7154
 11  9 22  1 58 30.0000000  0  9G02G15G30G18G26G05G25G29G21
  -1151282.60947   -863116.89544  23770516.2114                   23770512.7114
 -19126708.68448 -14889525.85946  20841524.2504                   20841521.8284
  -6140280.46146  -4766901.61743  23848579.1484                   23848579.5824
  -8536430.70747  -6640856.79745  22469076.4144                   22469074.8324
 -20898559.52348 -16263745.51646  21048459.0164                   21048456.2234
 -18839205.38747 -14664479.80145  23028831.5474                   23028829.2194
 -10995328.10947  -8545133.53544  23983996.0004                   23983998.9734
 -27428752.68048 -21358720.62147  20082638.5944                   20082636.0784
 -10296688.36347  -8017690.06245  22864161.8594                   22864159.3204
 11  9 22  1 59  0.0000000  0  9G02G15G30G18G26G05G25G29G21
    465373.70346    396615.30944  24078154.9384                   24078151.8524
 -17626034.90248 -13720169.60946  21127093.0004                   21127090.3014
  -4519397.75046  -3503876.16043  24157023.1484                   24157023.2154
  -7046817.44947  -5480119.08245  22752540.7814                   22752539.3954
 -19343351.73048 -15051895.27046  21344404.7814                   21344402.5824
 -17204080.85547 -13390356.78945  23339985.5394                   23339983.8134
  -9363355.04347  -7273466.29744  24294549.2664                   24294553.8204
 -25881797.05548 -20153300.64147  20377014.5394                   20377012.0354
  -8811215.44547  -6860178.66045  23146838.3914                   23146834.6094
 11  9 22  1 59 30.0000000  0  9G02G15G30G18G26G05G25G29G21
    506768.75446    428871.18043  24086031.7894                   24086029.0204
 -17700258.89548 -13778006.44146  21112968.6884                   21112965.9774
  -4473791.30946  -3468338.63343  24165701.7274                   24165701.0784
  -7132366.64547  -5546780.70745  22736260.8984                   22736259.1254
 -19362864.02748 -15067099.64146  21340691.9844                   21340689.6134
 -17144336.00847 -13343802.35945  23351354.3754                   23351352.5744
  -9306812.56247  -7229407.29744  24305309.1644                   24305313.8634
 -25909709.43447 -20175050.53547  20371702.7424                   20371700.4264
  -8901179.27047  -6930280.32845  23129718.6564                   23129715.7934
 11  9 22  2  0  0.0000000  0  9G02G15G30G18G26G05G25G29G21
    548322.65146    461250.88744  24093940.4064                   24093937.5044
 -17773954.37548 -13835431.44546  21098944.8284                   21098942.2854
  -4428044.04346  -3432691.46543  24174407.2344                   24174408.0474
  -7217653.46947  -5613237.87545  22720031.6724                   22720029.5744
 -19381673.90248 -15081756.64146  21337112.2424                   21337109.9184
 -17084552.84047 -13297218.07845  23362731.0004                   23362729.0004
  -9250283.85947  -7185359.04744  24316066.1414                   24316070.1844
 -25937066.32448 -20196367.58247  20366496.9694                   20366494.8284
  -8991154.45347  -7000390.82445  23112596.9534                   23112593.9494
 11  9 22  2  0 30.0000000  0  9G02G15G30G18G26G05G25G29G21
    590035.48446    493754.35543  24101877.7194                   24101874.1484
 -17847120.08648 -13892443.65646  21085021.6804                   21085019.3954
  -4382159.67246  -3396937.48044  24183138.4774                   24183140.7154
  -7302679.17647  -5679491.60245  22703851.8284                   22703848.9144
 -19399781.63748 -15095866.53146  21333666.7504                   21333663.7424
 -17024732.87147 -13250605.12145  23374114.4384                   23374111.4344
  -9193772.21147  -7141324.05543  24326819.6174                   24326823.8054
 -25963867.48048 -20217251.59047  20361396.7034                   20361394.9414
  -9081140.82847  -7070510.03145  23095473.1024                   23095469.8134
 11  9 22  2  1  0.0000000  0  9G02G15G30G18G26G05G25G29G21
    631906.45746    526381.09843  24109846.0164                   24109841.1724
 -17919755.02748 -13949042.25846  21071199.6334                   21071197.3714
  -4336142.32847  -3361079.84843  24191895.5004                   24191896.8874
  -7387444.18447  -5745542.20345  22687721.6954                   22687719.0664
 -19417188.40648 -15109430.22746  21330353.9924                   21330351.9414
 -16964879.12947 -13203965.84045  23385503.9304                   23385501.0704
  -9137281.38747  -7097305.32843  24337569.6174                   24337574.2854
 -25990113.35948 -20237702.91847  20356402.6174                   20356400.3164
  -9171139.35547  -7140638.73845  23078346.7344                   23078343.6954
 11  9 22  2  1 30.0000000  0  9G02G15G30G18G26G05G25G29G21
    673935.30147    559130.85944  24117842.6564                   24117840.8874
 -17991857.32048 -14005225.82446  21057479.0394                   21057476.7034
  -4289995.26246  -3325121.11344  24200676.8134                   24200677.6214
  -7471948.65647  -5811389.76245  22671640.5164                   22671638.8674
 -19433894.47748 -15122447.93446  21327175.3284                   21327172.7304
 -16904993.22347 -13157301.52745  23396899.4224                   23396897.8014
  -9080814.57447  -7053305.27744  24348314.9844                   24348319.1644
 -26015803.44148 -20257721.15247  20351513.9924                   20351511.2894
  -9261149.16847  -7210776.21945  23061218.4384                   23061215.5514
 11  9 22  2  2  0.0000000  0  9G02G15G30G18G26G05G25G29G21
    716123.64546    592004.89843  24125870.2504                   24125868.3204
 -18063424.03548 -14060992.05546  21043860.5864                   21043858.3014
  -4243720.31246  -3289062.73444  24209482.7274                   24209483.9694
  -7556191.29347  -5877033.28145  22655609.7274                   22655607.7974
 -19449898.53948 -15134918.59846  21324130.1484                   21324127.0824
 -16845075.38747 -13110612.30945  23408302.0234                   23408299.5864
  -9024373.30547  -7009325.16444  24359055.1644                   24359059.1604
 -26040935.90248 -20277304.87547  20346731.3284                   20346728.8134
  -9351168.37947  -7280921.00045  23044088.6724                   23044085.8014
 11  9 22  2  2 30.0000000  0  9G02G15G30G18G26G05G25G29G21
    758471.11346    625002.90643  24133929.4144                   24133925.1414
 -18134453.84848 -14116339.92646  21030344.0004                   21030341.6174
  -4197321.12546  -3252907.53944  24218312.3674                   24218314.8284
  -7640172.49647  -5942473.07845  22639628.5864                   22639626.1764
 -19465201.04748 -15146842.59846  21321217.6174                   21321215.2274
 -16785127.90647 -13063899.99245  23419709.8984                   23419707.6764
  -8967960.77347  -6965367.37943  24369789.9694                   24369793.9804
 -26065510.68448 -20296454.04347  20342054.9534                   20342052.2894
  -9441197.29747  -7351073.35545  23026956.6644                   23026953.1804
 11  9 22  2  3  0.0000000  0  9G02G15G30G18G26G05G25G29G21
    800978.63746    658125.67643  24142018.7974                   24142014.8714
 -18204944.51648 -14171267.67646  21016929.9224                   21016927.4414
  -4150800.31247  -3216657.58244  24227165.5314                   24227166.4924
  -7723891.62547  -6007708.68045  22623697.2034                   22623694.8914
 -19479801.77048 -15158219.77046  21318439.2504                   21318436.9774
 -16725151.29347 -13017164.98845  23431123.6414                   23431120.7074
  -8911579.28546  -6921433.88744  24380519.2344                   24380523.6484
 -26089526.68448 -20315167.80547  20337485.1174                   20337482.7114
  -9531234.60947  -7421232.27045  23009822.7424                   23009818.9964
 11  9 22  2  3 30.0000000  0  9G02G15G30G18G26G05G25G29G21
    843645.04746    691372.25043  24150137.3594                   24150134.7814
 -18274894.88348 -14225774.41046  21003618.6024                   21003615.9734
  -4104161.65647  -3180315.80144  24236039.6884                   24236041.4574
  -7807349.91447  -6072741.01645  22607815.8674                   22607813.6294
 -19493701.63348 -15169050.80546  21315794.0394                   21315792.4144
 -16665147.86347 -12970409.09045  23442541.1484                   23442538.5904
  -8855232.46947  -6877527.41044  24391242.8444                   24391246.9384
 -26112983.73048 -20333446.01647  20333020.8524                   20333018.6644
  -9621280.41447  -7491397.76645  22992687.8524                   22992684.6484
 11  9 22  2  4  0.0000000  0  9G02G15G30G18G26G05G25G29G21
    886469.19546    724741.73043  24158285.6094                   24158285.1484
 -18344304.41848 -14279859.73446  20990410.4844                   20990407.7974
  -4057409.91447  -3143885.90644  24244936.9614                   24244937.7194
  -7890548.80147  -6137571.23845  22591983.6484                   22591980.6884
 -19506902.19548 -15179336.93746  21313282.2034                   21313279.4884
 -16605120.64847 -12923634.64145  23453963.9224                   23453961.2504
  -8798924.70347  -6833651.33244  24401958.2584                   24401962.2384
 -26135883.36748 -20351289.87947  20328663.1884                   20328660.9414
  -9711334.96947  -7561570.08645  22975550.7034                   22975547.8984
 11  9 22  2  4 30.0000000  0  9G02G15G30G18G26G05G25G29G21
    929452.65646    758235.32443  24166466.5554                   24166463.4694
 -18413170.25048 -14333521.37946  20977305.8134                   20977302.7584
  -4010546.72347  -3107369.16844  24253855.0004                   24253856.2774
  -7973486.60947  -6202198.01245  22576200.7194                   22576197.9774
 -19519402.33248 -15189077.27746  21310903.8054                   21310900.9734
 -16545069.96947 -12876841.93445  23465391.0164                   23465388.1914
  -8742657.25846  -6789806.66844  24412664.7584                   24412669.1054
 -26158223.60548 -20368697.85247  20324412.2194                   20324409.8244
  -9801397.53147  -7631748.64845  22958412.2034                   22958409.7384
 11  9 22  2  5  0.0000000  0  9G02G15G30G18G26G05G25G29G21
    972594.41446    791852.28542  24174674.9144                   24174671.5904
 -18481491.89148 -14386758.97746  20964304.5314                   20964301.8594
  -3963576.51247  -3070768.99244  24262792.3984                   24262792.9104
  -8056164.66847  -6266622.35245  22560467.6174                   22560465.4964
 -19531203.73848 -15198273.18046  21308657.9144                   21308654.9654
 -16484998.52747 -12830033.04745  23476822.4224                   23476819.7774
  -8686434.21146  -6745996.64543  24423363.3674                   24423368.4534
 -26180005.07448 -20385670.41447  20320267.4534                   20320264.8484
  -9891468.46947  -7701933.71145  22941272.4454                   22941269.3164
 11  9 22  2  5 30.0000000  0  9G02G15G30G18G26G05G25G29G21
   1015896.92646    825594.51642  24182916.3284                   24182912.5044
 -18549265.09448 -14439569.22746  20951407.8364                   20951405.3244
  -3916499.76246  -3034085.81243  24271750.5704                   24271752.7274
  -8138580.46147  -6330842.34445  22544784.2664                   22544782.4494
 -19542303.97348 -15206922.70746  21306545.6724                   21306543.2154
 -16424904.73847 -12783206.71945  23488257.7734                   23488255.4264
  -8630255.72746  -6702221.30143  24434054.5164                   24434058.3554
 -26201224.80548 -20402205.26247  20316229.1484                   20316226.9064
  -9981544.14847  -7772122.51245  22924132.0474                   22924128.0084
 11  9 22  2  6  0.0000000  0  9G02G15G30G18G26G05G25G29G21
   1059358.94946    859461.02743  24191186.3284                   24191183.8714
 -18616489.90648 -14491952.14846  20938615.3054                   20938612.5944
  -3869321.01246  -2997323.21943  24280728.5944                   24280729.7114
  -8220735.82847  -6394859.39845  22529150.8364                   22529148.0394
 -19552704.89848 -15215027.30546  21304566.5004                   21304564.1254
 -16364791.87947 -12736365.54744  23499696.3674                   23499694.5784
  -8574126.23046  -6658484.15243  24444735.4064                   24444739.6914
 -26221884.10548 -20418303.39847  20312298.4694                   20312295.7584
 -10071625.66047  -7842315.79745  22906989.2424                   22906987.0204
 11  9 22  2  6 30.0000000  0  9G02G15G30G18G26G05G25G29G21
   1102981.80946    893452.89143  24199487.3444                   24199484.5824
 -18683163.42648 -14543905.50046  20925927.7344                   20925924.9414
  -3822042.43446  -2960482.80543  24289725.5704                   24289726.9224
  -8302629.43747  -6458672.50445  22513566.9304                   22513564.5594
 -19562405.79348 -15222586.43446  21302720.2734                   21302717.6414
 -16304660.06647 -12689509.62945  23511139.0314                   23511137.3914
  -8518047.30547  -6614786.39543  24455407.7034                   24455411.5434
 -26241981.12148 -20433963.40647  20308473.7274                   20308471.3134
 -10161711.28147  -7912512.32445  22889846.7504                   22889843.3244
 11  9 22  2  7  0.0000000  0  9G02G15G30G18G26G05G25G29G21
   1146766.30946    927570.66042  24207819.3914                   24207815.4734
 -18749283.31248 -14595427.44546  20913345.4384                   20913342.7424
  -3774666.35246  -2923566.41843  24298740.4694                   24298741.9344
  -8384260.92647  -6522281.37545  22498032.7814                   22498029.6374
 -19571406.41848 -15229599.86746  21301007.4144                   21301004.6484
 -16244510.17247 -12642639.59045  23522585.9614                   23522583.6134
  -8462020.96946  -6571129.66443  24466068.2114                   24466073.5234
 -26261514.93448 -20449184.55947  20304756.4924                   20304753.9414
 -10251799.49247  -7982710.82045  22872703.7504                   22872700.6024
 11  9 22  2  7 30.0000000  0  9G02G15G30G18G26G05G25G29G21
   1190710.05546    961812.51643  24216182.0704                   24216177.6684
 -18814849.94948 -14646518.30146  20900868.8524                   20900866.0004
  -3727198.18746  -2886578.27744  24307773.9614                   24307776.0204
  -8465632.54347  -6585687.71145  22482547.8674                   22482545.1764
 -19579709.48448 -15236069.78146  21299427.0944                   21299425.3094
 -16184346.19147 -12595758.58645  23534034.9924                   23534032.8714
  -8406052.43746  -6527517.93743  24476719.4844                   24476723.7624
 -26280487.28548 -20463968.20347  20301145.9534                   20301143.6334
 -10341892.05147  -8052912.73845  22855559.4144                   22855555.8594
 11  9 22  2  8  0.0000000  0  9G02G15G30G18G26G05G25G29G21
   1234814.08646    996179.27043  24224575.3444                   24224573.0394
 -18879861.43048 -14697176.54346  20888497.0314                   20888494.9064
  -3679640.24247  -2849520.16844  24316823.9144                   24316824.7704
  -8546743.69947  -6648891.12545  22467113.3364                   22467110.3794
 -19587314.84848 -15241996.03146  21297979.9774                   21297978.6804
 -16124168.71547 -12548867.05944  23545485.9844                   23545483.4654
  -8350143.60546  -6483952.71543  24487358.4694                   24487363.0784
 -26298897.39148 -20478313.72747  20297642.9694                   20297640.0594
 -10431987.44547  -8123116.85545  22838414.3204                   22838411.3954
 11  9 22  2  8 30.0000000  0  9G02G15G30G18G26G05G25G29G21
   1279076.18446   1030669.23443  24232997.1024                   24232994.9694
 -18944318.21148 -14747402.57046  20876231.6954                   20876228.8714
  -3631997.73447  -2812396.12544  24325890.5394                   24325891.6214
  -8627596.26647  -6711893.02045  22451727.2034                   22451724.7664
 -19594224.98048 -15247380.52046  21296665.0234                   21296662.7624
 -16063981.00447 -12501967.56244  23556939.2664                   23556936.2344
  -8294299.28547  -6440437.76644  24497985.4454                   24497988.9494
 -26316747.14148 -20492222.61747  20294246.1414                   20294243.5084
 -10522087.26247  -8193324.43445  22821269.1414                   22821266.4024
 11  9 22  2  9  0.0000000  0  9G02G15G30G18G26G05G25G29G21
   1323498.54746   1065284.05142  24241451.2114                   24241446.9694
 -19008216.74248 -14797193.57846  20864071.8914                   20864069.2544
  -3584271.73447  -2775207.09043  24334972.4534                   24334973.4574
  -8708188.98447  -6774692.45345  22436390.7114                   22436388.3714
 -19600438.46548 -15252222.18446  21295482.3984                   21295480.6024
 -16003782.30547 -12455059.47744  23568395.2344                   23568391.4184
  -8238520.21147  -6396973.69144  24508599.8444                   24508604.4534
 -26334033.91448 -20505692.81647  20290956.7664                   20290953.9184
 -10612189.00447  -8263533.48045  22804123.4384                   22804120.1844
 11  9 22  2  9 30.0000000  0  9G02G15G30G18G26G05G25G29G21
   1368081.04346   1100023.70343  24249934.8524                   24249930.7154
 -19071555.53548 -14846548.44546  20852019.0784                   20852016.0704
  -3536465.41846  -2737955.46543  24344069.0634                   24344071.3834
  -8788521.81247  -6837289.37945  22421103.8364                   22421101.6024
 -19605955.93748 -15256521.52046  21294432.9844                   21294430.8244
 -15943574.50847 -12408144.32844  23579852.0234                   23579848.7234
  -8182809.25046  -6353562.70744  24519201.8984                   24519206.6484
 -26350757.51648 -20518724.18747  20287773.9304                   20287771.7274
 -10702291.61747  -8333743.25845  22786977.3204                   22786974.7344
 11  9 22  2 10  0.0000000  0  9G02G15G30G18G26G05G25G29G21
   1412823.74646   1134888.14143  24258449.5164                   24258445.5204
 -19134333.02048 -14895465.92647  20840072.7664                   20840069.8714
  -3488581.78947  -2700643.58643  24353181.7664                   24353182.6994
  -8868594.55947  -6899683.64845  22405866.7034                   22405863.9844
 -19610778.13347 -15260279.05946  21293515.1334                   21293512.5864
 -15883358.60547 -12361222.87144  23591311.4694                   23591308.6254
  -8127169.13746  -6310206.91044  24529789.7894                   24529794.2734
 -26366917.87948 -20531316.66447  20284698.6954                   20284696.4104
 -10792394.77747  -8403953.40645  22769831.7734                   22769827.8164
 11  9 22  2 10 30.0000000  0  9G02G15G30G18G26G05G25G29G21
   1457726.15245   1169877.00042  24266993.2974                   24266990.0594
 -19196548.62548 -14943945.56647  20828233.5394                   20828231.1914
  -3440624.78946  -2663274.52043  24362306.7894                   24362309.0204
  -8948408.28147  -6961876.06245  22390678.4064                   22390675.7894
 -19614906.41048 -15263495.87146  21292729.5004                   21292727.2934
 -15823136.80947 -12314296.80144  23602770.3524                   23602769.1564
  -8071603.21146  -6266908.93444  24540363.1484                   24540367.7704
 -26382515.62148 -20543470.73847  20281730.6334                   20281728.3014
 -10882498.47347  -8474164.01245  22752685.1414                   22752682.0664
 11  9 22  2 11  0.0000000  0  9G02G15G30G18G26G05G25G29G21
   1502788.71545   1204990.66042  24275568.2734                   24275564.2974
 -19258200.93448 -14991986.28946  20816501.4064                   20816498.6644
  -3392597.19146  -2625850.39543  24371446.2894                   24371448.8594
  -9027962.69947  -7023866.43745  22375539.2974                   22375537.2504
 -19618341.15247 -15266172.28946  21292075.8594                   21292073.2194
 -15762910.27346 -12267367.05544  23614230.7424                   23614230.1134
  -8016114.00446  -6223670.74644  24550922.3284                   24550927.3364
 -26397550.39548 -20555186.13347  20278869.9144                   20278867.1174
 -10972601.66847  -8544374.23045  22735539.6884                   22735535.4614
 11  9 22  2 11 30.0000000  0  9G02G15G30G18G26G05G25G29G21
   1548011.74655   1240229.39852  24284174.0084                   24284170.0164
 -19319287.53548 -15039586.20746  20804876.9064                   20804874.4104
  -3344501.59446  -2588373.34843  24380598.7504                   24380599.9654
  -9107258.03147  -7085654.92245  22360450.0704                   22360447.5944
 -19621082.61748 -15268308.48446  21291554.2584                   21291551.9534
 -15702679.89546 -12220434.30144  23625692.6174                   23625690.6454
  -7960703.73446  -6180494.11743  24561466.8674                   24561472.1374
 -26412021.55148 -20566462.33647  20276116.1724                   20276113.3404
 -11062702.86347  -8614582.85245  22718392.9224                   22718389.8524
 11  9 22  2 12  0.0000000  0  9G02G15G30G18G26G05G25G29G21
   1593394.96545   1275592.93442  24292810.4844                   24292806.7074
 -19379807.53147 -15086744.59046  20793359.8364                   20793357.7504
  -3296341.21046  -2550845.82843  24389763.5784                   24389765.2934
  -9186294.39548  -7147241.63345  22345410.1334                   22345407.3754
 -19623131.71147 -15269905.17246  21291164.1334                   21291162.2624
 -15642447.04346 -12173499.58644  23637154.5394                   23637152.9104
  -7905375.21146  -6137381.13343  24571995.4774                   24572001.1294
 -26425928.52048 -20577298.91447  20273469.3444                   20273467.1954
 -11152801.59447  -8684789.62145  22701248.4774                   22701243.9024
 11  9 22  2 12 30.0000000  0  9G02G15G30G18G26G05G25G29G21
   1638936.84055   1311080.07852  24301477.2344                   24301473.1054
 -19439761.28948 -15133461.76246  20781951.5784                   20781949.0554
  -3248120.78146  -2513271.56643  24398939.7424                   24398941.8404
  -9265073.73048  -7208628.04345  22330418.6174                   22330416.5634
 -19624490.96947 -15270964.32846  21290905.7504                   21290903.3484
 -15582214.91046 -12126565.44144  23648616.7734                   23648615.0164
  -7850132.80146  -6094335.25043  24582507.9384                   24582513.2854
 -26439273.46148 -20587697.56647  20270930.2034                   20270927.8554
 -11242899.09047  -8754995.38745  22684103.2504                   22684099.4844
 11  9 22  2 13  0.0000000  0  9G02G15G30G18G26G05G25G29G21
   1684640.47745   1346693.29342  24310174.9844                   24310171.2504
 -19499144.41847 -15179734.29746  20770651.6094                   20770648.6024
  -3199840.46146  -2475650.61343  24408126.7274                   24408128.3324
  -9343593.17248  -7269811.94145  22315476.8674                   22315474.6684
 -19625158.14847 -15271484.20746  21290778.6724                   21290775.6254
 -15521981.86746 -12079630.60545  23660078.6334                   23660076.8594
  -7794976.28146  -6051356.36343  24593004.0314                   24593009.1024
 -26452053.32848 -20597655.88747  20268498.1724                   20268495.8954
 -11332991.35947  -8825197.10245  22666958.6804                   22666955.7704
 11  9 22  2 13 30.0000000  0  9G02G15G30G18G26G05G25G29G21
   1730504.25445   1382431.29742  24318902.0784                   24318897.4844
 -19557957.07447 -15225562.30946  20759459.2974                   20759456.8244
  -3151504.70346  -2437986.43743  24417325.0634                   24417326.3324
  -9421854.06647  -7330794.37545  22300584.1174                   22300581.5744
 -19625135.68047 -15271466.67646  21290783.1884                   21290780.1724
 -15461750.43446 -12032697.00844  23671540.1884                   23671538.1524
  -7739909.70346  -6008447.43043  24603483.5004                   24603487.4804
 -26464269.42248 -20607174.90647  20266173.5314                   20266170.7304
 -11423079.14547  -8895395.30945  22649815.5084                   22649812.1764
 11  9 22  2 14  0.0000000  0  8G15G30G18G26G05G25G29G21
 -19616196.82447 -15270943.89546  20748377.0084                   20748373.8714
  -3103115.53946  -2400280.61743  24426533.1024                   24426534.6174
  -9499855.81648  -7391574.88745  22285740.8444                   22285737.8244
 -19624423.32047 -15270911.57046  21290918.4774                   21290916.3204
 -15401520.86346 -11985764.88744  23683000.9064                   23682999.6374
  -7684934.66447  -5965609.84843  24613945.4454                   24613949.5124
 -26475920.76648 -20616253.86747  20263956.3284                   20263953.5984
 -11513160.50447  -8965588.51645  22632673.5944                   22632669.8444
 11  9 22  2 14 30.0000000  0  8G15G30G18G26G05G25G29G21
 -19673862.39848 -15315878.06646  20737403.5474                   20737400.3484
  -3054675.90246  -2362535.53143  24435750.9534                   24435753.0234
  -9577598.41847  -7452153.44545  22270946.9064                   22270944.7464
 -19623021.85947 -15269819.50845  21291184.7584                   21291181.3914
 -15341294.47747 -11938835.21944  23694462.5634                   23694459.2424
  -7630053.80147  -5922845.65644  24624388.4304                   24624393.1764
 -26487007.10548 -20624892.56247  20261846.5634                   20261843.9804
 -11603234.75848  -9035776.19945  22615533.7274                   22615529.3284
 11  9 22  2 15  0.0000000  0  8G15G30G18G26G05G25G29G21
 -19730944.17248 -15360357.32446  20726540.9694                   20726538.1174
  -3006180.24646  -2324746.79743  24444979.9454                   24444981.0864
  -9655073.46548  -7512523.52745  22256203.9694                   22256201.0634
 -19620923.76647 -15268184.61746  21291584.3444                   21291581.6844
 -15281063.96147 -11891902.37944  23705923.5474                   23705921.0784
  -7575261.09847  -5880150.19544  24634814.9224                   24634820.8984
 -26497520.03148 -20633084.43447  20259845.8134                   20259843.6804
 -11693292.28947  -9105950.83245  22598395.6954                   22598392.0904
 11  9 22  2 15 30.0000000  0  8G15G30G18G26G05G25G29G21
 -19787439.22348 -15404379.41846  20715790.3524                   20715787.6294
  -2957630.19146  -2286915.60943  24454218.4694                   24454219.3524
  -9732280.30948  -7572684.62145  22241511.7814                   22241509.5044
 -19618128.57447 -15266006.53546  21292116.6644                   21292114.1374
 -15220829.13347 -11844966.15644  23717386.4064                   23717383.5904
  -7520557.77346  -5837524.35543  24645225.2894                   24645230.1134
 -26507458.13348 -20640828.40247  20257954.7814                   20257952.4654
 -11783331.41448  -9176111.14845  22581261.9454                   22581258.6564
 11  9 22  2 16  0.0000000  0  8G15G30G18G26G05G25G29G21
 -19843348.85248 -15447945.32846  20705151.0004                   20705148.1844
  -2909030.91046  -2249046.08643  24463466.9844                   24463468.1484
  -9809220.84848  -7632638.22345  22226870.5554                   22226867.8714
 -19614639.33647 -15263287.62546  21292780.1254                   21292777.6214
 -15160593.20347 -11798029.05544  23728848.0784                   23728846.3324
  -7465948.59446  -5794971.89843  24655617.1024                   24655621.4694
 -26516823.55948 -20648126.13747  20256172.4774                   20256170.0394
 -11873353.27348  -9246257.98445  22564131.4064                   22564127.3834
 11  9 22  2 16 30.0000000  0  8G15G30G18G26G05G25G29G21
 -19898675.42648 -15491056.90646  20694622.7034                   20694619.8134
  -2860389.13746  -2211143.52043  24472723.1724                   24472725.1174
  -9885899.37148  -7692387.66045  22212279.1094                   22212275.9804
 -19610461.07447 -15260031.82445  21293575.2424                   21293572.5704
 -15100361.43446 -11751095.20744  23740309.9224                   23740308.1884
  -7411439.95746  -5752497.83643  24665989.2894                   24665994.0474
 -26525619.85948 -20654980.38747  20254498.8204                   20254496.3594
 -11963360.91447  -9316393.76645  22547003.2974                   22546999.7934
 11  9 22  2 17  0.0000000  0  7G15G30G18G26G05G29G21
 -19953419.82848 -15533714.84846  20684205.2894                   20684202.3164
  -2811709.98846  -2173211.76643  24481986.2734                   24481988.0864
  -9962318.03948  -7751934.57845  22197736.6884                   22197734.4924
 -19605596.70747 -15256241.39546  21294501.3364                   21294497.9494
 -15040136.88746 -11704166.98844  23751769.4144                   23751769.0944
 -26533849.59848 -20661393.15647  20252932.7344                   20252930.2304
 -12053354.21547  -9386518.36745  22529878.2344                   22529874.5004
 11  9 22  2 17 30.0000000  0  7G15G30G18G26G05G29G21
 -20007582.11748 -15575919.19546  20673898.4534                   20673895.7894
  -2762997.47746  -2135254.04344  24491256.0864                   24491258.5474
 -10038478.09848  -7811280.00045  22183244.0394                   22183240.9654
 -19600048.62547 -15251918.20746  21295556.9774                   21295554.1094
 -14979921.96146 -11657246.27044  23763228.5704                   23763226.5084
 -26541513.61348 -20667365.10947  20251474.3674                   20251471.5274
 -12143334.85947  -9456633.09445  22512755.3054                   22512752.0944
 11  9 22  2 18  0.0000000  0  7G15G30G18G26G05G29G21
 -20061153.72348 -15617663.26646  20663704.2344                   20663701.5554
  -2714247.26246  -2097266.96943  24500533.1724                   24500533.8754
 -10114372.00048  -7870418.03145  22168802.1564                   22168799.1804
 -19593810.28948 -15247057.13346  21296743.7664                   21296740.8444
 -14919710.30947 -11610328.11344  23774686.2974                   23774684.6604
 -26548604.89848 -20672890.77347  20250124.9064                   20250122.2774
 -12233294.43448  -9526731.41845  22495636.6644                   22495633.7814
 11  9 22  2 18 30.0000000  0  7G15G30G18G26G05G29G21
 -20114131.19948 -15658944.39146  20653623.0634                   20653619.7274
  -2665459.69146  -2059250.69143  24509816.8834                   24509818.4884
 -10189998.24248  -7929347.48445  22154410.2344                   22154407.7504
 -19586880.38748 -15241657.19945  21298062.3674                   21298059.9734
 -14859500.87547 -11563411.67644  23786144.2584                   23786142.3594
 -26555121.18048 -20677968.39147  20248884.9144                   20248882.2074
 -12323229.25847  -9596810.43045  22478522.7974                   22478518.7664
 11  9 22  2 19  0.0000000  0  7G15G30G18G26G05G29G21
 -20166514.43048 -15699762.45346  20643654.6484                   20643651.6564
  -2616639.01646  -2021208.66443  24519106.9694                   24519110.0474
 -10265357.82448  -7988069.16445  22140070.1724                   22140067.3164
 -19579261.51248 -15235720.40245  21299512.7424                   21299509.8484
 -14799295.84447 -11516498.67644  23797601.1644                   23797599.1024
 -26561063.69148 -20682598.92647  20247753.9774                   20247751.3834
 -12413139.25447  -9666870.12145  22461413.0474                   22461409.6914
 11  9 22  2 19 30.0000000  0  7G15G30G18G26G05G29G21
 -20218308.27048 -15740121.26246  20633798.3364                   20633795.9144
  -2567793.65646  -1983147.43443  24528401.9614                   24528404.1764
 -10340456.51248  -8046587.53945  22125779.1334                   22125776.6294
 -19570960.33248 -15229251.93045  21301092.0864                   21301089.3164
 -14739101.95747 -11469594.35544  23809055.4614                   23809053.5744
 -26566438.30148 -20686786.94547  20246731.3134                   20246728.9494
 -12503029.80548  -9736914.65645  22444307.9144                   22444303.9454
 11  9 22  2 20  0.0000000  0  7G15G30G18G26G05G29G21
 -20269515.23048 -15780022.75446  20624054.6254                   20624051.4574
  -2518930.43046  -1945072.25843  24537701.0864                   24537701.8094
 -10415298.71148  -8104906.07445  22111537.2814                   22111534.3594
 -19561981.84048 -15222255.68446  21302800.5864                   21302797.6174
 -14678924.12947 -11422702.55944  23820507.3754                   23820505.4534
 -26571249.19548 -20690535.69147  20245815.7344                   20245813.1214
 -12592903.15647  -9806945.75445  22427204.8984                   22427201.8484
 11  9 22  2 20 30.0000000  0  7G15G30G18G26G05G29G21
 -20320131.48448 -15819463.95746  20614422.1804                   20614419.2034
  -2470049.13346  -1906982.94942  24547002.2664                   24547003.1024
 -10489881.59448  -8163022.52045  22097344.6884                   22097342.1884
 -19552324.14848 -15214730.19146  21304638.5084                   21304635.7464
 -14618760.43047 -11375821.76244  23831955.8054                   23831953.6054
 -26575493.05148 -20693842.59447  20245008.3594                   20245005.8754
 -12682755.61747  -9876960.63345  22410106.8524                   22410103.1994
 11  9 22  2 21  0.0000000  0  7G15G30G18G26G05G29G21
 -20370159.59848 -15858446.87946  20604902.4924                   20604899.1214
  -2421156.64546  -1868884.90643  24556306.0164                   24556308.4224
 -10564208.98048  -8220939.90645  22083200.6884                   22083197.6684
 -19541992.56648 -15206679.60945  21306604.2814                   21306601.7344
 -14558615.87946 -11328955.91444  23843401.2274                   23843398.7114
 -26579174.13348 -20696710.97347  20244307.8364                   20244305.2544
 -12772590.33647  -9946961.64845  22393011.7974                   22393008.4964
 11  9 22  2 21 30.0000000  0  7G15G30G18G26G05G29G21
 -20419598.27748 -15896970.49647  20595494.3284                   20595491.7664
  -2372255.29347  -1830779.98843  24565612.4224                   24565613.7814
 -10638280.80148  -8278658.14145  22069105.3444                   22069101.8914
 -19530987.82848 -15198104.46545  21308698.4774                   21308695.8244
 -14498490.96546 -11282105.30144  23854842.6644                   23854839.7384
 -26582292.42648 -20699140.81647  20243714.4534                   20243712.0084
 -12862405.24247 -10016947.24645  22375921.0004                   22375917.0744
 11  9 22  2 22  0.0000000  0  7G15G30G18G26G05G29G21
 -20468447.24248 -15935034.58646  20586198.6254                   20586195.7304
  -2323348.71547  -1792671.02743  24574919.2664                   24574920.1844
 -10712097.88748  -8336177.86745  22055057.9844                   22055054.9734
 -19519311.79748 -15189006.24246  21310921.0084                   21310917.6844
 -14438387.17646 -11235271.22344  23866280.0634                   23866277.9804
 -26584848.73848 -20701132.74247  20243227.6954                   20243225.4494
 -12952200.12947 -10086917.23045  22358832.7194                   22358829.3984
 11  9 22  2 22 30.0000000  0  7G15G30G18G26G05G29G21
 -20516704.77048 -15972637.82446  20577015.3524                   20577012.6564
  -2274439.10247  -1754559.69543  24584226.1484                   24584227.9384
 -10785660.17248  -8393499.06645  22041059.5474                   22041057.0044
 -19506965.36747 -15179385.64146  21313269.9534                   21313267.1994
 -14378305.18746 -11188454.11344  23877713.2734                   23877710.8794
 -26586842.71148 -20702686.48847  20242848.3594                   20242845.8954
 -13041973.55947 -10156870.52345  22341749.7194                   22341746.8794
 11  9 22  2 23  0.0000000  0  7G15G30G18G26G05G29G21
 -20564371.00848 -16009780.32446  20567944.8204                   20567941.9654
  -2225530.00847  -1716448.76643  24593533.7584                   24593534.4884
 -10858968.12148  -8450622.07445  22027109.6094                   22027105.9304
 -19493950.48847 -15169244.14845  21315746.2424                   21315744.3594
 -14318246.71546 -11141655.32844  23889141.8054                   23889140.6134
 -26588275.41848 -20703802.86347  20242576.0314                   20242573.2974
 -13131725.18747 -10226806.78145  22324670.5944                   22324666.0004
 11  9 22  2 23 30.0000000  0  7G15G30G18G26G05G29G21
 -20611446.35548 -16046462.38347  20558986.7034                   20558983.6294
  -2176625.72746  -1678341.65643  24602840.1414                   24602841.0554
 -10932023.61348  -8507548.36745  22013207.3364                   22013204.6604
 -19480270.33248 -15158584.28146  21318349.6804                   21318347.7894
 -14258214.09846 -11094876.67644  23900565.3284                   23900563.5394
 -26589148.61348 -20704483.25847  20242410.0314                   20242407.0514
 -13221455.32447 -10296726.34445  22307595.3444                   22307592.0044
 11  9 22  2 24  0.0000000  0  7G15G30G18G26G05G29G21
 -20657926.12548 -16082680.34846  20550141.4454                   20550138.5314
  -2127725.27046  -1640237.52043  24612145.1414                   24612147.3674
 -11004823.43048  -8564275.41045  21999354.1564                   21999351.0864
 -19465922.12147 -15147403.84845  21321079.9844                   21321077.1954
 -14198204.40646 -11048115.91044  23911984.2894                   23911982.8164
 -26589458.80148 -20704724.96147  20242350.4384                   20242347.8954
 -13311159.07447 -10366625.34445  22290525.5084                   22290520.3444
 11  9 22  2 24 30.0000000  0  7G15G30G18G26G05G29G21
 -20703812.00848 -16118435.55147  20541410.4384                   20541407.0124
  -2078833.73846  -1602140.36743  24621448.2274                   24621450.9574
 -11077369.73448  -8620804.93745  21985549.2274                   21985545.8634
 -19450909.77047 -15135705.87946  21323936.4614                   21323934.5274
 -14138221.20346 -11001375.76644  23923399.3754                   23923397.4694
 -26589208.74648 -20704530.10247  20242398.5164                   20242395.8714
 -13400838.18747 -10436505.09045  22273459.5784                   22273457.1294
 11  9 22  2 25  0.0000000  0  7G15G30G18G26G05G29G21
 -20749102.40648 -16153726.74247  20532791.3204                   20532788.5514
  -2029953.76646  -1564052.26243  24630750.2814                   24630752.3054
 -11149662.84447  -8677137.16045  21971791.8134                   21971788.7974
 -19435234.40647 -15123491.29346  21326919.4224                   21326917.8094
 -14078265.07846 -10954656.71944  23934808.5704                   23934807.1914
 -26588398.69548 -20703898.90247  20242552.3914                   20242550.1094
 -13490490.65247 -10506364.12945  22256399.2894                   22256395.0514
 11  9 22  2 25 30.0000000  0  7G15G30G18G26G05G29G21
 -20793797.40248 -16188553.98447  20524286.3284                   20524283.3284
  -1981088.55145  -1525975.63343  24640049.7424                   24640051.0004
 -11221703.41047  -8733272.59845  21958083.0004                   21958080.3484
 -19418898.06247 -15110761.65645  21330028.0314                   21330025.9774
 -14018337.62946 -10907960.01644  23946212.5554                   23946210.8324
 -26587029.50848 -20702831.99647  20242812.9924                   20242810.6644
 -13580115.96147 -10576202.00845  22239344.5704                   22239341.1334
 11  9 22  2 26  0.0000000  0  7G15G30G18G26G05G29G21
 -20837897.47747 -16222917.64147  20515894.5634                   20515891.3674
  -1932241.98846  -1487913.52343  24649343.8444                   24649347.2234
 -11293492.69947  -8789212.23845  21944421.8834                   21944419.0204
 -19401903.28947 -15097518.96145  21333262.1094                   21333260.5474
 -13958440.64846 -10861287.06644  23957610.7974                   23957608.7154
 -26585102.36348 -20701330.32447  20243179.9454                   20243176.9024
 -13669714.18747 -10646018.75845  22222294.5474                   22222289.9774
 11  9 22  2 26 30.0000000  0  7G15G30G18G26G05G29G21
 -20881400.27748 -16256815.89547  20507615.9304                   20507612.8204
  -1883415.50046  -1449867.06643  24658636.7894                   24658637.9024
 -11365029.26247  -8844954.94545  21930809.1334                   21930805.2704
 -19384250.29747 -15083763.37145  21336621.1174                   21336619.3714
 -13898573.73046 -10814637.51244  23969002.3914                   23969000.4304
 -26582616.70748 -20699393.43747  20243652.5394                   20243649.7704
 -13759282.89847 -10715812.50845  22205249.8594                   22205246.0084
 11  9 22  2 27  0.0000000  0  7G15G30G18G26G05G29G21
 -20924306.52748 -16290249.30147  20499451.1484                   20499448.6214
  -1834613.34046  -1411839.59843  24667922.6954                   24667924.3794
 -11436315.67247  -8900502.72745  21917243.6094                   21917240.4064
 -19365942.24647 -15069497.32845  21340105.5704                   21340102.8714
 -13838739.39546 -10768013.35544  23980388.2734                   23980386.9924
 -26579574.29748 -20697022.72347  20244231.5554                   20244228.7504
 -13848822.32047 -10785583.44145  22188211.2814                   22188207.2344
 11  9 22  2 27 30.0000000  0  6G15G18G26G05G29G21
 -20966615.62147 -16323217.40246  20491400.0164                   20491397.2074
 -11507352.00047  -8955855.64145  21903725.6644                   21903722.9964
 -19346980.66447 -15054722.05145  21343713.9694                   21343711.1884
 -13778938.43446 -10721415.22344  23991768.0634                   23991766.9694
 -26575975.93048 -20694218.79347  20244916.2194                   20244913.6604
 -13938331.30148 -10855330.67245  22171178.3284                   22171174.1764
 11  9 22  2 28  0.0000000  0  6G15G18G26G05G29G21
 -21008325.09448 -16355718.24647  20483462.9304                   20483459.8754
 -11578137.02047  -9011012.71945  21890255.7194                   21890252.4574
 -19327365.83647 -15039437.74645  21347446.5944                   21347443.5084
 -13719170.20746 -10674842.60544  24003142.6484                   24003140.4064
 -26571820.42648 -20690980.73447  20245707.0634                   20245704.4494
 -14027807.19148 -10925052.07045  22154151.5004                   22154148.2304
 11  9 22  2 28 30.0000000  0  6G15G18G26G05G29G21
 -19474006.36748 -15160145.18747  20775434.2194                   20775431.3834
 -10073241.54347  -7838366.81645  22176627.7194                   22176624.3524
 -17731672.79347 -13796040.54745  21651096.8754                   21651093.8014
 -12084010.78546  -9400692.40644  24314303.0314                   24314301.0784
 -24991681.50848 -19459703.66047  20546397.2274                   20546394.8094
 -12541819.17247  -9767139.27745  22436925.3364                   22436921.0634
 11  9 22  2 29  0.0000000  0  6G15G18G26G05G29G21
 -19514498.48448 -15191697.45746  20767728.9384                   20767725.5354
 -10143507.54747  -7893119.48445  22163256.7114                   22163253.6334
 -17710739.14547 -13779728.59845  21655080.0634                   21655077.6254
 -12024294.10946  -9354159.94544  24325667.0944                   24325664.5904
 -24986396.36348 -19455585.36747  20547403.6414                   20547400.7304
 -12631208.52748  -9836793.26645  22419915.4614                   22419911.1374
 11  9 22  2 29 30.0000000  0  6G15G18G26G05G29G21
 -19554385.34048 -15222778.09447  20760138.2974                   20760135.0394
 -10213519.01647  -7947673.80945  22149933.8204                   22149930.4694
 -17689153.09047 -13762908.27345  21659187.7274                   21659185.3524
 -11964608.48446  -9307651.67644  24337024.0554                   24337021.4534
 -24980551.93748 -19451031.26247  20548515.5234                   20548512.5274
 -12720557.14547  -9906415.50045  22402912.2274                   22402909.2114
 11  9 22  2 30  0.0000000  0  6G15G18G26G05G29G21
 -19593665.09048 -15253385.65647  20752663.6414                   20752660.8834
 -10283275.00447  -8002029.03545  22136659.0784                   22136656.7624
 -17666915.14147 -13745579.98445  21663419.5474                   21663417.1024
 -11904953.60946  -9261167.35243  24348375.8834                   24348373.5044
 -24974147.40248 -19446040.70747  20549734.3984                   20549731.6564
 -12809862.53948  -9976004.03945  22385918.4454                   22385914.7034
 11  9 22  2 30 30.0000000  0  6G15G18G26G05G29G21
 -19632342.84848 -15283524.13747  20745303.7814                   20745300.5164
 -10352781.41047  -8056189.80545  22123433.0474                   22123429.4534
 -17644032.72747 -13727749.52045  21667773.9384                   21667771.3914
 -11845336.28946  -9214712.31644  24359721.6024                   24359718.3954
 -24967188.77748 -19440618.39147  20551058.1804                   20551055.5864
 -12899129.25847 -10045562.46545  22368931.3984                   22368926.9734
 11  9 22  2 31  0.0000000  0  6G15G18G26G05G29G21
 -19670418.08248 -15313193.11747  20738057.9304                   20738054.9924
 -10422038.68748  -8110156.44945  22110253.6884                   22110250.6374
 -17620507.69547 -13709418.27745  21672250.3984                   21672247.3594
 -11785757.41046  -9168287.21944  24371058.9304                   24371056.0474
 -24959676.97748 -19434765.03147  20552487.8054                   20552485.3914
 -12988356.11748 -10115089.81245  22351951.9384                   22351947.7814
 11  9 22  2 31 30.0000000  0  6G15G18G26G05G29G21
 -19707892.34848 -15342393.80947  20730927.0394                   20730923.4104
 -10491049.55148  -8163931.07845  22097120.9614                   22097118.2074
 -17596343.87147 -13690589.31245  21676848.5004                   21676846.0314
 -11726219.60946  -9121894.13344  24382388.3284                   24382385.6414
 -24951614.95748 -19428482.93447  20554022.0314                   20554019.2774
 -13077543.91847 -10184586.72745  22334980.0944                   22334975.6564
 11  9 22  2 32  0.0000000  0  6G15G18G26G05G29G21
 -19744763.47348 -15371124.53147  20723910.3754                   20723907.7274
 -10559812.08647  -8217512.21145  22084036.1724                   22084033.2704
 -17571541.04347 -13671262.43045  21681568.8364                   21681565.7664
 -11666721.84446  -9075532.25444  24393710.1024                   24393707.9804
 -24943001.61748 -19421771.22747  20555661.1884                   20555658.4654
 -13166689.49247 -10254050.75045  22318016.0084                   22318012.3134
 11  9 22  2 32 30.0000000  0  6G15G18G26G05G29G21
 -19781032.71548 -15399386.25447  20717008.3134                   20717005.5904
 -10628328.48448  -8270901.55145  22070997.8054                   22070994.6414
 -17546103.09047 -13651440.61745  21686408.9064                   21686406.6374
 -11607267.03946  -9029203.85244  24405024.3594                   24405022.0394
 -24933839.19148 -19414631.67247  20557404.5864                   20557401.8484
 -13255793.51648 -10323482.38345  22301060.1884                   22301056.9104
 11  9 22  2 33  0.0000000  0  6G15G18G26G05G29G21
 -19816701.59048 -15427180.14847  20710220.8364                   20710217.9494
 -10696600.84048  -8324100.73045  22058006.2034                   22058002.2734
 -17520033.44547 -13631126.59445  21691370.3134                   21691367.7504
 -11547857.34446  -8982910.59844  24416328.9694                   24416327.0514
 -24924130.46148 -19407066.43047  20559252.1484                   20559249.5864
 -13344856.44547 -10392882.00045  22284111.7734                   22284107.8984
 11  9 22  2 33 30.0000000  0  6G15G18G26G05G29G21
 -19851767.33648 -15454504.08247  20703548.3594                   20703545.3244
 -10764627.26648  -8377108.28145  22045060.7974                   22045057.3134
 -17493332.09847 -13610320.33245  21696451.4384                   21696448.8484
 -11488491.06246  -8936651.17244  24427626.7894                   24427624.1054
 -24913873.61348 -19399074.08247  20561204.1334                   20561201.3524
 -13433874.52348 -10462246.66845  22267171.9304                   22267168.4224
 11  9 22  2 34  0.0000000  0  6G15G18G26G05G29G21
 -19886230.29748 -15481358.29747  20696990.0314                   20696986.9184
 -10832408.63348  -8429924.84446  22032162.2814                   22032159.5164
 -17466001.67647 -13589023.87945  21701651.7584                   21701649.3094
 -11429170.40246  -8890427.30144  24438915.1174                   24438911.8914
 -24903070.43048 -19390656.02347  20563259.4614                   20563257.0554
 -13522847.55147 -10531576.23845  22250240.9924                   22250237.7424
 11  9 22  2 34 30.0000000  0  6G15G18G26G05G29G21
 -19920091.98048 -15507744.00046  20690546.4304                   20690543.4844
 -10899947.78148  -8482552.69545  22019310.2894                   22019306.7074
 -17438045.84847 -13567240.10945  21706971.9614                   21706969.1564
 -11369897.38346  -8844240.56244  24450194.5784                   24450191.6564
 -24891723.20348 -19381814.03147  20565419.0634                   20565416.4414
 -13611775.38347 -10600870.59445  22233318.7734                   22233314.7304
 11  9 22  2 35  0.0000000  0  6G15G18G26G05G29G21
 -19953350.31648 -15533659.55947  20684217.8204                   20684214.4734
 -10967242.82848  -8534990.33645  22006504.1954                   22006501.3914
 -17409464.77047 -13544969.12145  21712410.4694                   21712407.8874
 -11310671.50046  -8798090.54744  24461464.5634                   24461461.8404
 -24879831.24648 -19372547.57047  20567681.6094                   20567679.2194
 -13700655.84448 -10670128.04745  22216405.6174                   22216401.6484
 11  9 22  2 35 30.0000000  0  6G15G18G26G05G29G21
 -19986008.94548 -15559107.81247  20678002.5394                   20677999.7934
 -11034297.96148  -8587241.03145  21993744.0314                   21993740.5944
 -17380264.21547 -13522215.43745  21717966.5474                   21717964.3674
 -11251496.29346  -8751980.01644  24472724.7504                   24472722.7774
 -24867399.21548 -19362860.28147  20570047.8364                   20570045.1484
 -13789490.76247 -10739349.99646  22199500.4384                   22199496.9614
 11  9 22  2 36  0.0000000  0  6G15G18G26G05G29G21
 -20018065.78548 -15584087.14847  20671902.5004                   20671899.9844
 -11101112.02748  -8639303.87545  21981029.6254                   21981026.6134
 -17350444.68747 -13498979.43445  21723641.5704                   21723639.0434
 -11192371.30946  -8705908.60944  24483976.4304                   24483974.3674
 -24854426.22348 -19352751.45347  20572516.4304                   20572513.9304
 -13878277.35947 -10808534.31246  22182604.8054                   22182601.0554
 11  9 22  2 36 30.0000000  0  6G15G18G26G05G29G21
 -20049519.11748 -15608596.20747  20665917.1954                   20665914.4844
 -11167683.37948  -8691177.59045  21968361.3674                   21968357.9344
 -17320006.39547 -13475261.25845  21729433.7504                   21729431.0514
 -11133295.78146  -8659875.74644  24495218.2734                   24495216.7774
 -24840911.59448 -19342220.58247  20575088.1334                   20575085.6294
 -13967012.43747 -10877678.48446  22165719.2974                   22165715.4454
 11  9 22  2 37  0.0000000  0  6G15G18G26G05G29G21
 -20080369.03148 -15632635.06247  20660046.5784                   20660043.1294
 -11234013.82448  -8742863.59446  21955738.7584                   21955736.0354
 -17288952.37547 -13451063.30545  21735342.9144                   21735340.4844
 -11074271.44146  -8613882.73844  24506449.6024                   24506447.2934
 -24826857.12548 -19331269.04347  20577762.4384                   20577759.7854
 -14055695.84447 -10946782.40646  22148843.4454                   22148840.0864
 11  9 22  2 37 30.0000000  0  6G15G18G26G05G29G21
 -20110617.23848 -15656205.07047  20654291.0554                   20654287.4694
 -11300104.66848  -8794362.89145  21943162.6564                   21943159.2274
 -17257286.09447 -13426388.27345  21741369.4384                   21741365.7624
 -11015299.78146  -8567930.80943  24517671.9384                   24517669.6684
 -24812264.88348 -19319898.47747  20580539.2424                   20580536.6174
 -14144327.11347 -11015845.69546  22131977.4694                   22131973.7034
 11  9 22  2 38  0.0000000  0  6G15G18G26G05G29G21
 -20140264.20347 -15679306.57047  20648649.0394                   20648645.5944
 -11365957.07848  -8845676.38345  21930631.4694                   21930628.5124
 -17225010.22347 -13401238.23445  21747510.7664                   21747508.4264
 -10956382.15646  -8522020.98043  24528883.5634                   24528881.9344
 -24797136.93048 -19308110.45347  20583418.3834                   20583415.7504
 -14232905.63747 -11084867.88745  22115121.3054                   22115117.3714
 11  9 22  2 38 30.0000000  0  6G15G18G26G05G29G21
 -20169307.91048 -15701938.01247  20643122.3364                   20643118.6604
 -11431570.07448  -8896803.33645  21918145.4844                   21918142.1484
 -17192125.50047 -13375613.76245  21753768.7974                   21753765.9734
 -10897518.16846  -8476152.96543  24540085.4144                   24540083.3094
 -24781472.53948 -19295904.43747  20586399.2114                   20586396.3714
 -14321428.78947 -11153846.93046  22098276.4064                   22098272.0434
 11  9 22  2 39  0.0000000  0  6G15G18G26G05G29G21
 -20197749.35548 -15724100.14147  20637710.1094                   20637706.8914
 -11496945.01248  -8947744.77745  21905704.6644                   21905701.6054
 -17158635.10547 -13349517.32445  21760141.7344                   21760138.8914
 -10838709.08246  -8430327.71143  24551275.9144                   24551273.5164
 -24765273.55148 -19283281.84847  20589481.4304                   20589478.8984
 -14409896.10547 -11222782.47346  22081441.2734                   22081437.5164
 11  9 22  2 39 30.0000000  0  7G22G15G18G26G05G29G21
   9303991.17656   7261656.43453  24704841.9064                   24704839.6954
 -20225589.69948 -15745793.89847  20632412.0234                   20632408.9024
 -11562082.93748  -8998501.54346  21893309.7734                   21893306.1414
 -17124541.99247 -13322951.27745  21766629.4304                   21766626.8244
 -10779956.33646  -8384546.37943  24562456.0394                   24562455.0784
 -24748541.73448 -19270244.05547  20592665.3284                   20592663.0704
 -14498306.51647 -11291673.65246  22064617.4924                   22064613.4494
 11  9 22  2 40  0.0000000  0  7G22G15G18G26G05G29G21
   9203158.27746   7183085.61343  24685653.6484                   24685651.6804
 -20252835.72748 -15767024.53947  20627227.2034                   20627223.8954
 -11626991.28148  -9049079.41046  21880957.9694                   21880954.4774
 -17089855.35247 -13295922.73445  21773230.0164                   21773228.1724
 -10721267.56246  -8338814.87943  24573624.3914                   24573622.8834
 -24731285.42648 -19256797.57846  20595949.3754                   20595946.5514
 -14586665.92647 -11360525.09846  22047802.8364                   22047799.3054
 11  9 22  2 40 30.0000000  0  7G22G15G18G26G05G29G21
   9102472.26645   7104629.33643  24666493.1024                   24666491.8524
 -20279490.35248 -15787794.35547  20622155.3444                   20622151.6564
 -11691673.86348  -9099481.36746  21868649.1094                   21868645.8164
 -17054580.51647 -13268435.83245  21779942.7814                   21779940.8324
 -10662646.74246  -8293136.35243  24584779.4144                   24584778.0594
 -24713508.53148 -19242945.44947  20599331.8834                   20599329.5164
 -14674975.84847 -11429338.00046  22030998.1254                   22030993.9654
 11  9 22  2 41  0.0000000  0  7G22G15G18G26G05G29G21
   9001936.92246   7026290.40643  24647361.8674                   24647359.7734
 -20305549.95748 -15808100.50847  20617195.9144                   20617192.8244
 -11756127.13748  -9149704.63746  21856384.1174                   21856381.0634
 -17018715.96947 -13240489.41045  21786767.1254                   21786764.4804
 -10604090.84446  -8247508.41043  24595922.8204                   24595920.6804
 -24695208.46148 -19228685.65247  20602814.5784                   20602811.6484
 -14763231.53947 -11498108.64845  22014203.3914                   22014199.5984
 11  9 22  2 41 30.0000000  0  7G22G15G18G26G05G29G21
   8901555.27046   6948071.21144  24628259.9224                   24628258.2194
 -20331012.25048 -15827941.24247  20612350.7034                   20612347.4804
 -11820349.49248  -9199747.96146  21844162.9224                   21844158.9304
 -16982262.07447 -13212083.78545  21793704.4454                   21793701.2704
 -10545597.71946  -8201929.34843  24607052.8524                   24607050.8594
 -24676384.48448 -19214017.61747  20606396.6024                   20606393.9224
 -14851429.22747 -11566834.09846  21997420.3444                   21997416.2544
 11  9 22  2 42  0.0000000  0  7G22G15G18G26G05G29G21
   8801330.52546   6869974.20343  24609188.4694                   24609184.3054
 -20355874.41848 -15847314.33647  20607619.3444                   20607616.2194
 -11884338.07448  -9249609.14546  21831986.0634                   21831982.6484
 -16945217.53947 -13183217.92245  21800754.0004                   21800751.7384
 -10487165.13346  -8156397.44943  24618172.9774                   24618170.5474
 -24657034.20748 -19198939.48447  20610078.6414                   20610076.4184
 -14939564.05947 -11635510.55946  21980648.5474                   21980644.5634
 11  9 22  2 42 30.0000000  0  7G22G15G18G26G05G29G21
   8701261.10246   6791998.23043  24590145.1024                   24590141.4614
 -20380138.31248 -15866221.24647  20603002.4694                   20602999.5984
 -11948095.45748  -9299290.15246  21819853.5474                   21819849.5354
 -16907586.77347 -13153895.24245  21807914.7034                   21807912.6454
 -10428795.63746  -8110914.75443  24629279.9384                   24629278.2034
 -24637161.00448 -19183453.87547  20613860.4384                   20613857.8444
 -15027636.31647 -11704138.26646  21963888.6564                   21963885.2344
 11  9 22  2 43  0.0000000  0  7G22G15G18G26G05G29G21
   8601346.69146   6714143.03943  24571131.8204                   24571127.8954
 -20403804.33248 -15884662.28547  20598499.0314                   20598495.6914
 -12011622.33248  -9348791.57045  21807764.7194                   21807760.6454
 -16869372.71147 -13124118.03545  21815186.3754                   21815184.1804
 -10370490.26246  -8065481.98843  24640375.3204                   24640373.3524
 -24616766.21148 -19167561.83646  20617741.6334                   20617738.7344
 -15115645.11748 -11772716.51646  21947141.6254                   21947137.3054
 11  9 22  2 43 30.0000000  0  7G22G15G18G26G05G29G21
   8501589.72346   6636410.52343  24552148.5394                   24552144.4454
 -20426870.80148 -15902636.12947  20594109.5004                   20594106.0354
 -12074917.15248  -9398112.16446  21795720.2194                   21795716.3014
 -16830575.57047 -13093886.48845  21822569.5704                   21822565.3404
 -10312247.38746  -8020097.96543  24651458.5784                   24651456.5434
 -24595849.24248 -19151262.89147  20621721.6094                   20621718.9654
 -15203587.49648 -11841243.02746  21930406.7584                   21930402.6994
 11  9 22  2 44  0.0000000  0  7G22G15G18G26G05G29G21
   8401991.10246   6558801.42243  24533195.1644                   24533192.8834
 -20449337.39148 -15920142.55947  20589834.1094                   20589831.0434
 -12137979.95748  -9447251.95746  21783719.5234                   21783716.0314
 -16791197.59047 -13063202.33645  21830062.6564                   21830059.1024
 -10254067.29346  -7974762.80543  24662529.9454                   24662526.3984
 -24574410.78148 -19134557.60547  20625801.3444                   20625798.6844
 -15291461.28547 -11909716.06646  21913684.5314                   21913680.8134
 11  9 22  2 44 30.0000000  0  7G22G15G18G26G05G29G21
   8302550.10946   6481315.12143  24514272.0704                   24514269.2854
 -20471205.07848 -15937182.29347  20585672.8524                   20585669.5164
 -12200812.24648  -9496212.14546  21771762.9224                   21771759.4924
 -16751241.61747 -13032067.82445  21837666.2274                   21837663.3754
 -10195951.28146  -7929477.59843  24673588.7504                   24673586.4144
 -24552453.02748 -19117447.68047  20629979.7974                   20629977.2664
 -15379265.59447 -11978134.97746  21896975.9384                   21896971.6254
 11  9 22  2 45  0.0000000  0  7G22G15G18G26G05G29G21
   8203269.59046   6403953.88744  24495379.9304                   24495377.2344
 -20492471.84048 -15953753.78547  20581625.6254                   20581623.0704
 -12263411.68748  -9544990.87546  21759850.8444                   21759847.0944
 -16710707.65647 -13000482.90245  21845379.7814                   21845377.8794
 -10137897.63746  -7884241.02743  24684636.0474                   24684634.3364
 -24529974.83248 -19099932.21947  20634257.0234                   20634254.6524
 -15466996.24247 -12046496.48846  21880281.3134                   21880276.9024
 11  9 22  2 45 30.0000000  0  7G22G15G18G26G05G29G21
   8104147.60246   6326716.15243  24476517.3984                   24476514.0044
 -20513139.84048 -15969858.71147  20577692.9144                   20577689.6294
 -12325780.67648  -9593590.02346  21747982.4064                   21747978.7584
 -16669600.45347 -12968451.32045  21853202.1414                   21853199.3714
 -10079908.65246  -7839054.79743  24695671.7814                   24695668.6174
 -24506979.08248 -19082013.46546  20638633.2274                   20638630.8324
 -15554654.17648 -12114801.34046  21863601.0634                   21863596.4844
 11  9 22  2 46  0.0000000  0  7G22G15G18G26G05G29G21
   8005183.09846   6249601.16444  24457684.8914                   24457682.2584
 -20533210.59048 -15985498.23447  20573873.3984                   20573870.2114
 -12387921.58647  -9642011.47746  21736157.4224                   21736153.7464
 -16627923.67247 -12935975.91045  21861132.6804                   21861130.3204
 -10021986.19946  -7793920.43743  24706693.8914                   24706690.9654
 -24483468.93048 -19063693.86346  20643107.1724                   20643104.6374
 -15642238.88348 -12183049.12946  21846934.2424                   21846930.0664
 11  9 22  2 46 30.0000000  0  7G22G15G18G26G05G29G21
   7906377.88746   6172610.25444  24438883.1174                   24438879.3244
 -20552683.23448 -16000671.70747  20570168.1484                   20570164.9144
 -12449833.53148  -9690254.52346  21724375.7894                   21724371.7114
 -16585678.37947 -12903057.52045  21869172.0634                   21869169.3754
  -9964129.40246  -7748837.22343  24717703.0554                   24717700.5274
 -24459444.06248 -19044973.20747  20647678.9304                   20647676.3524
 -15729747.35548 -12251237.49646  21830281.2344                   21830277.7384
 11  9 22  2 47  0.0000000  0  7G22G15G18G26G05G29G21
   7807730.06646   6095742.07843  24420110.4694                   24420107.1914
 -20571559.93748 -16015380.81647  20566576.1094                   20566572.8324
 -12511518.67648  -9738320.82846  21712637.5004                   21712633.5314
 -16542869.23047 -12869699.73445  21877318.1884                   21877315.4804
  -9906341.00446  -7703807.30543  24728699.8054                   24728698.0124
 -24434908.19948 -19025854.35947  20652347.8984                   20652345.5664
 -15817180.60948 -12319367.26246  21813643.4144                   21813639.1374
 11  9 22  2 47 30.0000000  0  7G22G15G18G26G05G29G21
   7709241.34046   6018997.79344  24401367.5004                   24401364.8164
 -20589839.71148 -16029624.77047  20563097.3134                   20563094.3324
 -12572975.89548  -9786209.53146  21700942.1644                   21700939.0234
 -16499497.07047 -12835903.23845  21885571.7664                   21885569.5784
  -9848619.82846  -7658829.77343  24739684.6884                   24739681.6094
 -24409861.04348 -19006337.10547  20657114.3984                   20657112.1134
 -15904534.75847 -12387435.38346  21797020.3834                   21797016.5984
 11  9 22  2 48  0.0000000  0  7G22G15G18G26G05G29G21
   7610912.64846   5942378.25843  24382656.3594                   24382654.4534
 -20607522.28948 -16043403.38347  20559732.4384                   20559729.1684
 -12634205.49648  -9833920.86746  21689290.8054                   21689286.9024
 -16455564.01247 -12801669.69545  21893931.5234                   21893929.6094
  -9790965.82446  -7613904.55543  24750655.2194                   24750652.6454
 -24384303.34048 -18986422.03146  20661977.8284                   20661974.9774
 -15991808.66848 -12455441.00046  21780413.0784                   21780408.8284
 11  9 22  2 48 30.0000000  0  7G22G15G18G26G05G29G21
   7512743.38746   5865882.93044  24363975.1334                   24363972.3674
 -20624608.83248 -16056717.55947  20556480.6804                   20556477.8914
 -12695208.44548  -9881455.59046  21677682.3134                   21677678.9694
 -16411073.27747 -12767001.61345  21902397.8204                   21902395.6294
  -9733380.29346  -7569032.68743  24761613.0474                   24761611.2424
 -24358237.19548 -18966110.75846  20666938.0704                   20666935.3834
 -16079001.14848 -12523383.15646  21763820.5864                   21763816.2234
 11  9 22  2 49  0.0000000  0  6G22G15G18G26G29G21
   7414733.59847   5789511.89144  24345325.1644                   24345321.7384
 -20641100.05948 -16069567.84447  20553342.5944                   20553339.1644
 -12755986.01648  -9928814.70346  21666116.8204                   21666113.0234
 -16366028.01647 -12731901.40645  21910969.3914                   21910966.7664
 -24331664.63348 -18945404.87947  20671994.4924                   20671992.0744
 -16166111.25447 -12591261.12146  21747243.9144                   21747239.8674
 11  9 22  2 49 30.0000000  0  6G22G15G18G26G29G21
   7316882.55547   5713264.53144  24326704.7814                   24326701.6294
 -20656997.08648 -16081955.10947  20550317.7504                   20550314.1724
 -12816538.92248  -9975998.74646  21654593.5864                   21654589.6604
 -16320431.02347 -12696371.28545  21919646.7504                   21919643.5004
 -24304587.36748 -18924305.71947  20677147.3674                   20677145.0634
 -16253137.17648 -12659073.50446  21730683.7734                   21730679.6884
 11  9 22  2 50  0.0000000  0  6G22G15G18G26G29G21
   7219197.84047   5637146.78944  24308115.4844                   24308111.9924
 -20672293.12948 -16093874.08247  20547406.7974                   20547403.7154
 -12876860.58248 -10023002.60546  21643115.1884                   21643111.4534
 -16274277.93047 -12660407.82845  21928428.9614                   21928426.3594
 -24276999.82048 -18902808.92646  20682396.9694                   20682394.5004
 -16340069.71548 -12726813.09046  21714141.0554                   21714136.9454
 11  9 22  2 50 30.0000000  0  6G22G15G18G26G29G21
   7121682.30547   5561160.91444  24289558.4924                   24289554.4574
 -20686986.06648 -16105323.10547  20544610.6884                   20544607.1684
 -12936948.88348 -10069824.62146  21631680.7664                   21631676.5514
 -16227568.44947 -12624010.84445  21937318.0634                   21937315.3284
 -24248901.01648 -18880913.75446  20687743.8834                   20687741.3914
 -16426906.03548 -12794477.71146  21697616.6564                   21697612.2814
 11  9 22  2 51  0.0000000  0  6G22G15G18G26G29G21
   7024333.04347   5485304.54743  24271033.9774                   24271029.3244
 -20701079.46948 -16116304.95747  20541929.3134                   20541925.8754
 -12996807.31247 -10116467.51646  21620289.6254                   21620285.7234
 -16180308.70747 -12587185.07445  21946311.2734                   21946308.0204
 -24220295.41448 -18858623.68746  20693187.3594                   20693185.0164
 -16513647.19548 -12862068.19546  21681110.5474                   21681105.9414
 11  9 22  2 51 30.0000000  0  6G22G15G18G26G29G21
   6927148.48847   5409576.47744  24252539.9774                   24252536.4884
 -20714576.11748 -16126821.80947  20539360.5864                   20539357.6994
 -13056438.28947 -10162933.16846  21608942.3284                   21608938.7074
 -16132503.23447 -12549934.05545  21955408.4224                   21955406.5314
 -24191186.53547 -18835941.46146  20698726.7274                   20698724.2034
 -16600293.12948 -12929584.48046  21664621.7734                   21664617.6374
 11  9 22  2 52  0.0000000  0  6G22G15G18G26G29G21
   6830125.66047   5333974.45744  24234076.6414                   24234072.8834
 -20727479.61348 -16136876.45747  20536905.1644                   20536901.8134
 -13115845.60947 -10209224.55546  21597637.6334                   21597633.5314
 -16084157.59047 -12512262.13345  21964608.3834                   21964605.4654
 -24161578.69147 -18812870.42646  20704361.0004                   20704358.2774
 -16686844.98448 -12997027.44546  21648151.6954                   21648147.0704
 11  9 22  2 52 30.0000000  0  6G22G15G18G26G29G21
   6733263.32047   5258497.45744  24215645.2114                   24215640.3404
 -20739791.55148 -16146470.15247  20534562.2504                   20534558.6374
 -13175030.99648 -10255342.99246  21586375.0004                   21586371.3634
 -16035275.71147 -12474172.35945  21973909.4384                   21973907.0234
 -24131475.00848 -18789413.01246  20710089.4304                   20710086.6094
 -16773302.70748 -13064397.05946  21631698.8984                   21631694.9494
 11  9 22  2 53  0.0000000  0  6G22G15G18G26G29G21
   6636561.96946   5183145.97743  24197242.2034                   24197238.2424
 -20751512.27348 -16155603.16847  20532332.1254                   20532327.9774
 -13233994.32448 -10301288.41046  21575154.3834                   21575150.9264
 -15985860.07447 -12435666.68445  21983313.1804                   21983310.4964
 -24100876.69948 -18765570.20346  20715912.0164                   20715909.8134
 -16859664.44548 -13131691.87546  21615265.0234                   21615261.3244
 11  9 22  2 53 30.0000000  0  6G22G15G18G26G29G21
   6540020.82047   5107919.30544  24178871.2894                   24178867.7274
 -20762643.71548 -16164276.99247  20530213.5004                   20530210.6134
 -13292737.71548 -10347062.44146  21563975.9224                   21563972.4144
 -15935914.54347 -12396748.08245  21992817.7974                   21992815.9414
 -24069786.68048 -18741344.23046  20721828.3364                   20721826.0354
 -16945929.73048 -13198911.54746  21598849.3754                   21598845.7074
 11  9 22  2 54  0.0000000  0  6G22G15G18G26G29G21
   6443640.96147   5032818.27044  24160530.9534                   24160527.5744
 -20773185.57848 -16172491.42247  20528207.3444                   20528204.3054
 -13351260.72748 -10392664.74646  21552839.5784                   21552835.7074
 -15885440.86347 -12357417.95345  22002422.3284                   22002420.0164
 -24038205.43448 -18716735.48447  20727838.3914                   20727835.7344
 -17032095.92248 -13266054.00446  21582452.2814                   21582447.9734
 11  9 22  2 54 30.0000000  0  6G22G15G18G26G29G21
   6347419.34447   4957840.53144  24142220.6484                   24142216.9734
 -20783141.72748 -16180249.43447  20526313.1174                   20526309.6954
 -13409566.80547 -10438098.00846  21541743.6884                   21541740.7624
 -15834445.10547 -12317680.98845  22012126.8914                   22012123.7424
 -24006137.66847 -18691747.62546  20733940.7894                   20733937.6914
 -17118164.41048 -13333120.32446  21566074.5084                   21566069.9534
 11  9 22  2 55  0.0000000  0  6G22G15G18G26G29G21
   6251355.65247   4882985.89144  24123940.5164                   24123936.8244
 -20792513.25848 -16187551.91447  20524529.5784                   20524526.4694
 -13467657.10247 -10483363.13346  21530689.7734                   21530686.1094
 -15782930.42247 -12277539.68045  22021929.6884                   22021926.2274
 -23973585.70747 -18666382.47746  20740134.9144                   20740132.5824
 -17204133.59847 -13400109.28546  21549714.8754                   21549710.5434
 11  9 22  2 55 30.0000000  0  6G22G15G18G26G29G21
   6155452.82847   4808256.50844  24105689.6254                   24105685.5594
 -20801298.46148 -16194397.49647  20522857.8134                   20522854.1804
 -13525529.42647 -10528458.40646  21519676.8204                   21519672.8284
 -15730896.60947 -12236993.86345  22031831.4224                   22031828.5004
 -23940548.52347 -18640639.23446  20746421.9304                   20746418.8364
 -17289999.14547 -13467017.47346  21533374.8914                   21533371.2154
 11  9 22  2 56  0.0000000  0  6G22G15G18G26G29G21
   6059709.66446   4733651.60244  24087469.8364                   24087465.9344
 -20809498.87548 -16200787.41447  20521297.1954                   20521293.7074
 -13583185.23047 -10573384.94546  21508705.6484                   21508701.7194
 -15678347.88747 -12196046.82045  22041831.5704                   22041828.2114
 -23907028.85247 -18614520.02746  20752800.0634                   20752797.6724
 -17375760.75447 -13533844.67246  21517054.9694                   21517050.8594
 11  9 22  2 56 30.0000000  0  7G22G15G09G18G26G29G21
   5964122.36747   4659168.10544  24069281.0394                   24069277.1454
 -20817119.52048 -16206725.57847  20519846.9064                   20519843.6914
   9286276.65656   7249224.43453  24728719.8054                   24728718.1484
 -13640629.13747 -10618146.38746  21497774.0704                   21497770.8324
 -15625290.93747 -12154703.73445  22051927.4384                   22051924.6484
 -23873032.31247 -18588029.24646  20759269.5314                   20759267.0784
 -17461421.00848 -13600592.91046  21500754.7114                   21500750.2074
 11  9 22  2 57  0.0000000  0  7G22G15G09G18G26G29G21
   5868687.44947   4584803.28544  24051121.0234                   24051115.4064
 -20824165.31648 -16212215.78147  20518506.3914                   20518502.8244
   9173096.32846   7161032.14142  24707182.3284                   24707179.8014
 -13697866.09047 -10662746.55546  21486882.4144                   21486878.3914
 -15571732.50847 -12112969.91045  22062119.5474                   22062116.2234
 -23838564.76247 -18561171.42646  20765828.6024                   20765825.9184
 -17546981.16048 -13667263.12546  21484473.0394                   21484468.9614
 11  9 22  2 57 30.0000000  0  7G22G15G09G18G26G29G21
   5773401.77746   4510554.75044  24032988.2424                   24032982.7234
 -20830639.60948 -16217260.67247  20517274.1564                   20517271.0354
   9059816.08646   7072761.96943  24685626.5394                   24685622.7894
 -13754899.10947 -10707187.82046  21476029.2664                   21476025.1524
 -15517678.32447 -12070849.77045  22072404.6954                   22072403.1644
 -23803630.64848 -18533950.04746  20772476.4774                   20772473.8874
 -17632442.91447 -13733856.66446  21468210.1094                   21468206.2274
 11  9 22  2 58  0.0000000  0  7G22G15G09G18G26G29G21
   7253690.30146   5664026.40644  24314677.2734                   24314673.2464
 -19261121.59848 -14994259.60547  20815943.4924                   20815940.2384
  10521864.46946   8212020.58243  24963842.7344                   24963842.3634
 -12236305.37947  -9523867.98446  21765007.8444                   21765004.6214
 -13887711.39847 -10800745.69145  22382577.7424                   22382575.4144
 -22192811.49647 -17278766.31646  21079004.7814                   21079002.7234
 -16142380.55147 -12572769.09046  21751759.5084                   21751754.9304
 11  9 22  2 58 30.0000000  0  7G22G15G09G18G26G29G21
   7158708.59846   5590014.76244  24296602.8524                   24296599.1604
 -19266451.18748 -14998412.51647  20814929.0944                   20814926.2974
  10408398.55546   8123605.71943  24942251.3444                   24942250.7034
 -12292927.64548  -9567989.19146  21754233.1564                   21754229.6564
 -13832669.19547 -10757855.66045  22393052.1564                   22393049.7344
 -22156945.07447 -17250818.47746  21085830.1564                   21085827.4924
 -16227635.48447 -12639201.48846  21735536.1414                   21735531.1804
 11  9 22  2 59  0.0000000  0  7G22G15G09G18G26G29G21
   7063883.78946   5516125.36744  24278557.9224                   24278553.9774
 -19271204.85948 -15002116.67247  20814025.0234                   20814021.5554
  10294848.88746   8035125.58643  24920644.4694                   24920643.0044
 -12349340.41847  -9611947.14146  21743498.4384                   21743494.0554
 -13777132.56647 -10714580.37545  22403620.0944                   22403617.3754
 -22120610.15648 -17222505.56246  21092744.3134                   21092742.7544
 -16312779.32447 -12705547.32046  21719333.7504                   21719329.3484
 11  9 22  2 59 30.0000000  0  7G22G15G09G18G26G29G21
   6969213.73046   5442356.60544  24260542.8984                   24260539.2384
 -19275386.09848 -15005374.75847  20813229.2344                   20813225.5824
  10181216.14846   7946580.76643  24899019.8914                   24899018.4804
 -12405546.77047  -9655744.24246  21732802.3674                   21732798.6254
 -13721106.99647 -10670924.08645  22414281.4924                   22414278.6914
 -22083811.09047 -17193830.99246  21099746.8754                   21099744.3554
 -16397812.98847 -12771807.29346  21703152.1334                   21703147.7584
 11  9 22  3  0  0.0000000  0  7G22G15G09G18G26G29G21
   6874702.77746   5368711.76644  24242557.7424                   24242553.9454
 -19278991.34048 -15008184.02347  20812543.3284                   20812539.3874
  10067507.93845   7857977.01242  24877382.4384                   24877380.2154
 -12461542.84847  -9699377.50046  21722146.4774                   21722142.7734
 -13664590.84047 -10626885.52745  22425036.2664                   22425034.3954
 -22046545.59848 -17164792.96146  21106838.7894                   21106836.2894
 -16482730.30947 -12837976.63346  21686993.0164                   21686988.6764
 11  9 22  3  0 30.0000000  0  7G22G15G09G18G26G29G21
   6780349.34046   5295189.68044  24224603.1094                   24224599.9304
 -19282023.34048 -15010546.61347  20811966.0944                   20811962.4964
   9953725.73846   7769315.60543  24855730.1024                   24855727.5634
 -12517331.35247  -9742849.02046  21711530.4924                   21711526.8524
 -13607588.53947 -10582468.16844  22435883.5634                   22435881.1524
 -22008817.11748 -17135394.15646  21114017.9614                   21114015.8794
 -16567530.87947 -12904054.98046  21670856.1564                   21670852.5004
 11  9 22  3  1  0.0000000  0  7G22G15G09G18G26G29G21
   6686155.88747   5221792.25844  24206679.0864                   24206675.0274
 -19284480.59848 -15012461.35247  20811498.8594                   20811495.5164
   9839874.79345   7680600.71542  24834064.8594                   24834061.2504
 -12572909.78947  -9786156.85546  21700954.0634                   21700949.8134
 -13550100.65647 -10537672.41445  22446823.2424                   22446820.5864
 -21970624.70348 -17105633.85546  21121285.6414                   21121283.3554
 -16652210.59047 -12970039.14846  21654742.3674                   21654737.7504
 11  9 22  3  1 30.0000000  0  7G22G15G09G18G26G29G21
   6592120.09847   5148517.66044  24188784.6644                   24188780.1604
 -19286366.64548 -15013930.98046  20811139.4144                   20811136.1564
   9725955.89845   7591832.86343  24812386.5554                   24812383.8014
 -12628281.32847  -9829303.46946  21690417.1564                   21690413.1214
 -13492132.47747 -10492502.40245  22457854.2974                   22457851.5594
 -21931972.82848 -17075515.52046  21128641.2664                   21128638.5124
 -16736770.14148 -13035929.68746  21638650.5004                   21638646.3984
 11  9 22  3  2  0.0000000  0  7G22G15G09G18G26G29G21
   6498241.90247   5075365.89144  24170919.9224                   24170915.3284
 -19287682.82848 -15014956.57446  20810889.2734                   20810886.0944
   9611971.89545   7503014.28943  24790695.8204                   24790695.2544
 -12683447.01647  -9872289.67246  21679919.4774                   21679915.3984
 -13433687.12947 -10446960.59045  22468975.9924                   22468973.5514
 -21892863.76648 -17045040.94946  21136083.2504                   21136081.1414
 -16821207.90647 -13101725.32046  21622582.7894                   21622578.2774
 11  9 22  3  2 30.0000000  0  7G22G15G09G18G26G29G21
   6404522.42647   5002337.77044  24153085.3364                   24153081.7704
 -19288429.05148 -15015538.03547  20810747.3594                   20810743.4414
   9497927.06345   7414148.36343  24768992.9924                   24768992.4694
 -12738406.09847  -9915114.87946  21669461.3444                   21669457.1174
 -13374766.48047 -10401048.41445  22480188.2504                   22480186.1134
 -21853297.83248 -17014210.36746  21143612.5164                   21143610.3794
 -16905520.58248 -13167423.49246  21606538.5944                   21606533.6914
 11  9 22  3  3  0.0000000  0  8G22G15G09G18G06G26G29G21
   6310957.64847   4929430.18443  24135281.4144                   24135276.1414
 -19288610.76648 -15015679.61346  20810712.5394                   20810709.0944
   9383820.23046   7325234.02043  24747280.0394                   24747279.3404
 -12793163.34447  -9957782.82446  21659041.2034                   21659037.2464
  10862194.36716                  24919737.211
 -13315378.13347 -10354771.78145  22491489.3914                   22491487.1254
 -21813282.25048 -16983029.41046  21151227.2114                   21151224.8404
 -16989710.97347 -13233026.37146  21590517.9144                   21590513.1644
 11  9 22  3  3 30.0000000  0  8G22G15G09G18G06G26G29G21
   6217544.36346   4856640.69144  24117504.6954                   24117500.1884
 -19288231.78548 -15015384.30546  20810784.7894                   20810781.4264
   9269651.89545   7236271.75043  24725554.5784                   24725553.6024
 -12847722.30148 -10000296.25446  21648658.8134                   21648654.6844
  10749710.16846   8389649.28553  24898332.8134                   24898328.3404
 -13255527.39147 -10308134.85245  22502878.3444                   22502876.1914
 -21772821.07448 -16951501.23846  21158926.7584                   21158924.1684
 -17073780.14848 -13298534.78946  21574519.7034                   21574515.5634
 11  9 22  3  4  0.0000000  0  8G22G15G09G18G06G26G29G21
   6124278.20747   4783965.84844  24099756.3594                   24099752.4184
 -19287298.17248 -15014656.81646  20810962.1644                   20810958.7504
   9155420.27345   7147260.27043  24703816.1804                   24703814.7734
 -12902087.89148 -10042659.02046  21638313.4694                   21638309.4574
  10637473.45746   8302192.16043  24876974.4614                   24876972.2624
 -13195222.09047 -10261143.69945  22514354.6094                   22514352.0704
 -21731921.24248 -16919631.24646  21166709.6724                   21166707.4534
 -17157730.66048 -13363950.75446  21558544.4844                   21558540.6994
 11  9 22  3  4 30.0000000  0  8G22G15G09G18G06G26G29G21
   6031160.53146   4711406.71543  24082036.2344                   24082031.5744
 -19285809.45748 -15013496.77346  20811245.5944                   20811242.3364
   9041130.03945   7058203.03143  24682068.0474                   24682066.7194
 -12956259.79348 -10084870.85246  21628004.7194                   21628001.2624
  10525488.50045   8214931.28543  24855664.0634                   24855662.5164
 -13134463.60947 -10213799.44944  22525916.5474                   22525913.7624
 -21690582.87548 -16887419.53946  21174575.8914                   21174573.7304
 -17241559.30548 -13429271.75446  21542592.4144                   21542588.5474
 11  9 22  3  5  0.0000000  0  8G22G15G09G18G06G26G29G21
   5938194.30547   4638965.59844  24064345.8444                   24064342.6914
 -19283764.14148 -15011903.00447  20811634.7274                   20811631.3714
   8926787.03946   6969104.67643  24660309.6254                   24660307.3164
 -13010235.91448 -10126930.13346  21617733.6334                   21617729.5744
  10413760.29346   8127870.43043  24834403.3754                   24834402.8404
 -13073252.42247 -10166102.41844  22537564.8054                   22537561.7814
 -21648805.64148 -16854865.87546  21182525.9144                   21182523.2894
 -17325261.40648 -13494494.15246  21526664.3754                   21526660.0274
 11  9 22  3  5 30.0000000  0  8G22G15G09G18G06G26G29G21
   5845382.62547   4566644.88744  24046684.8134                   24046679.7624
 -19281160.32847 -15009874.04347  20812130.1334                   20812126.6094
   8812397.45746   6879970.06344  24638541.2584                   24638539.9144
 -13064013.15248 -10168834.44146  21607500.1334                   21607495.8914
  10302294.67646   8041014.19943  24813191.4064                   24813190.7894
 -13011588.35247 -10118052.52345  22549298.9224                   22549296.0004
 -21606588.32448 -16821969.28146  21190559.8054                   21190557.4104
 -17408831.39148 -13559613.60246  21510761.5784                   21510756.5434
 11  9 22  3  6  0.0000000  0  8G22G15G09G18G06G26G29G21
   5752725.13347   4494444.33644  24029052.4614                   24029048.1804
 -19277999.56248 -15007411.11347  20812731.7504                   20812728.0084
   8697964.58246   6790801.65243  24616765.6094                   24616764.8984
 -13117592.63748 -10210584.64846  21597304.1024                   21597300.1914
  10191093.69146   7954364.14143  24792031.0864                   24792029.6214
 -12949474.77047 -10069652.33244  22561118.8914                   22561115.2304
 -21563933.32848 -16788731.63346  21198676.9384                   21198674.3984
 -17492268.76648 -13624629.72746  21494883.9614                   21494879.8014
 11  9 22  3  6 30.0000000  0  8G22G15G09G18G06G26G29G21
   5660222.52047   4422364.48844  24011449.7734                   24011445.0594
 -19274282.59048 -15004514.75847  20813439.2344                   20813436.0904
   8583491.82446   6701602.19944  24594982.0314                   24594980.6884
 -13170974.46148 -10252180.84046  21587146.0634                   21587141.7664
  10080160.25446   7867922.57443  24770920.7664                   24770918.8484
 -12886913.91047 -10020903.62144  22573024.1804                   22573020.3754
 -21520841.91048 -16755153.93446  21206876.8444                   21206874.6174
 -17575570.81248 -13689540.39146  21479032.1414                   21479027.8404
 11  9 22  3  7  0.0000000  0  8G22G15G09G18G06G26G29G21
   5567876.73847   4350406.80144  23993876.6724                   23993872.4104
 -19270008.75448 -15001184.48847  20814252.5084                   20814248.9064
   8468984.42246   6612375.75044  24573191.5234                   24573190.6804
 -13224157.28548 -10293621.97746  21577025.5314                   21577021.5234
   9969498.84846   7781692.96143  24749863.3054                   24749860.6484
 -12823907.15647  -9971807.44144  22585013.2584                   22585011.1174
 -21477314.17648 -16721236.23846  21215160.4384                   21215157.6254
 -17658732.99248 -13754342.05946  21463207.1804                   21463202.5204
 11  9 22  3  7 30.0000000  0  8G22G15G09G18G06G26G29G21
   5475686.67247   4278570.50844  23976333.5164                   23976329.3094
 -19265180.19547 -14997421.96547  20815171.1724                   20815167.2624
   8354444.49646   6523123.98044  24551395.6484                   24551394.3594
 -13277142.94548 -10334909.47346  21566942.1334                   21566938.0554
   9859110.50046   7695676.15644  24728856.9774                   24728854.8984
 -12760458.64147  -9922367.05544  22597086.5474                   22597084.9304
 -21433353.39848 -16686981.10946  21223525.3674                   21223522.7034
 -17741755.47348 -13819034.89146  21447407.9534                   21447403.8404
 11  9 22  3  8  0.0000000  0  8G22G15G09G18G06G26G29G21
   5383652.61347   4206855.77744  23958819.6254                   23958815.2664
 -19259798.08647 -14993228.10247  20816195.4694                   20816191.8244
   8239875.78946   6433849.72744  24529594.3054                   24529592.2814
 -13329931.22347 -10376043.16846  21556897.6724                   21556893.1684
   9748998.54347   7609874.74244  24707902.9144                   24707902.0004
 -12696570.61346  -9872584.19544  22609244.3524                   22609242.9804
 -21388961.34048 -16652389.91846  21231972.7274                   21231970.0634
 -17824635.24648 -13883616.52046  21431636.9614                   21431632.5044
 11  9 22  3  8 30.0000000  0  8G22G15G09G18G06G26G29G21
   5291775.30946   4135263.16043  23941335.6884                   23941330.1174
 -19253863.01647 -14988603.36747  20817324.7974                   20817321.7114
   8125282.09046   6344555.99644  24507787.8914                   24507786.4734
 -13382522.16447 -10417023.08246  21546889.3674                   21546885.2934
   9639165.94146   7524290.98044  24687002.2734                   24687001.3364
 -12632245.64147  -9822460.86744  22621485.3444                   22621482.8954
 -21344139.53148 -16617463.84446  21240502.4064                   21240499.5864
 -17907369.21147 -13948084.52346  21415893.0004                   21415888.8714
 11  9 22  3  9  0.0000000  0  8G22G15G09G18G06G26G29G21
   5200053.39147   4063791.67244  23923881.3984                   23923877.6414
 -19247377.51247 -14983549.71146  20818558.9064                   20818555.6954
   8010664.99246   6255244.09844  24485976.6484                   24485974.7074
 -13434917.49247 -10457850.57846  21536918.8674                   21536915.0664
   9529613.63746   7438925.64543  24666154.5704                   24666154.3134
 -12567488.23846  -9772000.55544  22633808.0704                   22633804.9384
 -21298891.25448 -16582205.46546  21249113.0474                   21249110.4414
 -17989957.99647 -14012439.39546  21400176.9144                   21400172.8714
 11  9 22  3  9 30.0000000  0  8G22G15G09G18G06G26G29G21
   5108488.72746   3992442.67243  23906457.4534                   23906453.0434
 -19240341.24248 -14978066.90246  20819897.7504                   20819894.4224
   7896029.82846   6165918.05944  24464162.0394                   24464160.5204
 -13487116.51248 -10498525.10946  21526986.1724                   21526981.8794
   9420345.95746   7353782.12143  24645361.7734                   24645361.3204
 -12502299.43746  -9721204.07044  22646213.3524                   22646209.7624
 -21253216.79348 -16546614.98046  21257803.9844                   21257801.7114
 -18072397.43748 -14076677.87546  21384489.3444                   21384484.8484
 11  9 22  3 10  0.0000000  0  8G22G15G09G18G06G26G29G21
   5017079.24647   3921214.62944  23889062.8444                   23889058.0634
 -19232757.78548 -14972157.70346  20821340.7974                   20821337.3054
   7781377.71546   6076578.84043  24442344.2424                   24442343.0864
 -13539121.75448 -10539048.64546  21517089.7274                   21517085.2734
   9311363.18846   7268860.62942  24624623.2894                   24624621.6724
 -12436684.60247  -9670075.63744  22658699.3054                   22658697.1484
 -21207120.24248 -16510695.61746  21266576.1094                   21266573.6054
 -18154687.37148 -14140799.86346  21368830.1954                   21368825.1884
 11  9 22  3 10 30.0000000  0  8G22G15G09G18G06G26G29G21
   4925822.36747   3850105.46144  23871697.2114                   23871692.2584
 -19224631.11748 -14965825.23046  20822887.3984                   20822884.4264
   7666709.40646   5987227.01644  24420523.9064                   24420522.7704
 -13590936.17248 -10579423.48846  21507229.8674                   21507225.4144
   9202665.36346   7184161.19143  24603938.1884                   24603936.4774
 -12370649.18446  -9618619.49644  22671265.4224                   22671263.0824
 -21160606.70748 -16474451.32046  21275427.2584                   21275424.6214
 -18236828.56648 -14204805.96146  21353198.9924                   21353194.1724
 11  9 22  3 11  0.0000000  0  8G22G15G09G18G06G26G29G21
   4834721.18847   3779117.58644  23854361.4064                   23854356.7464
 -19215959.37548 -14959068.01646  20824537.5004                   20824534.5004
   7552031.55946   5897867.76644  24398701.8524                   24398699.3594
 -13642557.41048 -10619647.80146  21497406.4534                   21497402.4024
   9094257.98046   7099687.92643  24583309.6254                   24583307.5824
 -12304193.02046  -9566835.48044  22683912.0234                   22683908.8834
 -21113674.47348 -16437880.77346  21284358.5474                   21284355.8054
 -18318815.69147 -14268692.01646  21337596.9774                   21337592.5124
 11  9 22  3 11 30.0000000  0  8G22G15G09G18G06G26G29G21
   4743774.87547   3708250.46944  23837054.5784                   23837050.3984
 -19206745.02747 -14951887.99646  20826291.0554                   20826287.6174
   7437346.71146   5808503.08243  24376876.4384                   24376875.6684
 -13693986.12147 -10659722.09046  21487620.0164                   21487616.3054
   8986142.88746   7015442.48843  24562735.1094                   24562733.8834
 -12237319.84846  -9514726.50444  22696637.2034                   22696635.2194
 -21066327.05148 -16400986.68746  21293368.1644                   21293365.6414
 -18400647.50847 -14332457.03546  21322025.4224                   21322020.4224
 11  9 22  3 12  0.0000000  0  8G22G15G09G18G06G26G29G21
   4652983.00047   3637503.68044  23819776.7424                   23819773.1094
 -19196989.71147 -14944286.44146  20828147.1804                   20828143.7424
   7322657.32846   5719134.77343  24355052.2194                   24355050.2734
 -13745224.08647 -10699647.74246  21477869.3754                   21477865.3444
   8878321.57445   6931426.03142  24542217.1094                   24542214.9184
 -12170033.80147  -9462295.82844  22709441.3914                   22709438.8324
 -21018567.24248 -16363771.27046  21302456.5944                   21302454.0664
 -18482322.64147 -14396099.98846  21306483.1024                   21306478.3244
 11  9 22  3 12 30.0000000  0  8G22G15G09G18G06G26G29G21
   4562344.18846   3566876.15244  23802528.9844                   23802525.1374
 -19186696.16847 -14936265.49646  20830105.9924                   20830102.8954
   7207965.40246   5629764.54743  24333227.2034                   24333225.1954
 -13796273.35547 -10739426.37146  21468154.9694                   21468151.0704
   8770795.53946   6847639.57843  24521756.3444                   24521753.8244
 -12102339.00447  -9409546.66844  22722323.3524                   22722319.9384
 -20970398.18748 -16326236.95746  21311623.0164                   21311620.8794
 -18563840.29748 -14459620.22746  21290970.8444                   21290966.5354
 11  9 22  3 13  0.0000000  0  8G22G15G09G18G06G26G29G21
   4471860.56647   3496369.55144  23785311.0634                   23785305.8794
 -19175864.07848 -14927824.89846  20832167.3984                   20832164.6644
   7093276.48446   5540396.62143  24311402.6174                   24311400.3984
 -13847131.98047 -10779056.43046  21458477.1644                   21458472.7664
   8663569.13746   6764086.59443  24501351.9454                   24501349.5314
 -12034236.15646  -9356479.50444  22735282.3674                   22735280.0044
 -20921819.96548 -16288383.80546  21320867.1174                   21320864.7304
 -18645196.55948 -14523014.69146  21275489.0554                   21275484.6484
 11  9 22  3 13 30.0000000  0  8G22G15G09G18G06G26G29G21
   4381532.06647   3425983.81344  23768121.9924                   23768116.2584
 -19164495.11348 -14918965.95746  20834331.0004                   20834327.6994
   6978593.73446   5451033.49643  24289578.5084                   24289577.5004
 -13897800.75047 -10818538.55946  21448835.2114                   21448831.4064
   8556644.96947   6680769.12544  24481004.9224                   24481003.0274
 -11965728.56647  -9303096.98844  22748319.0394                   22748316.8094
 -20872835.16848 -16250213.84046  21330188.6484                   21330186.1294
 -18726389.50048 -14586281.90646  21260038.3524                   21260033.9494
 11  9 22  3 14  0.0000000  0  8G22G15G09G18G06G26G29G21
   4291355.78547   3355716.64844  23750961.4224                   23750957.0664
 -19152593.51648 -14909691.98047  20836595.7194                   20836591.9774
   6863917.77046   5361675.68043  24267757.4384                   24267755.1684
 -13948283.05548 -10857875.40246  21439228.6094                   21439224.4494
   8450022.18846   6597686.55144  24460715.1254                   24460713.6954
 -11896822.43047  -9249403.90644  22761431.9384                   22761429.5984
 -20823448.77748 -16211730.94946  21339586.6724                   21339583.9964
 -18807419.83648 -14649422.39846  21244618.8914                   21244614.7034
 11  9 22  3 14 30.0000000  0  8G22G15G09G18G06G26G29G21
   4201333.63347   3285569.61344  23733831.2114                   23733826.1764
 -19140158.91448 -14900002.67647  20838961.8754                   20838958.7114
   6749253.86346   5272327.30543  24245937.0234                   24245935.3594
 -13998577.50448 -10897065.84046  21429657.7034                   21429653.7154
   8343705.20747   6514842.28544  24440484.0234                   24440481.4574
 -11827518.73447  -9195401.02344  22774619.7034                   22774618.1454
 -20773661.02048 -16172935.29346  21349060.5004                   21349058.3794
 -18888283.80548 -14712433.27746  21229230.7344                   21229226.7894
 11  9 22  3 15  0.0000000  0  8G22G15G09G18G06G26G29G21
   4111466.46547   3215543.33644  23716730.3284                   23716725.0704
 -19127191.97348 -14889898.56246  20841429.7424                   20841426.3914
   6634606.16846   5182991.57043  24224120.3284                   24224118.7384
 -14048683.80148 -10936109.68046  21420122.6334                   21420118.8164
   8237697.42646   6432238.91044  24420310.6254                   24420309.0904
 -11757819.61346  -9141090.03144  22787882.8054                   22787880.1094
 -20723473.22748 -16133827.93446  21358611.1804                   21358608.6684
 -18968978.03148 -14775311.87146  21213875.0634                   21213871.0824
 11  9 22  3 15 30.0000000  0  8G22G15G09G18G06G26G29G21
   4021751.96547   3145636.00444  23699657.4844                   23699652.2854
 -19113696.16448 -14879382.32446  20843997.6644                   20843994.4304
   6519976.02746   5093669.46143  24202307.4774                   24202303.6484
 -14098604.77747 -10975009.11346  21410623.5164                   21410619.2664
   8131999.26646   6349876.80944  24400196.9064                   24400194.9494
 -11687730.18046  -9086474.88344  22801220.3754                   22801217.0824
 -20672889.87148 -16094412.34446  21368236.7734                   21368234.5474
 -19049502.80147 -14838058.41846  21198552.2664                   21198547.9454
 11  9 22  3 16  0.0000000  0  8G22G15G09G18G06G26G29G21
   3932190.35547   3075847.84044  23682614.4534                   23682609.8674
 -19099673.19148 -14868455.34046  20846665.8524                   20846662.2424
   6405367.10246   5004363.83243  24180497.3984                   24180495.1054
 -14148340.58648 -11013764.26246  21401158.8754                   21401154.6954
   8026612.91846   6267757.68844  24380142.0944                   24380140.5164
 -11617253.64146  -9031558.11744  22814631.9844                   22814628.6214
 -20621913.12948 -16054690.23046  21377937.2974                   21377934.8484
 -19129855.68448 -14900671.04346  21183261.2194                   21183256.8554
 11  9 22  3 16 30.0000000  0  8G22G15G09G18G06G26G29G21
   3842780.62947   3006178.00844  23665600.3984                   23665596.2034
 -19085125.55148 -14857119.50446  20849434.2194                   20849430.6804
   6290781.83646   4915076.67643  24158692.6484                   24158690.4574
 -14197892.64847 -11052376.23446  21391729.4064                   21391725.2034
   7921540.17646   6185882.93044  24360148.3204                   24360146.9384
 -11546393.78946  -8976342.63744  22828116.5164                   22828113.6054
 -20570545.82448 -16014663.77046  21387712.6954                   21387709.8444
 -19210035.77348 -14963149.03146  21168003.5394                   21167998.8874
 11  9 22  3 17  0.0000000  0  8G22G15G09G18G06G26G29G21
   3753523.47347   2936627.06344  23648615.1884                   23648609.6914
 -19070054.07448 -14845375.48846  20852302.4534                   20852299.1994
   6176224.01247   4825810.93843  24136893.5474                   24136890.7704
 -14247261.18047 -11090845.19546  21382334.6174                   21382330.6644
   7816784.02046   6104254.84843  24340214.1954                   24340212.1604
 -11475153.22346  -8920830.50844  22841673.0314                   22841670.5164
 -20518789.92248 -15974334.49246  21397561.2894                   21397558.8134
 -19290040.57448 -15025490.41846  21152779.2114                   21152774.5004
 11  9 22  3 17 30.0000000  0  8G22G15G09G18G06G26G29G21
   3664417.40647   2867193.86744  23631658.3984                   23631654.0864
 -19054461.89148 -14833225.73046  20855269.4384                   20855266.0594
   6061695.55946   4736568.06643  24115098.6804                   24115096.7304
 -14296448.21548 -11129172.72746  21372974.9774                   21372970.5514
   7712345.21946   6022874.06343  24320339.2584                   24320336.7114
 -11403536.58246  -8865025.36344  22855301.0474                   22855298.7664
 -20466649.00448 -15933705.22746  21407483.3984                   21407481.0984
 -19369869.12148 -15087694.48046  21137588.2814                   21137583.6994
 11  9 22  3 18  0.0000000  0  8G22G15G09G18G06G26G29G21
   3575463.68047   2797879.34044  23614731.5314                   23614726.7734
 -19038349.55148 -14820670.65246  20858335.5944                   20858331.7774
   5947201.19547   4647351.69944  24093311.5234                   24093309.0124
 -14345452.94147 -11167358.21546  21363649.5164                   21363645.5474
   7608227.57046   5941743.55543  24300526.4694                   24300524.4264
 -11331545.55946  -8808928.48444  22869000.1884                   22868998.4024
 -20414123.96148 -15892776.63346  21417478.3674                   21417475.9264
 -19449518.00848 -15149758.51646  21122431.2894                   21122427.1564
 11  9 22  3 18 30.0000000  0  8G22G15G09G18G06G26G29G21
   3486662.68047   2728683.84444  23597832.7664                   23597829.2384
 -19021718.16848 -14807711.14546  20861500.4614                   20861496.7344
   5832745.18847   4558165.27344  24071531.2814                   24071528.6094
 -14394275.32048 -11205401.60546  21354359.1884                   21354354.7974
   7504433.97746   5860865.54743  24280775.0004                   24280773.3284
 -11259182.47346  -8752541.69544  22882770.7974                   22882767.7304
 -20361216.78948 -15851550.28546  21427546.1254                   21427544.2704
 -19528984.55548 -15211680.47746  21107309.4844                   21107305.1294
 11  9 22  3 19  0.0000000  0  8G22G15G09G18G06G26G29G21
   3398013.75047   2659606.86344  23580963.3444                   23580959.1524
 -19004569.68448 -14794348.67646  20864763.7034                   20864760.5594
   5718330.30947   4469010.89144  24049758.5314                   24049756.7034
 -14442915.86348 -11243303.30946  21345102.9614                   21345098.9344
   7400966.48446   5780241.63343  24261085.3134                   24261083.5434
 -11186451.23846  -8695868.02744  22896611.1804                   22896607.6414
 -20307930.13748 -15810028.22346  21437686.4144                   21437684.0474
 -19608266.99648 -15273458.99246  21092222.4384                   21092218.3204
 11  9 22  3 19 30.0000000  0  8G22G15G09G18G06G26G29G21
   3309516.05547   2590647.69144  23564123.0704                   23564117.8554
 -18986906.88748 -14780585.44946  20868124.2894                   20868121.4694
   5603959.12147   4379890.56344  24027994.1884                   24027991.5634
 -14491376.62148 -11281064.92646  21335881.0314                   21335877.0164
   7297826.34446   5699872.74643  24241458.5864                   24241456.5744
 -11113355.70746  -8638910.45744  22910520.5164                   22910517.5594
 -20254267.56248 -15768213.25846  21447898.4534                   21447895.6844
 -19687364.50848 -15335093.39146  21077170.6644                   21077166.2274
 11  9 22  3 20  0.0000000  0  8G22G15G09G18G06G26G29G21
   3221167.05547   2521804.39844  23547311.0394                   23547305.8204
 -18968734.03148 -14766424.78146  20871582.7344                   20871579.2074
   5489632.40246   4290804.89844  24006238.3444                   24006236.3954
 -14539660.94948 -11318689.07046  21326692.5784                   21326688.8554
   7195013.34046   5619758.75443  24221893.2894                   24221891.6134
 -11039901.73846  -8581673.60944  22924498.2274                   22924496.3134
 -20200233.83248 -15726109.05946  21458180.5704                   21458178.0704
 -19766277.34448 -15396583.91046  21062154.3054                   21062149.7974
 11  9 22  3 20 30.0000000  0  8G22G15G09G18G06G26G29G21
   3132969.85547   2453079.35544  23530527.1884                   23530521.4144
 -18950050.26248 -14751865.98846  20875138.4694                   20875134.5164
   5375356.61347   4201758.86744  23984492.8054                   23984490.7584
 -14587766.28548 -11356173.74246  21317538.7734                   21317534.6954
   7092532.69146   5539903.75443  24202392.2974                   24202390.4144
 -10966089.43047  -8524157.55144  22938543.7664                   22938542.1914
 -20145828.21548 -15683715.08246  21468533.5634                   21468530.9734
 -19845000.59848 -15457926.71546  21047173.7504                   21047169.2074
 11  9 22  3 21  0.0000000  0  8G22G15G09G18G06G26G29G21
   3044923.63347   2384471.96144  23513772.4694                   23513767.6684
 -18930857.23448 -14736910.38746  20878790.7274                   20878787.4384
   5261134.90247   4112754.96944  23962757.6644                   23962755.6024
 -14635693.19548 -11393519.36346  21308418.3834                   21308414.5864
   6990386.81347   5460309.60943  24182955.1954                   24182952.0864
 -10891921.98846  -8466364.75444  22952658.0084                   22952655.6374
 -20091053.37548 -15641033.39846  21478956.6334                   21478954.3404
 -19923532.30148 -15519120.25446  21032229.6334                   21032225.1644
